[[{"header":{"parameterUnit":"m.s-1","parameterCategory":1,"la1":31.0,"la2":29.5877,"lo1":-88.7671,"lo2":-86.6584,"dy":0.0162,"dx":0.0185,"nx":115,"ny":88,"refTime":"2023-07-31T18:00:00:Z","depth":0,"parameterNumber":2,"parameterNumberName":"U-component_of_WINDS"},"data":[0.0,0.0,0.0,0.0,0.0,0.0,0.0,0.0,0.0,0.0,0.0,0.0,0.0,0.0,0.0,0.0,0.0,0.0,0.0,0.0,0.0,0.0,0.0,0.0,0.0,0.0,0.0,0.0,0.0,0.0,0.0,0.0,0.0,0.0,0.0,0.0,0.0,0.0,0.0,0.0,0.0,0.0,0.0,0.0,0.0,0.0,0.0,0.0,0.0,0.0,0.0,0.0,0.0,0.0,0.0,0.0,0.0,0.0,0.0,0.0,0.0,0.0,0.0,0.0,0.0,0.0,0.0,0.0,0.0,0.0,0.0,0.0,0.0,0.0,0.0,0.0,0.0,0.0,0.0,0.0,0.0,0.0,0.0,0.0,0.0,0.0,0.0,0.0,0.0,0.0,0.0,0.0,0.0,0.0,0.0,0.0,0.0,0.0,0.0,0.0,0.0,0.0,0.0,0.0,0.0,0.0,0.0,0.0,0.0,0.0,0.0,0.0,0.0,0.0,0.0,0.0,0.0,0.0,0.0,0.0,0.0,0.0,0.0,0.0,0.0,0.0,0.0,0.0,0.0,0.0,0.0,0.0,0.0,0.0,0.0,0.0,0.0,0.0,0.0,0.0,0.0,0.0,0.0,0.0,0.0,0.0,0.0,0.0,0.0,0.0,0.0,0.0,0.0,0.0,0.0,0.0,0.0,0.0,0.0,0.0,0.0,0.0,0.0,0.0,0.0,0.0,0.0,0.0,0.0,0.0,0.0,0.0,0.0,0.0,0.0,0.0,0.0,0.0,0.0,0.0,0.0,0.0,0.0,0.0,0.0,0.0,0.0,0.0,0.0,0.0,0.0,0.0,0.0,0.0,0.0,0.0,0.0,0.0,0.0,0.0,0.0,0.0,0.0,0.0,0.0,0.0,0.0,0.0,0.0,0.0,0.0,0.0,0.0,0.0,0.0,0.0,0.0,0.0,0.0,0.0,0.0,0.0,0.0,0.0,0.0,0.0,0.0,0.0,0.0,0.0,0.0,0.0,0.0,0.0,0.0,0.0,0.0,0.0,0.0,0.0,0.0,0.0,0.0,0.0,0.0,0.0,0.0,0.0,0.0,0.0,0.0,0.0,0.0,0.0,0.0,0.0,0.0,0.0,0.0,0.0,0.0,0.0,0.0,0.0,0.0,0.0,0.0,0.0,0.0,0.0,0.0,0.0,0.0,0.0,0.0,0.0,0.0,0.0,0.0,0.0,0.0,0.0,0.0,0.0,0.0,0.0,0.0,0.0,0.0,0.0,0.0,0.0,0.0,0.0,0.0,0.0,0.0,0.0,0.0,0.0,0.0,0.0,0.0,0.0,0.0,0.0,0.0,0.0,0.0,0.0,0.0,0.0,0.0,0.0,0.0,0.0,0.0,0.0,0.0,0.0,0.0,0.0,0.0,0.0,0.0,0.0,0.0,0.0,0.0,0.0,0.0,0.0,0.0,0.0,0.0,0.0,0.0,0.0,0.0,0.0,0.0,0.0,0.0,0.0,0.0,0.0,0.0,0.0,0.0,0.0,0.0,0.0,0.0,0.0,0.0,0.0,0.0,0.0,0.0,0.0,0.0,0.0,0.0,0.0,0.0,0.0,0.0,0.0,0.0,0.0,0.0,0.0,0.0,0.0,0.0,0.0,0.0,0.0,0.0,0.0,0.0,0.0,0.0,0.0,0.0,0.0,0.0,0.0,0.0,0.0,0.0,0.0,0.0,0.0,0.0,0.0,0.0,0.0,0.0,0.0,0.0,0.0,0.0,0.0,0.0,0.0,0.0,0.0,0.0,0.0,0.0,0.0,0.0,0.0,0.0,0.0,0.0,0.0,0.0,0.0,0.0,0.0,0.0,0.0,0.0,0.0,0.0,0.0,0.0,0.0,0.0,0.0,0.0,0.0,0.0,0.0,0.0,0.0,0.0,0.0,0.0,0.0,0.0,0.0,0.0,0.0,0.0,0.0,0.0,0.0,0.0,0.0,0.0,0.0,0.0,0.0,0.0,0.0,0.0,0.0,0.0,0.0,0.0,0.0,0.0,0.0,0.0,0.0,0.0,0.0,0.0,0.0,0.0,0.0,0.0,0.0,0.0,0.0,0.0,0.0,0.0,0.0,0.0,0.0,0.0,0.0,0.0,0.0,0.0,0.0,0.0,0.0,0.0,0.0,0.0,0.0,0.0,0.0,0.0,0.0,0.0,0.0,0.0,0.0,0.0,0.0,0.0,0.0,0.0,0.0,0.0,0.0,0.0,0.0,0.0,0.0,0.0,0.0,0.0,0.0,0.0,0.0,0.0,0.0,0.0,0.0,0.0,0.0,0.0,0.0,0.0,0.0,0.0,0.0,0.0,0.0,0.0,0.0,0.0,0.0,0.0,0.0,0.0,0.0,0.0,0.0,0.0,0.0,0.0,0.0,0.0,0.0,0.0,0.0,0.0,0.0,0.0,0.0,0.0,0.0,0.0,0.0,0.0,0.0,0.0,0.0,0.0,0.0,0.0,0.0,0.0,0.0,0.0,0.0,0.0,0.0,0.0,0.0,0.0,0.0,0.0,0.0,0.0,0.0,0.0,0.0,0.0,0.0,0.0,0.0,0.0,0.0,0.0,0.0,0.0,0.0,0.0,0.0,0.0,0.0,0.0,0.0,0.0,0.0,0.0,0.0,0.0,0.0,0.0,0.0,0.0,0.0,0.0,0.0,0.0,0.0,0.0,0.0,0.0,0.0,0.0,0.0,0.0,0.0,0.0,0.0,0.0,0.0,0.0,0.0,0.0,0.0,0.0,0.0,0.0,0.0,0.0,0.0,0.0,0.0,0.0,0.0,0.0,0.0,0.0,0.0,0.0,0.0,0.0,0.0,0.0,0.0,0.0,0.0,0.0,0.0,0.0,0.0,0.0,0.0,0.0,0.0,0.0,0.0,0.0,0.0,0.0,0.0,0.0,0.0,0.0,0.0,0.0,0.0,0.0,0.0,0.0,0.0,0.0,0.0,0.0,0.0,0.0,0.0,0.0,0.0,0.0,0.0,0.0,0.0,0.0,0.0,0.0,0.0,0.0,0.0,0.0,0.0,0.0,0.0,0.0,0.0,0.0,0.0,0.0,0.0,0.0,0.0,0.0,0.0,0.0,0.0,0.0,0.0,0.0,0.0,0.0,0.0,0.0,0.0,0.0,0.0,0.0,0.0,0.0,0.0,0.0,0.0,0.0,0.0,0.0,0.0,0.0,0.0,0.0,0.0,0.0,0.0,0.0,0.0,0.0,0.0,0.0,0.0,0.0,0.0,0.0,0.0,0.0,0.0,0.0,0.0,0.0,0.0,0.0,0.0,0.0,0.0,0.0,0.0,0.0,0.0,0.0,0.0,0.0,0.0,0.0,0.0,0.0,0.0,0.0,0.0,0.0,0.0,0.0,0.0,0.0,0.0,0.0,0.0,0.0,0.0,0.0,0.0,0.0,0.0,0.0,0.0,0.0,0.0,0.0,0.0,0.0,0.0,0.0,0.0,0.0,0.0,0.0,0.0,0.0,0.0,0.0,0.0,0.0,0.0,0.0,0.0,0.0,0.0,0.0,0.0,0.0,0.0,0.0,0.0,0.0,0.0,0.0,0.0,0.0,0.0,0.0,0.0,0.0,0.0,0.0,0.0,0.0,0.0,0.0,0.0,0.0,0.0,0.0,0.0,0.0,0.0,0.0,0.0,0.0,0.0,0.0,0.0,0.0,0.0,0.0,0.0,0.0,0.0,0.0,0.0,0.0,0.0,0.0,0.0,0.0,0.0,0.0,0.0,0.0,0.0,0.0,0.0,0.0,0.0,0.0,0.0,0.0,0.0,0.0,0.0,0.0,0.0,0.0,0.0,0.0,0.0,0.0,0.0,0.0,0.0,0.0,0.0,0.0,0.0,0.0,0.0,0.0,0.0,0.0,0.0,0.0,0.0,0.0,0.0,0.0,0.0,0.0,0.0,0.0,0.0,0.0,0.0,0.0,0.0,0.0,0.0,0.0,0.0,0.0,0.0,0.0,0.0,0.0,0.0,0.0,0.0,0.0,0.0,0.0,0.0,0.0,0.0,0.0,0.0,0.0,0.0,0.0,0.0,0.0,0.0,0.0,0.0,0.0,0.0,0.0,0.0,0.0,0.0,0.0,0.0,0.0,0.0,0.0,0.0,0.0,0.0,0.0,0.0,0.0,0.0,0.0,0.0,0.0,0.0,0.0,0.0,0.0,0.0,0.0,0.0,0.0,0.0,0.0,0.0,-2.351,0.0,0.0,0.0,0.0,0.0,0.0,0.0,0.0,0.0,0.0,0.0,0.0,0.0,0.0,0.0,0.0,0.0,0.0,0.0,0.0,0.0,0.0,0.0,0.0,0.0,0.0,0.0,0.0,0.0,0.0,0.0,0.0,0.0,0.0,0.0,0.0,0.0,0.0,0.0,0.0,0.0,0.0,0.0,0.0,0.0,0.0,0.0,0.0,0.0,0.0,0.0,0.0,0.0,0.0,0.0,0.0,0.0,0.0,0.0,0.0,0.0,0.0,0.0,0.0,0.0,0.0,0.0,0.0,0.0,0.0,0.0,0.0,0.0,0.0,0.0,0.0,0.0,0.0,0.0,0.0,0.0,0.0,0.0,0.0,0.0,0.0,0.0,0.0,0.0,0.0,0.0,0.0,0.0,0.0,0.0,0.0,0.0,0.0,0.0,0.0,0.0,0.0,0.0,0.0,0.0,0.0,0.0,0.0,0.0,0.0,-2.4718,-2.3559,-2.3505,-2.3505,-2.3523,0.0,0.0,0.0,0.0,0.0,0.0,0.0,0.0,0.0,0.0,0.0,0.0,0.0,0.0,0.0,0.0,0.0,0.0,0.0,0.0,0.0,0.0,0.0,0.0,0.0,0.0,0.0,0.0,0.0,0.0,0.0,0.0,0.0,0.0,0.0,0.0,0.0,0.0,0.0,0.0,0.0,0.0,0.0,0.0,0.0,0.0,0.0,0.0,0.0,0.0,0.0,0.0,0.0,0.0,0.0,0.0,0.0,0.0,0.0,0.0,0.0,0.0,0.0,0.0,0.0,0.0,0.0,0.0,0.0,0.0,0.0,0.0,0.0,0.0,0.0,0.0,0.0,0.0,0.0,0.0,0.0,0.0,0.0,0.0,0.0,0.0,0.0,0.0,0.0,0.0,0.0,0.0,0.0,0.0,0.0,0.0,0.0,0.0,0.0,0.0,0.0,0.0,0.0,0.0,0.0,0.0,0.0,0.0,0.0,0.0,0.0,0.0,-2.3594,-2.3505,-2.3541,0.0,0.0,0.0,0.0,0.0,0.0,0.0,0.0,0.0,0.0,0.0,0.0,0.0,0.0,0.0,0.0,0.0,0.0,0.0,0.0,0.0,0.0,0.0,0.0,0.0,0.0,0.0,0.0,0.0,0.0,0.0,0.0,0.0,0.0,0.0,0.0,0.0,0.0,0.0,0.0,0.0,0.0,0.0,0.0,0.0,0.0,0.0,0.0,0.0,0.0,0.0,0.0,0.0,0.0,0.0,0.0,0.0,0.0,0.0,0.0,0.0,0.0,0.0,0.0,0.0,0.0,0.0,0.0,0.0,0.0,0.0,0.0,0.0,0.0,0.0,0.0,0.0,0.0,0.0,0.0,0.0,0.0,0.0,0.0,0.0,0.0,0.0,0.0,0.0,0.0,0.0,0.0,0.0,0.0,0.0,0.0,0.0,0.0,0.0,0.0,0.0,0.0,0.0,0.0,0.0,0.0,0.0,0.0,0.0,0.0,-2.5408,-2.4605,-2.388,0.0,-2.3594,0.0,0.0,0.0,0.0,0.0,0.0,0.0,0.0,0.0,0.0,0.0,0.0,0.0,0.0,0.0,0.0,0.0,0.0,0.0,0.0,0.0,0.0,0.0,0.0,0.0,0.0,0.0,0.0,0.0,0.0,0.0,0.0,0.0,0.0,0.0,0.0,0.0,0.0,0.0,0.0,0.0,0.0,0.0,0.0,0.0,0.0,0.0,0.0,0.0,0.0,0.0,0.0,0.0,0.0,0.0,0.0,0.0,0.0,0.0,0.0,0.0,0.0,0.0,0.0,0.0,0.0,0.0,0.0,0.0,0.0,0.0,0.0,0.0,0.0,0.0,0.0,0.0,0.0,0.0,0.0,0.0,0.0,0.0,0.0,0.0,0.0,0.0,0.0,0.0,0.0,0.0,0.0,0.0,0.0,0.0,0.0,0.0,0.0,0.0,0.0,0.0,0.0,0.0,0.0,0.0,0.0,0.0,0.0,0.0,0.0,-2.5798,-2.4603,-2.3809,-2.3383,0.0,0.0,0.0,0.0,0.0,0.0,0.0,0.0,0.0,0.0,0.0,0.0,0.0,0.0,0.0,0.0,0.0,0.0,0.0,0.0,0.0,0.0,0.0,0.0,0.0,0.0,0.0,0.0,0.0,0.0,0.0,0.0,0.0,0.0,0.0,0.0,0.0,0.0,0.0,0.0,0.0,0.0,0.0,0.0,0.0,0.0,0.0,0.0,0.0,0.0,0.0,0.0,0.0,0.0,0.0,0.0,0.0,0.0,0.0,0.0,0.0,0.0,0.0,0.0,0.0,0.0,0.0,0.0,0.0,0.0,0.0,0.0,0.0,0.0,0.0,0.0,0.0,0.0,0.0,0.0,0.0,0.0,0.0,0.0,0.0,0.0,0.0,0.0,0.0,0.0,0.0,0.0,0.0,0.0,0.0,0.0,0.0,0.0,0.0,0.0,0.0,0.0,0.0,0.0,0.0,0.0,0.0,0.0,0.0,0.0,-2.6924,-2.6162,-2.4853,-2.4038,-2.3619,-2.3637,0.0,0.0,0.0,0.0,0.0,0.0,0.0,0.0,0.0,0.0,0.0,0.0,0.0,0.0,0.0,0.0,0.0,0.0,0.0,0.0,0.0,0.0,0.0,0.0,0.0,0.0,0.0,0.0,0.0,0.0,0.0,0.0,0.0,0.0,0.0,0.0,0.0,0.0,0.0,0.0,0.0,0.0,0.0,0.0,0.0,0.0,0.0,0.0,0.0,0.0,0.0,0.0,0.0,0.0,0.0,0.0,0.0,0.0,0.0,0.0,0.0,0.0,0.0,0.0,0.0,0.0,0.0,0.0,0.0,0.0,0.0,0.0,0.0,0.0,0.0,0.0,0.0,0.0,0.0,0.0,0.0,0.0,0.0,0.0,0.0,0.0,0.0,0.0,0.0,0.0,0.0,0.0,0.0,0.0,0.0,0.0,0.0,0.0,0.0,0.0,0.0,0.0,0.0,0.0,0.0,0.0,0.0,0.0,-2.7911,-2.7189,-2.641,-2.5583,-2.4835,-2.4458,0.0,0.0,0.0,0.0,0.0,0.0,0.0,0.0,0.0,0.0,0.0,0.0,0.0,0.0,0.0,0.0,0.0,0.0,0.0,0.0,0.0,0.0,0.0,0.0,0.0,0.0,0.0,0.0,0.0,0.0,0.0,0.0,0.0,0.0,0.0,0.0,0.0,0.0,0.0,0.0,0.0,0.0,0.0,0.0,0.0,0.0,0.0,0.0,0.0,0.0,0.0,0.0,0.0,0.0,0.0,0.0,0.0,0.0,0.0,0.0,0.0,0.0,0.0,0.0,0.0,0.0,0.0,0.0,0.0,0.0,0.0,0.0,0.0,0.0,0.0,0.0,0.0,0.0,0.0,0.0,0.0,0.0,0.0,0.0,0.0,0.0,0.0,0.0,0.0,0.0,0.0,0.0,0.0,0.0,0.0,0.0,0.0,0.0,0.0,0.0,0.0,0.0,0.0,0.0,0.0,0.0,0.0,0.0,0.0,-2.7771,-2.707,-2.6525,-2.6243,-2.5486,-2.5077,0.0,0.0,0.0,0.0,0.0,0.0,0.0,0.0,0.0,0.0,0.0,0.0,0.0,0.0,0.0,0.0,0.0,0.0,0.0,0.0,0.0,0.0,0.0,0.0,0.0,0.0,0.0,0.0,0.0,0.0,0.0,0.0,0.0,0.0,0.0,0.0,0.0,0.0,0.0,0.0,0.0,0.0,0.0,0.0,0.0,0.0,0.0,0.0,0.0,0.0,0.0,0.0,0.0,0.0,0.0,0.0,0.0,0.0,0.0,0.0,0.0,0.0,0.0,0.0,0.0,0.0,0.0,0.0,0.0,0.0,0.0,0.0,0.0,0.0,0.0,0.0,0.0,0.0,0.0,0.0,0.0,0.0,0.0,0.0,0.0,0.0,0.0,0.0,0.0,0.0,0.0,0.0,0.0,0.0,0.0,0.0,0.0,0.0,0.0,0.0,0.0,0.0,0.0,0.0,0.0,0.0,0.0,0.0,0.0,-2.7683,0.0,-2.6949,-2.6932,-2.6209,-2.5805,0.0,0.0,0.0,0.0,0.0,0.0,0.0,0.0,0.0,0.0,0.0,0.0,0.0,0.0,0.0,0.0,0.0,0.0,0.0,0.0,0.0,0.0,0.0,0.0,0.0,0.0,0.0,0.0,0.0,0.0,0.0,0.0,0.0,0.0,0.0,0.0,0.0,0.0,0.0,0.0,0.0,0.0,0.0,0.0,0.0,0.0,0.0,0.0,0.0,0.0,0.0,0.0,0.0,0.0,0.0,0.0,0.0,0.0,0.0,0.0,0.0,0.0,0.0,0.0,0.0,0.0,0.0,0.0,0.0,0.0,0.0,0.0,0.0,0.0,0.0,0.0,0.0,0.0,0.0,0.0,0.0,0.0,0.0,0.0,0.0,0.0,0.0,0.0,0.0,0.0,0.0,0.0,0.0,0.0,0.0,0.0,0.0,0.0,0.0,0.0,0.0,0.0,0.0,0.0,0.0,0.0,0.0,0.0,-2.7736,-2.7719,-2.7719,-2.7719,-2.7701,-2.7034,-2.6634,0.0,0.0,0.0,0.0,0.0,0.0,0.0,0.0,0.0,0.0,0.0,0.0,0.0,0.0,0.0,0.0,0.0,0.0,0.0,0.0,0.0,0.0,0.0,0.0,0.0,0.0,0.0,0.0,0.0,0.0,0.0,0.0,0.0,0.0,0.0,0.0,0.0,0.0,0.0,0.0,0.0,0.0,0.0,0.0,0.0,0.0,0.0,0.0,0.0,0.0,0.0,0.0,0.0,0.0,0.0,0.0,0.0,0.0,0.0,0.0,0.0,0.0,0.0,0.0,0.0,0.0,0.0,0.0,0.0,0.0,0.0,0.0,0.0,0.0,0.0,0.0,0.0,0.0,0.0,0.0,0.0,0.0,0.0,0.0,0.0,0.0,0.0,0.0,0.0,0.0,0.0,0.0,0.0,0.0,0.0,0.0,0.0,0.0,0.0,0.0,0.0,0.0,0.0,0.0,0.0,0.0,0.0,0.0,0.0,-2.8526,-2.8526,-2.8526,-2.8509,-2.8298,-2.7929,0.0,0.0,0.0,0.0,0.0,0.0,0.0,0.0,0.0,0.0,0.0,0.0,0.0,0.0,0.0,0.0,0.0,0.0,0.0,0.0,0.0,0.0,0.0,0.0,0.0,0.0,0.0,0.0,0.0,0.0,0.0,0.0,0.0,0.0,0.0,0.0,0.0,0.0,0.0,0.0,0.0,0.0,0.0,0.0,0.0,0.0,0.0,0.0,0.0,0.0,0.0,0.0,0.0,0.0,0.0,0.0,0.0,0.0,0.0,0.0,0.0,0.0,0.0,0.0,0.0,0.0,0.0,0.0,0.0,0.0,0.0,0.0,0.0,0.0,0.0,0.0,0.0,0.0,0.0,0.0,0.0,0.0,0.0,0.0,0.0,0.0,0.0,0.0,0.0,0.0,0.0,0.0,0.0,0.0,0.0,0.0,0.0,0.0,0.0,0.0,0.0,0.0,0.0,0.0,0.0,0.0,0.0,0.0,0.0,-3.0141,-2.965,-2.9351,-2.9351,-2.9053,-2.8667,-2.8175,0.0,0.0,0.0,0.0,0.0,0.0,0.0,0.0,0.0,0.0,0.0,0.0,0.0,0.0,0.0,0.0,0.0,0.0,0.0,0.0,0.0,0.0,0.0,0.0,0.0,0.0,0.0,0.0,0.0,0.0,0.0,0.0,0.0,0.0,0.0,0.0,0.0,0.0,0.0,0.0,0.0,0.0,0.0,0.0,0.0,0.0,0.0,0.0,0.0,0.0,0.0,0.0,0.0,0.0,0.0,0.0,0.0,0.0,0.0,0.0,0.0,0.0,0.0,0.0,0.0,0.0,0.0,0.0,0.0,0.0,0.0,0.0,0.0,0.0,0.0,0.0,0.0,0.0,0.0,0.0,0.0,0.0,0.0,0.0,0.0,0.0,0.0,0.0,0.0,0.0,0.0,0.0,0.0,0.0,0.0,0.0,0.0,0.0,0.0,0.0,0.0,0.0,0.0,0.0,0.0,0.0,0.0,0.0,-3.2371,-3.1019,-3.0283,-3.0229,-2.9474,-2.8983,0.0,0.0,0.0,0.0,0.0,0.0,0.0,0.0,0.0,0.0,0.0,0.0,0.0,0.0,0.0,0.0,0.0,0.0,0.0,0.0,0.0,0.0,0.0,0.0,0.0,0.0,0.0,0.0,0.0,0.0,0.0,0.0,0.0,0.0,0.0,0.0,0.0,0.0,0.0,0.0,0.0,0.0,0.0,0.0,0.0,0.0,0.0,0.0,0.0,0.0,0.0,0.0,0.0,0.0,0.0,0.0,0.0,0.0,0.0,0.0,0.0,0.0,0.0,0.0,0.0,0.0,0.0,0.0,0.0,0.0,0.0,0.0,0.0,0.0,0.0,0.0,0.0,0.0,0.0,0.0,0.0,0.0,0.0,0.0,0.0,0.0,0.0,0.0,0.0,0.0,0.0,0.0,0.0,0.0,0.0,0.0,0.0,0.0,0.0,0.0,0.0,0.0,0.0,0.0,0.0,0.0,0.0,0.0,0.0,-3.2318,-3.2546,-3.2353,-3.1809,-3.1019,-3.0053,0.0,0.0,0.0,0.0,0.0,0.0,0.0,0.0,0.0,0.0,0.0,0.0,0.0,0.0,0.0,0.0,0.0,0.0,0.0,0.0,0.0,0.0,0.0,0.0,0.0,0.0,0.0,0.0,0.0,0.0,0.0,0.0,0.0,0.0,0.0,0.0,0.0,0.0,0.0,0.0,0.0,0.0,0.0,0.0,0.0,0.0,0.0,0.0,0.0,0.0,0.0,0.0,0.0,0.0,0.0,0.0,0.0,0.0,0.0,0.0,0.0,0.0,0.0,0.0,0.0,0.0,0.0,0.0,0.0,0.0,0.0,0.0,0.0,0.0,0.0,0.0,0.0,0.0,0.0,0.0,0.0,0.0,0.0,0.0,0.0,0.0,0.0,0.0,0.0,0.0,0.0,0.0,0.0,0.0,0.0,0.0,0.0,0.0,0.0,0.0,0.0,0.0,0.0,0.0,0.0,0.0,0.0,0.0,-3.1809,-3.3318,-3.3793,-3.381,-3.3371,-3.2283,-3.0984,0.0,0.0,0.0,0.0,0.0,0.0,0.0,0.0,0.0,0.0,0.0,0.0,0.0,0.0,0.0,0.0,0.0,0.0,0.0,0.0,0.0,0.0,0.0,0.0,0.0,0.0,0.0,0.0,0.0,0.0,0.0,0.0,0.0,0.0,0.0,0.0,0.0,0.0,0.0,0.0,0.0,0.0,0.0,0.0,0.0,0.0,0.0,0.0,0.0,0.0,0.0,0.0,0.0,0.0,0.0,0.0,0.0,0.0,0.0,0.0,0.0,0.0,0.0,0.0,0.0,0.0,0.0,0.0,0.0,0.0,0.0,0.0,0.0,0.0,0.0,0.0,0.0,0.0,0.0,0.0,0.0,0.0,0.0,0.0,0.0,0.0,0.0,0.0,0.0,0.0,0.0,0.0,0.0,0.0,0.0,0.0,0.0,0.0,0.0,0.0,0.0,0.0,0.0,0.0,0.0,0.0,0.0,0.0,-3.3143,-3.4635,-3.4776,-3.4793,-3.4776,-3.3318,-3.1756,0.0,0.0,0.0,0.0,0.0,0.0,0.0,0.0,0.0,0.0,0.0,0.0,0.0,0.0,0.0,0.0,0.0,0.0,0.0,0.0,0.0,0.0,0.0,0.0,0.0,0.0,0.0,0.0,0.0,0.0,0.0,0.0,0.0,0.0,0.0,0.0,0.0,0.0,0.0,0.0,0.0,0.0,0.0,0.0,0.0,0.0,0.0,0.0,0.0,0.0,0.0,0.0,0.0,0.0,0.0,0.0,0.0,0.0,0.0,0.0,0.0,0.0,0.0,0.0,0.0,0.0,0.0,0.0,0.0,0.0,0.0,0.0,0.0,0.0,0.0,0.0,0.0,0.0,0.0,0.0,0.0,0.0,0.0,0.0,0.0,0.0,0.0,0.0,0.0,0.0,0.0,0.0,0.0,0.0,0.0,0.0,0.0,0.0,0.0,0.0,0.0,0.0,0.0,0.0,0.0,0.0,0.0,0.0,-3.3143,-3.4671,-3.5267,-3.5583,-3.5547,-3.4055,-3.2283,0.0,0.0,0.0,0.0,0.0,0.0,0.0,0.0,0.0,0.0,0.0,0.0,0.0,0.0,0.0,0.0,0.0,0.0,0.0,0.0,0.0,0.0,0.0,0.0,0.0,0.0,0.0,0.0,0.0,0.0,0.0,0.0,0.0,0.0,0.0,0.0,0.0,0.0,0.0,0.0,0.0,0.0,0.0,0.0,0.0,0.0,0.0,0.0,-2.2763,0.0,0.0,0.0,0.0,0.0,0.0,0.0,0.0,0.0,0.0,0.0,0.0,0.0,0.0,0.0,0.0,0.0,0.0,0.0,0.0,0.0,0.0,0.0,0.0,0.0,0.0,0.0,0.0,0.0,0.0,0.0,0.0,0.0,0.0,0.0,0.0,0.0,0.0,0.0,0.0,0.0,0.0,0.0,0.0,0.0,0.0,0.0,0.0,0.0,0.0,0.0,0.0,0.0,0.0,0.0,0.0,0.0,0.0,0.0,-3.4056,-3.5179,-3.5969,-3.6197,-3.5775,-3.4688,-3.3143,0.0,0.0,0.0,0.0,0.0,0.0,0.0,0.0,0.0,0.0,0.0,0.0,0.0,0.0,0.0,0.0,0.0,0.0,0.0,0.0,0.0,0.0,0.0,0.0,0.0,0.0,0.0,0.0,0.0,0.0,0.0,0.0,0.0,0.0,0.0,0.0,0.0,0.0,0.0,0.0,0.0,0.0,0.0,0.0,0.0,0.0,0.0,0.0,0.0,0.0,0.0,0.0,0.0,0.0,0.0,0.0,0.0,0.0,0.0,0.0,0.0,0.0,0.0,0.0,0.0,0.0,0.0,0.0,0.0,0.0,0.0,0.0,0.0,0.0,0.0,0.0,0.0,0.0,0.0,0.0,0.0,0.0,0.0,0.0,0.0,0.0,0.0,0.0,0.0,0.0,0.0,0.0,0.0,0.0,0.0,0.0,0.0,0.0,0.0,0.0,0.0,0.0,0.0,0.0,0.0,0.0,0.0,-3.3564,-3.5056,-3.5792,-3.6584,-3.6654,-3.6004,-3.5144,-3.4003,-3.2616,0.0,0.0,0.0,0.0,0.0,0.0,0.0,0.0,0.0,0.0,0.0,0.0,0.0,0.0,0.0,0.0,0.0,0.0,0.0,0.0,0.0,0.0,0.0,0.0,0.0,0.0,0.0,0.0,0.0,0.0,0.0,0.0,0.0,0.0,0.0,0.0,0.0,0.0,-2.0838,-2.1304,0.0,0.0,0.0,0.0,0.0,0.0,0.0,0.0,-2.4186,0.0,0.0,0.0,0.0,0.0,0.0,0.0,0.0,0.0,0.0,0.0,0.0,0.0,0.0,0.0,0.0,0.0,0.0,0.0,0.0,0.0,0.0,0.0,0.0,0.0,0.0,0.0,0.0,0.0,0.0,0.0,0.0,0.0,0.0,0.0,0.0,0.0,0.0,0.0,0.0,0.0,0.0,0.0,0.0,0.0,0.0,0.0,0.0,0.0,0.0,0.0,0.0,0.0,0.0,0.0,0.0,-3.2195,-3.3863,-3.5074,-3.5792,-3.6584,-3.6937,-3.6779,-3.5443,-3.4266,-3.3301,0.0,0.0,0.0,0.0,0.0,0.0,0.0,0.0,0.0,0.0,0.0,0.0,0.0,0.0,0.0,0.0,0.0,0.0,0.0,0.0,0.0,0.0,0.0,0.0,0.0,0.0,0.0,0.0,0.0,0.0,0.0,0.0,0.0,0.0,0.0,0.0,0.0,0.0,0.0,-2.2612,-2.3124,0.0,0.0,0.0,0.0,0.0,0.0,0.0,0.0,-2.3947,0.0,0.0,0.0,0.0,0.0,0.0,0.0,0.0,0.0,0.0,0.0,0.0,0.0,0.0,0.0,0.0,0.0,0.0,0.0,0.0,0.0,0.0,0.0,0.0,0.0,0.0,0.0,0.0,0.0,0.0,0.0,0.0,0.0,0.0,0.0,0.0,0.0,0.0,0.0,0.0,0.0,0.0,0.0,0.0,0.0,0.0,0.0,0.0,0.0,0.0,0.0,0.0,0.0,0.0,0.0,-3.2932,-3.4127,-3.5268,-3.6373,-3.6814,-3.6989,-3.6972,-3.5514,-3.4144,0.0,0.0,0.0,0.0,0.0,0.0,0.0,0.0,0.0,0.0,0.0,0.0,0.0,0.0,0.0,0.0,0.0,0.0,0.0,0.0,0.0,0.0,0.0,0.0,0.0,0.0,0.0,0.0,0.0,0.0,0.0,0.0,0.0,0.0,0.0,0.0,0.0,0.0,0.0,0.0,-2.2765,-2.3199,-2.3977,0.0,0.0,0.0,0.0,0.0,0.0,-2.5546,-2.4664,0.0,0.0,0.0,0.0,0.0,0.0,0.0,0.0,0.0,0.0,0.0,0.0,0.0,0.0,0.0,0.0,0.0,0.0,0.0,0.0,0.0,0.0,0.0,0.0,0.0,0.0,0.0,0.0,0.0,0.0,0.0,0.0,0.0,0.0,0.0,0.0,0.0,0.0,0.0,0.0,0.0,0.0,0.0,0.0,0.0,0.0,0.0,0.0,0.0,0.0,0.0,0.0,0.0,0.0,0.0,-3.3688,-3.4531,-3.5602,-3.6919,-3.6989,-3.6989,-3.6972,-3.5514,-3.3968,0.0,0.0,0.0,0.0,0.0,0.0,0.0,0.0,0.0,0.0,0.0,0.0,0.0,0.0,0.0,0.0,0.0,0.0,0.0,0.0,0.0,0.0,0.0,0.0,0.0,0.0,0.0,0.0,0.0,0.0,0.0,0.0,0.0,0.0,0.0,0.0,0.0,0.0,0.0,0.0,0.0,-2.3286,-2.4278,-2.4748,0.0,0.0,0.0,0.0,-2.6782,-2.6123,0.0,0.0,0.0,0.0,0.0,0.0,0.0,0.0,0.0,0.0,0.0,0.0,0.0,0.0,0.0,0.0,0.0,0.0,0.0,0.0,0.0,0.0,0.0,0.0,0.0,0.0,0.0,0.0,0.0,0.0,0.0,0.0,0.0,0.0,0.0,0.0,0.0,0.0,0.0,0.0,0.0,0.0,0.0,0.0,0.0,0.0,0.0,0.0,0.0,0.0,0.0,0.0,0.0,0.0,0.0,0.0,-3.4569,-3.5322,-3.6092,-3.6954,-3.6989,-3.6989,-3.6972,-3.5514,-3.3986,0.0,0.0,0.0,0.0,0.0,0.0,0.0,0.0,0.0,0.0,0.0,0.0,0.0,0.0,0.0,0.0,0.0,0.0,0.0,0.0,0.0,0.0,0.0,0.0,0.0,0.0,0.0,0.0,0.0,0.0,0.0,0.0,0.0,0.0,0.0,0.0,0.0,0.0,0.0,0.0,0.0,-2.413,-2.5648,-2.5759,-2.5985,0.0,0.0,0.0,-2.7405,-2.6422,0.0,0.0,0.0,0.0,0.0,0.0,0.0,0.0,0.0,0.0,0.0,0.0,0.0,0.0,0.0,0.0,0.0,0.0,0.0,0.0,0.0,0.0,0.0,0.0,0.0,0.0,0.0,0.0,0.0,0.0,0.0,0.0,0.0,0.0,0.0,0.0,0.0,0.0,0.0,0.0,0.0,0.0,0.0,0.0,0.0,0.0,0.0,0.0,0.0,0.0,0.0,0.0,0.0,0.0,0.0,-3.2606,-3.4728,-3.5536,-3.6273,-3.6954,-3.6989,-3.6989,-3.6989,-3.5497,-3.3968,0.0,0.0,0.0,0.0,0.0,0.0,0.0,0.0,0.0,0.0,0.0,0.0,0.0,0.0,0.0,0.0,0.0,0.0,0.0,0.0,0.0,0.0,0.0,0.0,0.0,0.0,0.0,0.0,0.0,0.0,0.0,0.0,0.0,0.0,0.0,0.0,0.0,0.0,0.0,0.0,0.0,0.0,-2.6007,-2.6376,0.0,0.0,0.0,-2.727,-2.7555,0.0,0.0,0.0,0.0,0.0,0.0,0.0,0.0,0.0,0.0,0.0,0.0,0.0,0.0,0.0,0.0,0.0,0.0,0.0,0.0,0.0,0.0,0.0,0.0,0.0,0.0,0.0,0.0,0.0,0.0,0.0,0.0,0.0,0.0,0.0,0.0,0.0,0.0,0.0,0.0,0.0,0.0,0.0,0.0,0.0,0.0,0.0,0.0,0.0,0.0,0.0,0.0,0.0,0.0,0.0,0.0,0.0,-3.48,-3.5786,-3.6522,-3.6972,-3.6989,-3.6989,-3.6972,-3.5514,0.0,0.0,0.0,0.0,0.0,0.0,0.0,0.0,0.0,0.0,0.0,0.0,0.0,0.0,0.0,0.0,0.0,0.0,0.0,0.0,0.0,0.0,0.0,0.0,0.0,0.0,0.0,-2.4918,0.0,0.0,0.0,0.0,0.0,0.0,0.0,0.0,0.0,0.0,0.0,0.0,0.0,0.0,-2.4739,-2.6406,-2.6997,-2.7386,0.0,0.0,-2.7869,-2.7854,-2.6587,-2.5367,0.0,0.0,0.0,0.0,0.0,0.0,0.0,0.0,0.0,0.0,0.0,0.0,0.0,0.0,0.0,0.0,0.0,0.0,0.0,0.0,0.0,0.0,0.0,0.0,0.0,0.0,0.0,0.0,0.0,0.0,0.0,0.0,0.0,0.0,0.0,0.0,0.0,0.0,0.0,0.0,0.0,0.0,0.0,0.0,0.0,0.0,0.0,0.0,0.0,0.0,0.0,0.0,0.0,0.0,0.0,-3.4871,-3.63,-3.7017,-3.6989,-3.6989,-3.6989,-3.6972,-3.5495,-3.432,0.0,0.0,0.0,0.0,0.0,0.0,0.0,0.0,0.0,0.0,0.0,0.0,0.0,0.0,0.0,0.0,0.0,0.0,0.0,0.0,0.0,0.0,0.0,0.0,0.0,0.0,0.0,0.0,0.0,0.0,0.0,0.0,0.0,0.0,0.0,0.0,0.0,0.0,0.0,0.0,0.0,-2.496,-2.7279,-2.7729,-2.8165,0.0,0.0,-2.8532,-2.8532,-2.6871,-2.5367,-2.4709,0.0,0.0,0.0,0.0,0.0,0.0,0.0,0.0,0.0,0.0,0.0,0.0,0.0,0.0,0.0,0.0,0.0,0.0,0.0,0.0,0.0,0.0,0.0,0.0,0.0,0.0,0.0,0.0,0.0,0.0,0.0,0.0,0.0,0.0,0.0,0.0,0.0,0.0,0.0,0.0,0.0,0.0,0.0,0.0,0.0,0.0,0.0,0.0,0.0,0.0,0.0,0.0,0.0,-3.3501,-3.4889,-3.6445,-3.7145,-3.6989,-3.6989,-3.6989,-3.6989,-3.5952,-3.4793,0.0,0.0,0.0,0.0,0.0,0.0,0.0,0.0,0.0,0.0,0.0,0.0,0.0,0.0,0.0,0.0,0.0,0.0,0.0,0.0,0.0,0.0,0.0,0.0,0.0,0.0,0.0,0.0,-2.7195,-2.7156,-2.5983,0.0,0.0,0.0,0.0,0.0,0.0,0.0,0.0,0.0,0.0,-2.626,-2.7642,-2.8045,0.0,0.0,-2.8412,-2.7989,-2.7989,-2.6632,-2.5525,-2.5247,-2.353,0.0,0.0,0.0,0.0,0.0,0.0,0.0,0.0,0.0,0.0,0.0,0.0,0.0,0.0,0.0,0.0,0.0,0.0,0.0,0.0,0.0,0.0,0.0,0.0,0.0,0.0,0.0,0.0,0.0,0.0,0.0,0.0,0.0,0.0,0.0,0.0,0.0,0.0,0.0,0.0,0.0,0.0,0.0,0.0,0.0,0.0,0.0,0.0,0.0,0.0,0.0,0.0,-3.3618,-3.496,-3.6501,-3.722,-3.7046,-3.7027,-3.6989,-3.6972,-3.6233,-3.5302,0.0,0.0,0.0,0.0,0.0,0.0,0.0,0.0,0.0,0.0,0.0,0.0,0.0,0.0,0.0,0.0,0.0,0.0,0.0,0.0,0.0,0.0,0.0,0.0,0.0,0.0,0.0,0.0,-2.7051,-2.6619,-2.5168,0.0,0.0,0.0,0.0,0.0,0.0,0.0,0.0,0.0,0.0,-2.6881,-2.79,-2.8261,-2.852,-2.8861,-2.8349,-2.7839,-2.763,-2.6467,-2.5555,-2.5345,0.0,0.0,0.0,0.0,0.0,0.0,0.0,0.0,0.0,0.0,0.0,0.0,0.0,0.0,0.0,0.0,0.0,0.0,0.0,0.0,0.0,0.0,0.0,0.0,0.0,0.0,0.0,0.0,0.0,0.0,0.0,0.0,0.0,0.0,0.0,0.0,0.0,0.0,0.0,0.0,0.0,0.0,0.0,0.0,0.0,0.0,0.0,0.0,0.0,0.0,0.0,0.0,0.0,0.0,-3.5186,-3.6592,-3.7222,-3.7108,-3.7029,-3.6989,-3.6989,-3.6233,-3.5775,-3.5704,0.0,0.0,0.0,0.0,0.0,0.0,0.0,0.0,0.0,0.0,0.0,0.0,0.0,0.0,0.0,0.0,0.0,0.0,0.0,0.0,0.0,0.0,0.0,0.0,0.0,0.0,-2.7268,-2.6667,-2.5673,0.0,0.0,0.0,0.0,0.0,0.0,0.0,0.0,0.0,0.0,-2.5742,-2.6466,-2.8136,-2.8393,-2.8669,-2.943,-2.8966,-2.8323,-2.7675,-2.6452,-2.5405,0.0,0.0,0.0,0.0,0.0,0.0,0.0,0.0,0.0,0.0,0.0,0.0,0.0,0.0,0.0,0.0,0.0,0.0,0.0,0.0,0.0,0.0,0.0,0.0,0.0,0.0,0.0,-3.614,-3.5957,0.0,0.0,0.0,0.0,0.0,0.0,0.0,0.0,0.0,0.0,0.0,-3.8479,-3.7584,0.0,0.0,0.0,0.0,0.0,0.0,0.0,0.0,0.0,0.0,0.0,0.0,-3.3824,-3.5254,-3.6666,-3.7298,-3.7108,-3.7029,-3.6989,-3.6989,-3.6724,-3.6338,-3.581,0.0,0.0,0.0,0.0,0.0,0.0,0.0,0.0,0.0,0.0,0.0,0.0,0.0,0.0,0.0,0.0,0.0,0.0,0.0,0.0,0.0,0.0,0.0,0.0,0.0,-2.6471,0.0,0.0,0.0,0.0,0.0,0.0,0.0,0.0,0.0,0.0,0.0,-2.5169,-2.5545,-2.6648,-2.7653,-2.8322,-2.8487,-2.8655,0.0,0.0,0.0,0.0,0.0,0.0,0.0,0.0,0.0,0.0,0.0,0.0,0.0,0.0,-2.1431,-2.0814,-2.0759,-2.0912,-2.1158,0.0,0.0,0.0,0.0,0.0,0.0,0.0,0.0,0.0,0.0,0.0,0.0,0.0,0.0,0.0,0.0,-3.692,0.0,0.0,0.0,0.0,0.0,0.0,0.0,0.0,-4.0024,-4.0624,-4.1168,-4.0299,-3.9528,0.0,-3.7564,-3.6006,0.0,0.0,0.0,0.0,0.0,0.0,0.0,0.0,-3.43,-3.547,-3.6791,-3.7392,-3.7204,-3.7068,-3.6989,-3.6989,-3.7009,-3.6819,-3.6328,-3.506,-3.3932,0.0,0.0,0.0,0.0,0.0,0.0,0.0,0.0,0.0,0.0,0.0,0.0,0.0,0.0,0.0,0.0,0.0,0.0,0.0,0.0,0.0,0.0,0.0,-2.6444,0.0,0.0,0.0,0.0,0.0,0.0,0.0,0.0,0.0,-2.3936,-2.4941,-2.5778,-2.5957,-2.7047,-2.792,-2.8103,0.0,0.0,0.0,0.0,0.0,0.0,0.0,-2.5869,-2.5644,-2.5178,-2.4779,-2.4663,-2.4147,-2.3739,-2.3754,0.0,0.0,-2.2273,-2.2148,-2.2307,-2.2598,-2.275,-2.299,-2.3465,-2.343,-2.3393,0.0,0.0,0.0,0.0,0.0,0.0,0.0,0.0,-4.044,-4.0441,0.0,-3.9395,0.0,0.0,0.0,0.0,0.0,0.0,0.0,0.0,-4.2143,-4.2955,-4.2917,-4.2159,-4.1711,-4.1457,-3.9718,-3.8687,-3.8229,-3.4932,0.0,0.0,0.0,0.0,0.0,0.0,-3.5075,-3.5862,-3.7002,-3.754,-3.7411,-3.7145,-3.6989,-3.7007,-3.7069,-3.7147,-3.7242,-3.6477,-3.557,-3.456,-3.2816,0.0,0.0,0.0,0.0,0.0,0.0,0.0,0.0,0.0,0.0,0.0,0.0,0.0,0.0,0.0,0.0,0.0,0.0,0.0,0.0,-2.7467,0.0,0.0,0.0,0.0,0.0,0.0,0.0,0.0,0.0,0.0,-2.5019,-2.5795,-2.6406,-2.6642,0.0,0.0,0.0,0.0,-2.76,-2.7615,-2.7585,-2.7375,-2.6746,-2.6617,-2.6422,-2.5839,0.0,0.0,-2.5396,-2.5357,-2.5372,-2.5357,-2.5333,-2.5118,-2.4411,-2.4145,-2.4332,-2.5088,-2.5263,-2.5458,-2.5612,-2.5432,-2.5276,-4.512,0.0,0.0,0.0,0.0,-4.2307,-4.2942,-4.3136,-4.3089,-4.309,-4.2985,-4.1474,0.0,0.0,0.0,0.0,0.0,0.0,-4.1923,-4.3137,-4.3663,-4.4227,-4.4781,-4.3964,-4.349,-4.3302,-4.2035,-4.0994,-4.0138,-3.8415,-3.6609,-3.4704,0.0,0.0,0.0,0.0,-3.5524,-3.6752,-3.7375,-3.7595,-3.7411,-3.7143,-3.7009,-3.7087,-3.7184,-3.7259,-3.7297,-3.7064,-3.6437,-3.5397,-3.4175,0.0,0.0,0.0,0.0,0.0,0.0,0.0,0.0,0.0,0.0,0.0,0.0,0.0,0.0,0.0,0.0,0.0,0.0,0.0,-2.7414,-2.7182,-2.6382,0.0,0.0,0.0,0.0,0.0,0.0,0.0,0.0,0.0,-2.6475,-2.6522,-2.6551,0.0,0.0,-2.731,-2.7575,-2.7585,-2.7585,-2.7585,0.0,0.0,0.0,-2.7315,-2.742,-2.7694,-2.7637,-2.7372,-2.6886,-2.6712,-2.6661,-2.6646,-2.6646,-2.6745,-2.7043,-2.5967,-2.5222,-2.5381,-2.5839,-2.6404,-2.6892,-2.7123,-2.7328,-4.7872,-4.5796,-4.5068,-4.4392,-4.3937,-4.4886,-4.5503,-4.5791,-4.5773,-4.5735,-4.5658,-4.4278,-4.3473,-4.3089,-4.1866,0.0,0.0,0.0,-4.3242,-4.4323,-4.4657,-4.5079,-4.5537,-4.5047,-4.4746,-4.4566,-4.3524,-4.2599,-4.182,-4.0519,-3.9032,-3.7371,0.0,0.0,-3.5845,-3.5966,-3.6439,-3.7256,-3.7586,-3.7667,-3.7522,-3.726,-3.7145,-3.7223,-3.7336,-3.7428,-3.741,-3.7354,-3.7008,-3.6243,-3.5183,-3.4019,0.0,0.0,0.0,0.0,0.0,0.0,0.0,0.0,0.0,0.0,0.0,-2.5784,0.0,0.0,0.0,0.0,-2.7366,-2.7788,-2.7598,-2.7186,0.0,0.0,0.0,0.0,0.0,0.0,0.0,-2.5382,-2.5765,-2.6403,-2.7664,-2.7628,-2.7544,-2.7803,-2.7974,-2.8159,-2.8368,0.0,-2.8393,-2.8378,-2.8393,-2.8393,-2.8393,-2.8393,-2.8517,-2.8948,-2.8943,-2.8755,-2.8356,-2.8007,-2.7851,-2.8043,-2.7925,-2.7995,-2.8755,-2.7876,-2.7086,-2.7086,-2.7434,-2.7929,-2.8334,-2.8444,-2.8574,-5.0189,-4.9865,-4.8222,-4.7322,-4.703,-4.7074,-4.7528,-4.8202,-4.8202,-4.8221,-4.8115,-4.728,-4.6454,-4.5619,-4.4018,0.0,0.0,-4.4103,-4.4467,-4.4428,-4.5222,-4.5594,-4.5594,-4.5586,-4.5514,-4.536,-4.4382,-4.368,-4.3213,-4.1611,-4.0649,-4.0341,-3.8062,-3.6893,-3.6915,-3.7359,-3.757,-3.7503,-3.7706,-3.7756,-3.7667,-3.7429,-3.7336,-3.7374,-3.7522,-3.7595,-3.7595,-3.7466,-3.726,-3.6972,-3.5908,-3.5122,-3.4649,0.0,0.0,0.0,0.0,0.0,0.0,0.0,0.0,0.0,0.0,0.0,0.0,0.0,0.0,0.0,-2.8713,0.0,-2.7788,-2.7375,0.0,0.0,0.0,-2.3952,-2.4092,-2.4258,-2.4942,-2.6495,0.0,0.0,0.0,0.0,-2.909,-2.9287,-2.9337,-2.9456,-2.9579,-2.9562,-2.9621,-2.9532,-2.9577,-2.9592,-2.9619,-2.9723,-2.9781,-2.9723,-2.9681,-2.9651,-2.9532,-2.9086,-2.8966,-2.94,-2.9071,-2.8891,-2.9535,-2.9564,-2.9696,-2.9654,-2.9639,-2.9636,-2.9609,-2.9466,-2.925,-5.2539,-5.1814,-5.1338,-4.9908,-4.8045,-4.8621,-4.897,-4.9086,-4.9086,-4.9086,-4.9029,-4.8164,-4.7683,-4.7452,-4.7039,-4.653,-4.5954,-4.6194,-4.5914,-4.5327,-4.5509,-4.5594,-4.5586,-4.554,-4.5477,-4.5379,-4.4938,-4.422,-4.3307,-4.2697,-4.1731,-4.0434,-3.9793,-3.9161,-3.8525,-3.7913,-3.7846,-3.8325,-3.803,-3.7721,-3.741,-3.7373,-3.7392,-3.7393,-3.7522,-3.7595,-3.7595,-3.7411,-3.7184,-3.6853,-3.6336,-3.5637,-3.4738,-3.2908,0.0,0.0,0.0,0.0,0.0,0.0,0.0,0.0,0.0,-2.6602,-2.8258,0.0,-2.798,0.0,-2.8712,-2.8486,-2.7922,-2.766,0.0,0.0,-2.5778,-2.5741,-2.5848,-2.6145,-2.6577,-2.7205,-2.774,-2.8454,-2.9477,-2.9836,-3.0211,-3.0829,-2.9997,-2.9399,-2.9552,-2.9621,-2.9621,-2.9636,-2.9732,-2.9934,-3.0458,-3.1054,-3.119,-3.0609,-3.0518,-3.0298,-2.9696,-2.9475,-2.9442,-2.9577,-2.9502,-2.9609,-3.0163,-3.0283,-3.0492,-3.0868,-3.0657,-3.0283,-3.0298,-3.0432,-3.0499,-5.3614,-5.3115,-5.3044,-5.2116,-5.0639,-5.0276,-5.0073,-4.999,-4.9961,-4.9971,-4.9913,-4.9067,-4.8682,-4.8663,-4.8279,-4.7875,-4.7442,-4.7432,-4.699,-4.6201,-4.6182,-4.596,-4.5594,-4.5541,-4.5438,-4.5348,-4.5091,-4.4575,-4.3837,-4.3254,-4.228,-4.094,-4.0568,-3.996,-3.9064,-3.8083,-3.7739,-3.8007,-3.7958,-3.7757,-3.7447,-3.7503,-3.754,-3.7541,-3.731,-3.7149,-3.7023,-3.6539,-3.6262,-3.623,-3.5887,-3.5557,-3.5171,-3.3545,-3.2249,0.0,0.0,0.0,0.0,0.0,0.0,0.0,0.0,0.0,0.0,0.0,-2.8772,0.0,-2.8904,0.0,-2.8107,-2.762,-2.7117,-2.6546,-2.6237,-2.6277,-2.6747,-2.7066,-2.753,-2.834,-2.8863,-2.9478,-3.0309,-3.0614,-3.0963,-3.1552,-3.0939,-3.0432,-3.0447,-3.0503,-3.0573,-3.0573,-3.0681,-3.0912,-3.1374,-3.1794,-3.1944,-3.1539,-3.1324,-3.1091,-3.0661,-3.0248,-3.0088,-3.0357,-3.0208,-3.0193,-3.0806,-3.0928,-3.1077,-3.1316,-3.1197,-3.0957,-3.0943,-3.1011,-3.0984,-5.4245,-5.4064,-5.4,-5.3842,-5.3514,-5.1942,-5.1131,-5.0874,-5.0758,-5.0711,-5.0673,-4.9913,-4.9577,-4.9519,-4.8779,-4.8375,-4.8279,-4.8259,-4.7836,-4.7067,-4.7058,-4.6605,-4.5778,-4.5667,-4.5534,-4.5297,-4.5033,-4.4776,-4.4477,-4.3548,-4.2656,-4.1768,-4.0954,-4.0038,-3.8997,-3.8058,-3.7529,-3.739,-3.7745,-3.7828,-3.7649,-3.7685,-3.7685,-3.7667,-3.7021,-3.6522,-3.6256,-3.5403,-3.5042,-3.529,-3.5108,-3.516,-3.5574,-3.4122,-3.2978,0.0,-3.053,0.0,0.0,0.0,0.0,0.0,0.0,0.0,0.0,-2.954,-2.9406,-2.9754,-2.9184,-2.8675,-2.8287,-2.7522,-2.6972,-2.683,-2.6379,-2.6388,-2.7258,-2.7593,-2.8206,-2.947,-2.996,-3.0433,-3.0999,-3.1278,-3.1467,-3.1769,-3.1824,-3.1662,-3.1638,-3.1694,-3.1764,-3.1841,-3.1996,-3.2053,-3.2253,-3.2342,-3.2315,-3.2231,-3.202,-3.187,-3.1724,-3.1129,-3.0864,-3.1256,-3.0972,-3.0851,-3.1421,-3.1481,-3.1481,-3.1496,-3.1466,-3.1451,-3.1393,-3.1234,-3.0984,-5.5655,-5.4973,-5.4941,-5.4477,-5.3745,-5.3408,-5.2705,-5.1771,-5.1125,-5.0829,-5.0766,-5.0547,-5.0451,-5.0432,-5.0298,-4.9846,-4.9163,-4.9163,-4.8682,-4.7875,-4.7865,-4.7432,-4.6673,-4.6532,-4.606,-4.5316,-4.5014,-4.4802,-4.4578,-4.4257,-4.3627,-4.2642,-4.1841,-4.0587,0.0,0.0,0.0,0.0,-3.7946,-3.7951,-3.7846,-3.7757,-3.7685,-3.7685,-3.6845,0.0,-3.6112,-3.5093,-3.4476,-3.438,-3.4607,0.0,0.0,0.0,0.0,0.0,0.0,0.0,0.0,0.0,0.0,0.0,-2.9658,-2.9758,-3.0531,-3.0437,-3.0127,-2.9668,-2.9135,-2.861,-2.8164,-2.7828,-2.7617,-2.7571,-2.7479,-2.7662,-2.8282,-2.8602,-2.9069,-2.9685,-3.0296,-3.0821,-3.119,-3.1496,-3.1798,-3.2051,-3.2122,-3.2163,-3.2247,-3.2163,-3.2107,-3.215,-3.2425,-3.2738,-3.3054,-3.2973,-3.2812,-3.2574,-3.2382,-3.2163,-3.1868,-3.1694,-3.1488,-3.1539,-3.1406,-3.1316,-3.1481,-3.1496,-3.1496,-3.1496,-3.1496,-3.1467,-3.1351,-3.1205,-3.091,-5.7302,0.0,-5.6484,-5.5975,0.0,-5.4667,-5.4143,-5.352,-5.2627,-5.195,-5.146,-5.1003,-5.0812,-5.0812,-5.072,-5.0452,-5.0028,-5.0048,-4.9567,-4.8759,-4.874,-4.8298,-4.7481,-4.6945,-4.6424,-4.587,-4.5181,-4.4776,-4.4592,-4.4426,-4.3885,-4.2953,-4.2499,-4.1378,-3.956,-3.8462,-3.7767,-3.7406,-3.7803,-3.7984,-3.7951,-3.7845,-3.7775,-3.7667,0.0,0.0,0.0,0.0,0.0,0.0,0.0,0.0,0.0,0.0,0.0,-3.3995,-3.2866,-3.2017,-3.1646,-3.153,-3.1347,-3.1036,-3.0999,-3.0857,-3.0496,-3.0441,-3.0205,-2.9665,-2.8976,-2.843,-2.8145,-2.7934,-2.7822,-2.7809,-2.7941,-2.8235,-2.8624,-2.9008,-2.9418,-2.9976,-3.0568,-3.1043,-3.1365,-3.1754,-3.2094,-3.2342,-3.2465,-3.2574,-3.2753,-3.2645,-3.2547,-3.2715,-3.2958,-3.3208,-3.333,-3.3346,-3.3214,-3.2985,-3.2683,-3.241,-3.2135,-3.1912,-3.1756,-3.1655,-3.1568,-3.1496,-3.1496,-3.1496,-3.1496,-3.1496,-3.1496,-3.1424,-3.1249,-3.1073,-3.0791,-5.8688,-5.8036,-5.8014,-5.7629,-5.69,-5.6023,-5.5525,-5.5259,0.0,0.0,0.0,-5.1699,-5.1377,-5.1341,-5.1236,-5.1066,-5.0923,-5.0933,-5.0462,-4.9625,-4.9625,-4.9163,-4.8308,-4.753,-4.6932,-4.6483,-4.5535,-4.4903,-4.4651,-4.444,-4.3988,-4.3287,-4.3028,-4.1969,-4.0189,-3.8991,-3.796,-3.7116,-3.7711,-3.8018,-3.8001,-3.7933,-3.7846,-3.7703,-3.6684,-3.5965,-3.5603,-3.4653,-3.4272,-3.4584,-3.4627,-3.4876,-3.5329,-3.4757,-3.4342,-3.4133,-3.3086,-3.2288,-3.1941,-3.2063,-3.2023,-3.1705,-3.1857,-3.1515,-3.0321,-3.0263,-3.0083,-2.9602,-2.8785,-2.8268,-2.8145,-2.7921,-2.7855,-2.7908,-2.8203,-2.8546,-2.8899,-2.9279,-2.9747,-3.0326,-3.0792,-3.1234,-3.1595,-3.2007,-3.2398,-3.2672,-3.2857,-3.3097,-3.333,-3.3208,-3.3102,-3.3372,-3.3555,-3.3642,-3.3684,-3.3684,-3.3565,-3.3424,-3.3033,-3.2711,-3.2453,-3.2122,-3.1898,-3.1784,-3.1626,-3.1524,-3.1496,-3.1496,-3.1496,-3.1496,-3.1496,-3.1424,-3.1132,-3.0925,-3.0612,-5.9024,-5.8924,-5.8907,-5.8846,-5.8666,-5.7816,-5.7008,-5.6184,-5.4447,-5.3618,-5.3489,-5.3305,-5.3177,-5.3139,-5.3058,-5.2585,-5.1838,-5.1838,-5.1347,0.0,-5.0519,-5.0048,-4.924,-4.9029,-4.8105,-4.664,-4.6237,-4.5632,-4.4846,-4.4632,-4.4439,-4.4121,-4.3399,-4.1991,-4.0034,-3.8914,-3.8265,-3.7994,-3.8119,-3.8122,-3.8001,-3.7933,-3.7811,-3.7577,-3.6591,-3.5868,-3.5521,-3.4513,-3.3891,-3.3785,-3.4253,-3.4578,-3.4658,-3.4959,-3.5031,-3.4757,-3.4162,-3.3609,-3.3087,-3.2881,-3.2524,-3.2028,-3.1964,-3.1623,-3.0793,-3.0464,-3.0023,-2.9404,-2.8707,-2.8287,-2.8268,-2.8006,-2.802,-2.8411,-2.8624,-2.8931,-2.9401,-2.9853,-3.0282,-3.0687,-3.1146,-3.1595,-3.2007,-3.237,-3.2753,-3.3118,-3.3393,-3.372,-3.3949,-3.3822,-3.372,-3.3924,-3.4101,-3.4226,-3.425,-3.425,-3.4075,-3.3848,-3.3539,-3.3156,-3.2683,-3.2315,-3.2038,-3.1841,-3.1641,-3.1496,-3.1496,-3.1496,-3.1496,-3.1496,-3.1496,-3.1395,-3.1132,-3.0836,-3.0417,-6.0237,-5.9827,-5.9807,-5.9514,-5.9063,-5.868,-5.8002,-5.7164,-5.6316,-5.5356,-5.4451,-5.393,-5.3669,-5.3605,-5.3533,-5.3265,-5.2824,-5.2787,-5.227,-5.1443,-5.1424,-5.0943,-5.0106,-4.9557,-4.8845,-4.7966,-4.6879,-4.61,-4.5602,-4.4977,-4.4605,-4.4439,-4.3426,-4.2139,-4.0638,-3.9571,-3.8773,-3.8227,-3.8209,-3.814,-3.8001,-3.7933,-3.7757,-3.7447,-3.6848,-3.6326,-3.5883,-3.5311,-3.4929,-3.4689,-3.495,-3.507,-3.5043,-3.5199,-3.5128,-3.4715,-3.4325,-3.3822,-3.3229,-3.2839,-3.2484,-3.215,-3.2053,-3.1668,-3.0866,-3.0433,-2.9931,-2.9328,-2.8707,-2.8274,-2.832,-2.8235,-2.836,-2.8587,-2.8958,-2.9401,-2.9837,-3.0296,-3.0717,-3.1117,-3.1581,-3.2007,-3.237,-3.2807,-3.3208,-3.3565,-3.3899,-3.4201,-3.4374,-3.4325,-3.425,-3.4284,-3.4358,-3.4423,-3.4497,-3.4448,-3.43,-3.4034,-3.3771,-3.3435,-3.2958,-3.2523,-3.2178,-3.194,-3.1683,-3.1524,-3.1496,-3.1496,-3.1496,-3.1511,-3.1453,-3.1307,-3.1102,-3.0582,-2.9837,-6.131,-6.0705,-6.0686,-6.0198,-5.9414,-5.9385,-5.8895,-5.8131,-5.8083,-5.7304,-5.5985,-5.4868,-5.4378,-5.4322,-5.4246,-5.4054,-5.3828,-5.3741,-5.3209,-5.2366,-5.2116,-5.1664,-5.0972,-5.0067,-4.95,-4.9103,-4.7539,-4.6614,-4.6204,-4.525,-4.4699,-4.4457,-4.3397,-4.2387,-4.1525,-4.0278,-3.9281,-3.8532,-3.8462,-3.8321,-3.7984,-3.7898,-3.7649,-3.7278,-3.7029,-3.667,-3.6229,-3.6058,-3.5844,-3.5622,-3.5616,-3.5554,-3.5475,-3.5337,-3.5018,-3.4546,-3.4226,-3.3771,-3.3096,-3.266,-3.2342,-3.2219,-3.2081,-3.1697,-3.0925,-3.0418,-2.9884,-2.9293,-2.8688,-2.832,-2.843,-2.8527,-2.8716,-2.8812,-2.9383,-2.9867,-3.0235,-3.0687,-3.1161,-3.161,-3.2035,-3.2425,-3.2807,-3.3261,-3.371,-3.405,-3.4349,-3.4546,-3.4594,-3.4667,-3.4691,-3.4618,-3.4594,-3.4594,-3.4594,-3.4594,-3.4472,-3.4226,-3.4,-3.3668,-3.3214,-3.266,-3.2247,-3.2038,-3.1769,-3.1597,-3.1524,-3.1496,-3.1496,-3.1496,-3.1409,-3.1205,-3.0851,-3.0127,-2.9338,-6.1659,-6.1581,-6.1542,-6.1095,-6.0315,-6.0293,-5.9785,-5.9024,-5.8963,-5.8924,-5.8446,-5.6998,-5.621,-5.615,-5.6036,-5.5533,-5.4803,-5.4719,-5.4172,-5.3237,-5.2459,-5.2046,-5.1864,-5.1034,-5.0209,-4.9365,-4.8346,-4.7348,-4.6363,-4.5361,-4.4745,-4.4416,-4.3426,-4.2779,-4.2287,-4.0705,-3.9672,-3.9396,-3.9312,-3.883,-3.7952,-3.7792,-3.7504,-3.7127,-3.6796,-3.6489,-3.6204,-3.5949,-3.5734,-3.5622,-3.5616,-3.5571,-3.5492,-3.5268,-3.4923,-3.4521,-3.4126,-3.3633,-3.2978,-3.2594,-3.2342,-3.2234,-3.2066,-3.1726,-3.1058,-3.0553,-2.9946,-2.9275,-2.8656,-2.8495,-2.8702,-2.8785,-2.9008,-2.9446,-2.9929,-3.0357,-3.0717,-3.1161,-3.161,-3.2079,-3.2382,-3.278,-3.3288,-3.3694,-3.4075,-3.4505,-3.4643,-3.4756,-3.4835,-3.4859,-3.4875,-3.4875,-3.4851,-3.4851,-3.4851,-3.4875,-3.4732,-3.4497,-3.4325,-3.3949,-3.3408,-3.2969,-3.2602,-3.2122,-3.1855,-3.1683,-3.1568,-3.1496,-3.1496,-3.1467,-3.1336,-3.1073,-3.0372,-2.9682,-2.9022,-6.1698,-6.1698,-6.1698,-6.1522,-6.1193,-6.1174,-6.0666,-5.9905,-5.9866,-5.9592,-5.9044,-5.8326,-5.7753,-5.719,-5.6611,-5.6124,-5.5747,-5.5695,-5.5145,-5.4199,-5.3337,-5.2649,-5.2036,-5.1206,-5.0582,-5.018,-4.9279,-4.8287,-4.7182,-4.5649,-4.4732,-4.4532,-4.3903,-4.3292,-4.2662,-4.1693,-4.0894,-4.0214,-4.011,-3.9788,-3.9265,-3.8707,-3.818,-3.7684,-3.698,-3.6426,-3.6105,-3.5888,-3.5751,-3.5622,-3.5616,-3.5549,-3.54,-3.5198,-3.4851,-3.43,-3.3658,-3.3134,-3.2746,-3.2508,-3.237,-3.2315,-3.2107,-3.1783,-3.135,-3.0792,-3.0266,-2.9837,-2.9247,-2.8962,-2.9103,-2.9279,-2.9529,-2.9884,-3.0296,-3.0732,-3.1087,-3.1581,-3.2064,-3.2425,-3.2861,-3.3261,-3.3694,-3.4084,-3.448,-3.4835,-3.4947,-3.5011,-3.5128,-3.5081,-3.5018,-3.4994,-3.4947,-3.4899,-3.4899,-3.4899,-3.478,-3.457,-3.4374,-3.4075,-3.3539,-3.306,-3.2641,-3.2206,-3.1968,-3.1756,-3.1539,-3.1496,-3.1496,-3.1438,-3.1146,-3.0747,-2.996,-2.9446,-2.8908,-6.1698,-6.1698,-6.1698,-6.1698,-6.1701,-6.1703,-6.1354,-6.0807,-6.0753,-6.0382,-5.9816,-5.9562,-5.8987,-5.8109,-5.7196,-5.6643,-5.6378,-5.6345,-5.5935,-5.5147,-5.4293,-5.3398,-5.2492,-5.1633,-5.1076,-5.0713,-4.9854,-4.8769,-4.7543,-4.6022,-4.4996,-4.4643,-4.4254,-4.3735,-4.3045,-4.2518,-4.1807,-4.1105,-4.089,-4.0727,-4.0452,-3.9797,-3.9116,-3.8412,-3.7404,-3.6671,-3.6327,-3.5941,-3.5689,-3.56,-3.5577,-3.5481,-3.5314,-3.5081,-3.4618,-3.3924,-3.3282,-3.28,-3.2605,-3.2496,-3.2398,-3.2398,-3.2191,-3.1925,-3.1552,-3.1102,-3.0717,-3.0447,-3.0023,-2.9732,-2.9623,-2.9839,-3.0099,-3.0342,-3.0732,-3.1146,-3.1523,-3.2007,-3.2453,-3.2819,-3.3314,-3.3822,-3.4184,-3.4611,-3.497,-3.5118,-3.5182,-3.5228,-3.5337,-3.5274,-3.5182,-3.5135,-3.5041,-3.4947,-3.4923,-3.4899,-3.478,-3.4618,-3.4448,-3.4176,-3.3668,-3.3193,-3.2695,-3.2302,-3.2053,-3.1769,-3.1568,-3.1496,-3.1453,-3.1307,-3.0999,-3.0462,-2.9789,-2.9289,-2.878,-6.1698,-6.1698,-6.1698,-6.1698,-6.1701,-6.1711,-6.1697,-6.1541,-6.1588,-6.1571,-6.1355,-6.0673,-5.9853,-5.8991,-5.8143,-5.7268,-5.6547,-5.6426,-5.6314,-5.6076,-5.5217,-5.4352,-5.353,-5.2651,-5.1761,-5.0977,-5.0081,-4.8568,-4.6686,-4.6177,-4.5589,-4.4704,-4.4283,-4.3996,-4.3643,-4.2757,-4.2099,-4.1869,-4.165,-4.1483,-4.1293,-4.0922,-4.0223,-3.928,-3.8096,-3.7317,-3.6966,-3.6124,-3.5639,-3.5616,-3.5543,-3.5429,-3.5268,-3.4804,-3.4176,-3.3424,-3.3058,-3.2816,-3.2621,-3.2453,-3.2398,-3.2398,-3.2247,-3.2051,-3.1768,-3.1423,-3.1131,-3.0821,-3.0866,-3.0703,-3.0403,-3.0463,-3.0673,-3.094,-3.1263,-3.1638,-3.2092,-3.2425,-3.2834,-3.334,-3.3848,-3.4349,-3.493,-3.5158,-3.5281,-3.5396,-3.5418,-3.5464,-3.5554,-3.5509,-3.5373,-3.5274,-3.5175,-3.5058,-3.4947,-3.4899,-3.4851,-3.4707,-3.4497,-3.4316,-3.3873,-3.3408,-3.2904,-3.2441,-3.2122,-3.184,-3.1611,-3.1453,-3.1336,-3.1132,-3.0687,-3.016,-2.9651,-2.9067,-2.8554,-6.1698,-6.1698,-6.1698,-6.1703,-6.1711,-6.1715,-6.1701,-6.1705,-6.1708,-6.1709,-6.1651,-6.1358,-6.0752,-5.9893,-5.9027,-5.784,-5.6562,-5.6471,-5.6425,-5.6266,-5.5408,-5.4764,-5.4321,-5.3017,-5.2148,-5.1715,-5.0797,-4.9279,-4.7387,-4.6529,-4.5634,-4.4751,-4.4254,-4.3983,-4.3707,-4.3203,-4.2812,-4.265,-4.2464,-4.2273,-4.1986,-4.1677,-4.1177,-4.049,-3.8926,-3.7756,-3.7137,-3.6622,-3.6146,-3.5616,-3.5543,-3.54,-3.5128,-3.4423,-3.3761,-3.3229,-3.2881,-3.2648,-3.248,-3.241,-3.2398,-3.2398,-3.2274,-3.2163,-3.1994,-3.1739,-3.1538,-3.1553,-3.1452,-3.1379,-3.1379,-3.1263,-3.1292,-3.1596,-3.1824,-3.212,-3.2532,-3.2926,-3.3366,-3.3873,-3.4448,-3.5041,-3.5304,-3.5464,-3.5554,-3.5739,-3.58,-3.5844,-3.5905,-3.5817,-3.56,-3.5396,-3.5205,-3.5058,-3.4923,-3.4899,-3.4875,-3.4715,-3.4546,-3.43,-3.3924,-3.3529,-3.3011,-3.2468,-3.2163,-3.1868,-3.1611,-3.1395,-3.1278,-3.0955,-3.0507,-3.0007,-2.9512,-2.8926,-2.8476,-6.1711,-6.1711,-6.1711,-6.1715,-6.1702,-6.1705,-6.1709,-6.1712,-6.1713,-6.1714,-6.1714,-6.1695,-6.1206,-6.0348,-5.9507,-5.8351,-5.699,-5.667,-5.6459,-5.6375,-5.576,-5.5264,-5.4725,-5.3449,-5.256,-5.2179,-5.1222,-4.9846,-4.825,-4.711,-4.6057,-4.5043,-4.4412,-4.3921,-4.3662,-4.3409,-4.3196,-4.303,-4.2841,-4.2629,-4.2374,-4.2002,-4.1613,-4.107,-3.979,-3.867,-3.782,-3.7159,-3.6592,-3.6039,-3.5649,-3.5245,-3.478,-3.4084,-3.3503,-3.3069,-3.2757,-3.2551,-3.2425,-3.2398,-3.2398,-3.2398,-3.2315,-3.2231,-3.2191,-3.1994,-3.1953,-3.1953,-3.1953,-3.1938,-3.2051,-3.2007,-3.2023,-3.2191,-3.2315,-3.2574,-3.3018,-3.3445,-3.3933,-3.4537,-3.5142,-3.5554,-3.5761,-3.5844,-3.5954,-3.6144,-3.6148,-3.6229,-3.6293,-3.6144,-3.5888,-3.5627,-3.5356,-3.5182,-3.5018,-3.4947,-3.4923,-3.4804,-3.4594,-3.4325,-3.3984,-3.3591,-3.3091,-3.2563,-3.2163,-3.1868,-3.1626,-3.1395,-3.1132,-3.0821,-3.0357,-2.9808,-2.931,-2.8753,-2.8346,-6.1708,-6.1708,-6.1709,-6.1708,-6.1709,-6.1714,-6.1716,-6.1717,-6.1699,-6.1699,-6.1699,-6.1699,-6.1269,-6.0449,-5.9707,-5.8769,-5.7886,-5.7049,-5.6577,-5.6478,-5.6356,-5.5867,-5.5094,-5.4173,-5.3119,-5.2237,-5.1141,-5.0045,-4.8888,-4.7794,-4.6738,-4.5721,-4.452,-4.3876,-4.3614,-4.3357,-4.3105,-4.2919,-4.2727,-4.255,-4.2351,-4.1892,-4.1475,-4.1163,-4.0597,-3.9941,-3.9166,-3.7723,-3.6948,-3.6738,-3.5906,-3.4956,-3.4291,-3.3838,-3.345,-3.3005,-3.2718,-3.2535,-3.2425,-3.2398,-3.2398,-3.2398,-3.2382,-3.2342,-3.2247,-3.2191,-3.2135,-3.2066,-3.215,-3.2274,-3.2425,-3.2648,-3.2757,-3.2656,-3.2749,-3.3071,-3.3575,-3.3975,-3.448,-3.5333,-3.5822,-3.6045,-3.6237,-3.6301,-3.6364,-3.6464,-3.6485,-3.6523,-3.6585,-3.6402,-3.6216,-3.5958,-3.5605,-3.5281,-3.5135,-3.4994,-3.4947,-3.4875,-3.4635,-3.4374,-3.405,-3.3642,-3.3091,-3.2535,-3.2051,-3.1754,-3.1568,-3.1336,-3.1073,-3.0732,-3.019,-2.9654,-2.9121,-2.8656,-2.8235,-6.1709,-6.1709,-6.1709,-6.1711,-6.1715,-6.1716,-6.1717,-6.1699,-6.1699,-6.1699,-6.1699,-6.1699,-6.1543,-6.1152,-6.041,-5.957,-5.875,-5.7886,-5.7132,-5.658,-5.6458,-5.6301,-5.5852,-5.5027,-5.3741,-5.2232,-5.1105,-5.0035,-4.9014,-4.7946,-4.6864,-4.5763,-4.4595,-4.3878,-4.3595,-4.3321,-4.3105,-4.2919,-4.2709,-4.2492,-4.2328,-4.1849,-4.1426,-4.0995,-4.068,-4.0275,-3.9815,-3.8826,-3.8075,-3.7567,-3.6589,-3.5461,-3.4314,-3.3668,-3.3266,-3.2924,-3.2621,-3.2468,-3.2425,-3.2398,-3.2398,-3.2398,-3.2398,-3.2398,-3.2342,-3.2342,-3.233,-3.2274,-3.2385,-3.2551,-3.2773,-3.3081,-3.3251,-3.3224,-3.334,-3.361,-3.4209,-3.4787,-3.5356,-3.5854,-3.622,-3.6468,-3.6629,-3.671,-3.6791,-3.6811,-3.6831,-3.6849,-3.6748,-3.6606,-3.6318,-3.6041,-3.5672,-3.5356,-3.5165,-3.5018,-3.4947,-3.4851,-3.4659,-3.4399,-3.4075,-3.3642,-3.3091,-3.2523,-3.2038,-3.1697,-3.1511,-3.1307,-3.1043,-3.0642,-3.0113,-2.9574,-2.904,-2.856,-2.8151,-6.1715,-6.1715,-6.1715,-6.1716,-6.1698,-6.1698,-6.1699,-6.1699,-6.1699,-6.1699,-6.1699,-6.1699,-6.1699,-6.1523,-6.0781,-5.9961,-5.914,-5.83,-5.7417,-5.6641,-5.6504,-5.6475,-5.6305,-5.5422,-5.4006,-5.2376,-5.147,-5.0575,-4.9507,-4.8464,-4.739,-4.6281,-4.5107,-4.4204,-4.3632,-4.3339,-4.3105,-4.288,-4.2689,-4.249,-4.2205,-4.1823,-4.138,-4.0942,-4.0655,-4.0387,-4.0087,-3.9639,-3.9056,-3.8212,-3.7004,-3.5695,-3.4572,-3.3782,-3.3176,-3.2881,-3.2605,-3.2398,-3.2398,-3.2398,-3.2398,-3.2398,-3.2398,-3.2398,-3.2398,-3.2398,-3.2425,-3.2496,-3.2605,-3.2827,-3.3123,-3.3477,-3.3787,-3.4041,-3.4,-3.4275,-3.4859,-3.547,-3.598,-3.6326,-3.6615,-3.6814,-3.697,-3.7046,-3.7124,-3.7124,-3.7105,-3.7048,-3.6911,-3.6731,-3.6464,-3.6148,-3.5778,-3.5487,-3.5228,-3.5065,-3.4923,-3.4804,-3.4683,-3.4399,-3.4101,-3.3633,-3.3107,-3.2413,-3.184,-3.164,-3.1467,-3.1249,-3.1028,-3.0536,-3.0066,-2.9495,-2.8976,-2.8457,-2.8066,-6.1699,-6.1699,-6.1699,-6.1699,-6.1699,-6.1699,-6.1699,-6.1699,-6.1699,-6.1699,-6.1699,-6.1699,-6.1699,-6.1523,-6.0918,-6.0156,-5.9238,-5.8476,-5.7636,-5.6929,-5.6603,-5.6516,-5.6331,-5.5422,-5.4084,-5.2651,-5.2092,-5.1375,-5.0251,-4.9234,-4.8282,-4.7033,-4.5832,-4.4785,-4.3812,-4.3357,-4.3087,-4.2842,-4.2668,-4.2432,-4.2103,-4.1762,-4.1358,-4.0894,-4.0631,-4.0387,-4.0104,-4.0011,-3.9665,-3.883,-3.7126,-3.5885,-3.5091,-3.3989,-3.3176,-3.2897,-3.2578,-3.2425,-3.2398,-3.2398,-3.2398,-3.2398,-3.2398,-3.2398,-3.2398,-3.2425,-3.248,-3.2578,-3.2784,-3.3069,-3.345,-3.3873,-3.4325,-3.4811,-3.4747,-3.4984,-3.5538,-3.6045,-3.6406,-3.6716,-3.6992,-3.7147,-3.7259,-3.7297,-3.7316,-3.7297,-3.7278,-3.7222,-3.7089,-3.6911,-3.6652,-3.6322,-3.5937,-3.56,-3.5327,-3.5111,-3.497,-3.4828,-3.4667,-3.4399,-3.4025,-3.3513,-3.2973,-3.229,-3.1826,-3.1611,-3.1438,-3.1278,-3.1014,-3.0598,-3.0068,-2.9481,-2.8912,-2.8444,-2.8131,-6.1699,-6.1699,-6.1699,-6.1699,-6.1699,-6.1699,-6.1699,-6.1699,-6.1699,-6.1699,-6.1699,-6.1699,-6.1699,-6.168,-6.1465,-6.0879,-6.0,-5.9199,-5.8398,-5.7558,-5.6832,-5.6575,-5.6326,-5.5507,-5.4452,-5.3303,-5.2492,-5.1511,-5.0459,-4.9491,-4.839,-4.7238,-4.6127,-4.4951,-4.3943,-4.3462,-4.3142,-4.2881,-4.2688,-4.2371,-4.1998,-4.1719,-4.1312,-4.0793,-4.0583,-4.0387,-4.0121,-4.0113,-3.9657,-3.8724,-3.7544,-3.6305,-3.527,-3.4053,-3.3208,-3.2881,-3.2578,-3.2398,-3.2398,-3.2398,-3.2398,-3.2398,-3.2398,-3.2398,-3.2398,-3.2496,-3.2551,-3.266,-3.2962,-3.3335,-3.3642,-3.4126,-3.4723,-3.5418,-3.5538,-3.57,-3.6088,-3.6447,-3.6771,-3.6992,-3.7204,-3.7337,-3.7411,-3.7466,-3.7466,-3.7411,-3.7373,-3.7372,-3.7222,-3.7087,-3.6851,-3.6512,-3.6156,-3.5783,-3.5464,-3.5228,-3.5018,-3.4875,-3.4643,-3.4374,-3.3882,-3.3261,-3.2687,-3.2066,-3.1826,-3.1626,-3.1496,-3.1351,-3.1014,-3.0703,-3.016,-2.9605,-2.8994,-2.8495,-2.8249,-6.1699,-6.1699,-6.1699,-6.1699,-6.1699,-6.1699,-6.1699,-6.1699,-6.1699,-6.1699,-6.1699,-6.1699,-6.1699,-6.1699,-6.1699,-6.123,-6.0371,-5.957,-5.873,-5.7851,-5.699,-5.6598,-5.6365,-5.5818,-5.5091,-5.4114,-5.3122,-5.2098,-5.1052,-5.0008,-4.891,-4.7802,-4.6632,-4.5513,-4.4434,-4.3641,-4.316,-4.2862,-4.2649,-4.2272,-4.187,-4.1565,-4.118,-4.0752,-4.051,-4.0313,-4.0138,-4.0113,-3.975,-3.9017,-3.811,-3.6981,-3.5707,-3.4447,-3.3502,-3.2959,-3.2594,-3.2398,-3.2398,-3.2398,-3.2398,-3.2398,-3.2398,-3.2425,-3.248,-3.2551,-3.2648,-3.292,-3.324,-3.3633,-3.4059,-3.4682,-3.5379,-3.5975,-3.6318,-3.6471,-3.6557,-3.6836,-3.7126,-3.7336,-3.7503,-3.7595,-3.7613,-3.7667,-3.7613,-3.7558,-3.7503,-3.7429,-3.7353,-3.7201,-3.7027,-3.6713,-3.6367,-3.6002,-3.5644,-3.5389,-3.5128,-3.497,-3.4594,-3.4325,-3.3755,-3.3102,-3.2617,-3.215,-3.1883,-3.1683,-3.1611,-3.1481,-3.1204,-3.0807,-3.0267,-2.9747,-2.9184,-2.8656,-2.8411,-6.1699,-6.1699,-6.1699,-6.1699,-6.1699,-6.1699,-6.1699,-6.1699,-6.1699,-6.1699,-6.1699,-6.1699,-6.1699,-6.1699,-6.1699,-6.1269,-6.0547,-5.9824,-5.8808,-5.791,-5.7067,-5.6561,-5.6478,-5.6299,-5.5639,-5.475,-5.3867,-5.2808,-5.1681,-5.0722,-4.9662,-4.8494,-4.74,-4.6287,-4.5076,-4.4043,-4.3287,-4.2842,-4.2552,-4.2207,-4.1784,-4.1413,-4.1047,-4.068,-4.0404,-4.0238,-4.0138,-4.0087,-3.9952,-3.9687,-3.8742,-3.7531,-3.6291,-3.5005,-3.388,-3.3049,-3.2621,-3.2398,-3.2398,-3.2398,-3.2398,-3.2398,-3.2425,-3.248,-3.2605,-3.2703,-3.292,-3.3266,-3.3607,-3.405,-3.465,-3.547,-3.6045,-3.6485,-3.6873,-3.7071,-3.7092,-3.7281,-3.7522,-3.7721,-3.7845,-3.7934,-3.7916,-3.7846,-3.7757,-3.7739,-3.7685,-3.7595,-3.7503,-3.741,-3.7184,-3.6893,-3.6553,-3.6216,-3.5866,-3.5549,-3.5297,-3.5041,-3.4594,-3.4201,-3.3652,-3.3076,-3.2602,-3.2231,-3.1981,-3.1883,-3.1883,-3.1682,-3.1408,-3.0955,-3.0448,-2.9931,-2.9435,-2.8881,-2.8554,-6.1699,-6.1699,-6.1699,-6.1699,-6.1699,-6.1699,-6.1699,-6.1699,-6.1699,-6.1699,-6.1699,-6.1698,-6.1717,-6.1717,-6.1695,-6.1556,-6.1245,-6.0388,-5.9355,-5.789,-5.701,-5.6592,-5.6506,-5.6422,-5.5876,-5.4971,-5.3955,-5.2964,-5.1963,-5.0933,-4.9797,-4.8764,-4.8089,-4.6981,-4.5363,-4.4627,-4.3834,-4.3009,-4.2571,-4.2145,-4.1714,-4.1346,-4.0954,-4.0558,-4.0288,-4.0163,-4.0096,-4.0113,-3.9969,-3.9519,-3.875,-3.7722,-3.6405,-3.5074,-3.3975,-3.3142,-3.2594,-3.2398,-3.2398,-3.2398,-3.2398,-3.2425,-3.2508,-3.2621,-3.2827,-3.3027,-3.3266,-3.3607,-3.3949,-3.4505,-3.5247,-3.5876,-3.6388,-3.6816,-3.7242,-3.7577,-3.7721,-3.7775,-3.7845,-3.8001,-3.8138,-3.8224,-3.8224,-3.8086,-3.8,-3.7949,-3.7863,-3.7775,-3.7685,-3.7576,-3.7373,-3.7108,-3.6774,-3.6426,-3.6062,-3.5706,-3.5321,-3.5041,-3.4618,-3.4151,-3.3601,-3.3118,-3.2672,-3.2358,-3.2094,-3.2038,-3.2066,-3.1912,-3.164,-3.1131,-3.0643,-3.0146,-2.9668,-2.9149,-2.8716,-6.1699,-6.1699,-6.1699,-6.1699,-6.1699,-6.1699,-6.1699,-6.1699,-6.1699,-6.1699,-6.1698,-6.1716,-6.1712,-6.1709,-6.1702,-6.1699,-6.1373,-6.0344,-5.9118,-5.7909,-5.7051,-5.6577,-5.6501,-5.6452,-5.61,-5.5427,-5.4179,-5.3216,-5.2415,-5.1207,-5.0084,-4.9315,-4.8645,-4.7443,-4.5908,-4.5118,-4.4035,-4.3046,-4.2532,-4.2103,-4.1648,-4.1244,-4.083,-4.0395,-4.0171,-4.0113,-4.0113,-4.0113,-3.9961,-3.9629,-3.9016,-3.8091,-3.681,-3.5516,-3.4412,-3.3501,-3.2702,-3.2456,-3.2398,-3.2425,-3.2425,-3.248,-3.2648,-3.2908,-3.3123,-3.3372,-3.3668,-3.4025,-3.4448,-3.4937,-3.581,-3.6308,-3.6759,-3.7186,-3.7595,-3.7932,-3.8119,-3.8154,-3.817,-3.8316,-3.8446,-3.853,-3.8496,-3.838,-3.8252,-3.8153,-3.7984,-3.7898,-3.7793,-3.7703,-3.7577,-3.7337,-3.7011,-3.6652,-3.6276,-3.5844,-3.5344,-3.5018,-3.4667,-3.4226,-3.3704,-3.3251,-3.2784,-3.2496,-3.2247,-3.2219,-3.2203,-3.2038,-3.1855,-3.1452,-3.0984,-3.0463,-2.9946,-2.9449,-2.9022,-6.1699,-6.1699,-6.1699,-6.1699,-6.1699,-6.1699,-6.1699,-6.1699,-6.1699,-6.1698,-6.1715,-6.1709,-6.168,-6.169,-6.1696,-6.1679,-6.1221,-5.996,-5.8716,-5.8179,-5.7088,-5.6639,-5.6528,-5.6475,-5.6395,-5.6124,-5.4699,-5.3747,-5.2894,-5.1653,-5.0573,-4.9974,-4.9093,-4.8007,-4.6824,-4.5574,-4.4473,-4.3412,-4.2699,-4.2124,-4.1653,-4.1203,-4.0734,-4.0271,-4.0121,-4.0113,-4.0113,-4.0087,-3.9986,-3.9703,-3.9382,-3.8541,-3.7373,-3.6146,-3.4881,-3.3853,-3.2908,-3.2582,-3.2551,-3.2523,-3.2551,-3.266,-3.2881,-3.3176,-3.3477,-3.3771,-3.4101,-3.4521,-3.4977,-3.5498,-3.6287,-3.6779,-3.7206,-3.7595,-3.7966,-3.8234,-3.843,-3.8512,-3.8585,-3.8631,-3.8755,-3.8833,-3.8803,-3.871,-3.8525,-3.8368,-3.817,-3.8001,-3.7933,-3.7828,-3.7703,-3.7503,-3.7166,-3.671,-3.6297,-3.5971,-3.5481,-3.5111,-3.4739,-3.4325,-3.3857,-3.3408,-3.2973,-3.266,-3.2453,-3.2398,-3.2315,-3.2191,-3.1966,-3.1724,-3.1248,-3.0658,-3.0176,-2.9716,-2.9324,-6.1699,-6.1699,-6.1699,-6.1699,-6.1699,-6.1699,-6.1699,-6.1699,-6.1698,-6.1715,-6.1709,-6.1715,-6.1674,-6.1631,-6.1607,-6.1611,-6.1215,-5.9881,-5.8963,-5.8517,-5.7375,-5.6581,-5.6577,-5.6515,-5.6469,-5.6134,-5.5137,-5.4207,-5.3275,-5.2194,-5.1042,-5.0278,-4.9654,-4.8796,-4.7647,-4.6542,-4.5295,-4.3979,-4.3125,-4.2394,-4.1727,-4.126,-4.0806,-4.0313,-4.0163,-4.0113,-4.0113,-4.0087,-3.9986,-3.9703,-3.9365,-3.8578,-3.7476,-3.6247,-3.4931,-3.3704,-3.3049,-3.2773,-3.28,-3.2816,-3.2881,-3.3043,-3.324,-3.3529,-3.3848,-3.4176,-3.4594,-3.5078,-3.5655,-3.6245,-3.6759,-3.7225,-3.7613,-3.7983,-3.8281,-3.8569,-3.877,-3.8917,-3.897,-3.8974,-3.9078,-3.9133,-3.9064,-3.8979,-3.8803,-3.8606,-3.8382,-3.8203,-3.807,-3.7951,-3.7811,-3.7558,-3.7299,-3.6794,-3.6314,-3.5993,-3.5633,-3.5274,-3.4923,-3.4546,-3.4075,-3.3581,-3.3187,-3.2796,-3.2551,-3.2425,-3.2342,-3.2302,-3.2107,-3.1838,-3.1364,-3.0881,-3.0418,-2.9993,-2.9512,-6.1699,-6.1699,-6.1699,-6.1699,-6.1699,-6.1699,-6.1699,-6.1698,-6.1715,-6.1687,-6.1668,-6.166,-6.1623,-6.1552,-6.1539,-6.1544,-6.1095,-5.9798,-5.9108,-5.8712,-5.7422,-5.6577,-5.6601,-5.6528,-5.6475,-5.618,-5.5452,-5.4465,-5.3442,-5.2358,-5.1308,-5.0434,-4.9912,-4.9171,-4.814,-4.7224,-4.5954,-4.4619,-4.362,-4.2729,-4.1827,-4.126,-4.071,-4.0412,-4.0188,-4.0113,-4.0113,-4.0113,-4.0011,-3.9807,-3.9504,-3.8573,-3.7455,-3.6448,-3.5337,-3.3983,-3.3285,-3.3016,-3.3005,-3.3005,-3.3123,-3.3398,-3.3642,-3.3975,-3.43,-3.4691,-3.5125,-3.5677,-3.6165,-3.6779,-3.7207,-3.7613,-3.7983,-3.8316,-3.8631,-3.8855,-3.9031,-3.9248,-3.9275,-3.9248,-3.9301,-3.9346,-3.9333,-3.9207,-3.9054,-3.8848,-3.8618,-3.8415,-3.8238,-3.8053,-3.7898,-3.7613,-3.7299,-3.6794,-3.6318,-3.6036,-3.5701,-3.5367,-3.5065,-3.4707,-3.425,-3.3736,-3.3266,-3.2881,-3.2676,-3.2453,-3.2398,-3.2342,-3.2148,-3.1994,-3.161,-3.1204,-3.0732,-3.0282,-2.9792,-6.1699,-6.1699,-6.1699,-6.1699,-6.1699,-6.1699,-6.1698,-6.1714,-6.1687,-6.1666,-6.1609,-6.1584,-6.1534,-6.1487,-6.1472,-6.1446,-6.1293,-5.9737,-5.9061,-5.8702,-5.7343,-5.6529,-5.6562,-5.6535,-5.6469,-5.6345,-5.5536,-5.4556,-5.3515,-5.2433,-5.1371,-5.0524,-4.9973,-4.9376,-4.8462,-4.7735,-4.6339,-4.515,-4.4076,-4.3184,-4.1982,-4.1111,-4.0617,-4.0355,-4.0171,-4.0113,-4.0113,-4.0113,-4.0037,-3.9858,-3.9518,-3.8783,-3.7307,-3.6753,-3.5912,-3.4579,-3.3683,-3.3382,-3.3319,-3.3335,-3.3513,-3.3848,-3.4075,-3.4399,-3.4811,-3.5258,-3.5761,-3.6346,-3.6799,-3.7207,-3.7632,-3.8,-3.8332,-3.8631,-3.8917,-3.9115,-3.9242,-3.938,-3.9464,-3.9495,-3.9539,-3.9508,-3.9482,-3.9399,-3.9221,-3.9021,-3.88,-3.8556,-3.8366,-3.8136,-3.7915,-3.7631,-3.7279,-3.6774,-3.636,-3.6058,-3.5706,-3.5344,-3.5088,-3.4804,-3.4325,-3.3822,-3.3398,-3.2989,-3.2676,-3.2496,-3.2453,-3.2398,-3.2274,-3.2079,-3.1881,-3.1495,-3.094,-3.0493,-3.0068,-6.1699,-6.1699,-6.1699,-6.1699,-6.1717,-6.1717,-6.1712,-6.168,-6.164,-6.1609,-6.156,-6.1534,-6.1466,-6.1401,-6.1356,-6.1364,-6.0863,-5.9724,-5.8923,-5.8738,-5.733,-5.6513,-5.658,-5.6521,-5.6502,-5.6291,-5.5505,-5.458,-5.3575,-5.2505,-5.1441,-5.0535,-5.005,-4.9651,-4.9061,-4.8245,-4.703,-4.5773,-4.4614,-4.3243,-4.1842,-4.1059,-4.0697,-4.0461,-4.0246,-4.0096,-4.0113,-4.0113,-4.0037,-3.991,-3.9722,-3.8847,-3.7586,-3.7111,-3.6166,-3.507,-3.4258,-3.3975,-3.3949,-3.3949,-3.4075,-3.4333,-3.4529,-3.4811,-3.5281,-3.5827,-3.6346,-3.6761,-3.7226,-3.765,-3.7982,-3.833,-3.8646,-3.8898,-3.9124,-3.929,-3.9432,-3.947,-3.9583,-3.9583,-3.9571,-3.9583,-3.9571,-3.9489,-3.9386,-3.9175,-3.8974,-3.874,-3.8478,-3.8203,-3.7932,-3.7631,-3.7298,-3.6811,-3.6423,-3.6105,-3.5778,-3.5389,-3.5135,-3.4875,-3.4423,-3.3949,-3.3555,-3.316,-3.2839,-3.2551,-3.248,-3.2398,-3.2358,-3.2219,-3.2023,-3.1581,-3.1087,-3.0673,-3.0342,-6.1717,-6.1698,-6.1716,-6.1715,-6.1712,-6.171,-6.166,-6.1657,-6.1625,-6.1552,-6.1479,-6.1453,-6.14,-6.1334,-6.1314,-6.1318,-6.0976,-5.956,-5.8861,-5.8554,-5.7361,-5.6533,-5.6551,-5.6562,-5.6554,-5.6177,-5.5188,-5.4275,-5.3436,-5.2569,-5.1472,-5.0563,-5.0107,-4.9778,-4.9457,-4.8756,-4.7751,-4.6415,-4.4824,-4.3138,-4.1956,-4.1232,-4.083,-4.051,-4.0313,-4.0171,-4.0096,-4.0113,-4.0087,-3.9902,-3.9564,-3.8707,-3.7676,-3.6993,-3.6154,-3.5318,-3.4961,-3.4723,-3.448,-3.4456,-3.4643,-3.4866,-3.5078,-3.5356,-3.5893,-3.6367,-3.6856,-3.7262,-3.765,-3.8017,-3.8348,-3.8646,-3.8942,-3.9165,-3.9324,-3.9446,-3.957,-3.9602,-3.9657,-3.9626,-3.9614,-3.9614,-3.9602,-3.9558,-3.9438,-3.9242,-3.9017,-3.8785,-3.8478,-3.8171,-3.7898,-3.7595,-3.7241,-3.6851,-3.6506,-3.617,-3.5866,-3.5509,-3.5205,-3.4923,-3.4497,-3.4075,-3.3694,-3.3361,-3.2989,-3.2757,-3.2535,-3.2425,-3.2385,-3.2274,-3.2135,-3.1752,-3.1379,-3.0999,-3.0613,-6.1658,-6.1668,-6.1687,-6.1684,-6.1678,-6.167,-6.1629,-6.1591,-6.1547,-6.1479,-6.1409,-6.1359,-6.131,-6.1261,-6.1225,-6.1106,-6.0806,-5.9427,-5.8791,-5.8115,-5.7314,-5.6589,-5.6516,-5.6538,-5.6542,-5.6472,-5.4797,-5.4024,-5.3453,-5.2464,-5.1256,-5.0542,-5.0224,-4.9874,-4.9548,-4.9043,-4.8192,-4.6451,-4.4654,-4.3096,-4.1951,-4.1373,-4.0977,-4.0655,-4.0387,-4.0238,-4.0138,-4.0113,-4.0113,-3.9969,-3.9353,-3.8587,-3.7795,-3.7023,-3.634,-3.5717,-3.5515,-3.5424,-3.5195,-3.5078,-3.5158,-3.5396,-3.57,-3.6049,-3.653,-3.6915,-3.7264,-3.7667,-3.8017,-3.8364,-3.8661,-3.8942,-3.9165,-3.935,-3.9489,-3.9606,-3.9696,-3.9703,-3.971,-3.9668,-3.9656,-3.9644,-3.9619,-3.9596,-3.9476,-3.9296,-3.9073,-3.8848,-3.851,-3.8171,-3.7898,-3.7631,-3.728,-3.6913,-3.6571,-3.6237,-3.5937,-3.5644,-3.5344,-3.5041,-3.4667,-3.4275,-3.3899,-3.3555,-3.3165,-3.2854,-3.2605,-3.2523,-3.2398,-3.2315,-3.2203,-3.2051,-3.1739,-3.1336,-3.0881,-6.1549,-6.1628,-6.1686,-6.1659,-6.1605,-6.1602,-6.1569,-6.1505,-6.1445,-6.1428,-6.1378,-6.1286,-6.1182,-6.1107,-6.0972,-6.067,-6.0007,-5.911,-5.8387,-5.7643,-5.6879,-5.6512,-5.6472,-5.6507,-5.6482,-5.6288,-5.4802,-5.4,-5.3432,-5.2067,-5.1134,-5.0577,-5.0313,-5.0025,-4.9669,-4.9233,-4.7932,-4.6268,-4.4621,-4.3292,-4.2207,-4.1485,-4.1071,-4.0728,-4.0453,-4.0238,-4.0113,-4.0138,-4.0146,-4.0112,-3.9291,-3.8664,-3.7973,-3.7125,-3.6412,-3.6124,-3.6041,-3.6002,-3.5958,-3.5739,-3.5711,-3.598,-3.6346,-3.6701,-3.7052,-3.7431,-3.7756,-3.8068,-3.8378,-3.8676,-3.8956,-3.9192,-3.9401,-3.9526,-3.9647,-3.9724,-3.977,-3.9766,-3.9743,-3.972,-3.9708,-3.9684,-3.9668,-3.9638,-3.9564,-3.94,-3.9133,-3.8892,-3.8556,-3.8219,-3.7966,-3.7685,-3.7319,-3.6974,-3.6635,-3.6343,-3.6041,-3.5773,-3.5458,-3.5205,-3.4899,-3.4521,-3.4101,-3.3694,-3.3335,-3.3,-3.2703,-3.2551,-3.2425,-3.237,-3.2287,-3.2135,-3.1853,-3.1452,-3.1073,-6.152,-6.1534,-6.1563,-6.1576,-6.1517,-6.1543,-6.15,-6.1458,-6.1421,-6.1352,-6.1278,-6.1182,-6.1117,-6.0963,-6.0518,-6.0236,-5.971,-5.8449,-5.7865,-5.7373,-5.6814,-5.6459,-5.6452,-5.6495,-5.6497,-5.6191,-5.489,-5.3943,-5.3683,-5.1984,-5.1218,-5.0758,-5.0446,-5.0149,-4.9819,-4.9243,-4.7801,-4.6323,-4.5108,-4.4025,-4.243,-4.1835,-4.1391,-4.0901,-4.0793,-4.0558,-4.0412,-4.0362,-4.0362,-4.0039,-3.9146,-3.857,-3.8042,-3.7131,-3.656,-3.6395,-3.6426,-3.655,-3.6632,-3.6406,-3.628,-3.6574,-3.6937,-3.7265,-3.7505,-3.7844,-3.815,-3.8442,-3.8718,-3.8998,-3.9219,-3.9452,-3.9623,-3.9717,-3.9815,-3.987,-3.9881,-3.9881,-3.9867,-3.9867,-3.9792,-3.9735,-3.9727,-3.9698,-3.9607,-3.9483,-3.9197,-3.8921,-3.8603,-3.8302,-3.8052,-3.7757,-3.743,-3.7108,-3.6774,-3.6444,-3.6122,-3.5839,-3.5571,-3.5297,-3.5034,-3.4683,-3.4275,-3.3873,-3.3477,-3.3107,-3.2812,-3.2578,-3.2425,-3.2398,-3.2342,-3.2247,-3.191,-3.1567,-3.1278,-6.1433,-6.1441,-6.1428,-6.144,-6.1443,-6.1445,-6.1428,-6.1388,-6.1337,-6.1286,-6.1145,-6.0915,-6.075,-6.0518,-5.9899,-5.9279,-5.8822,-5.7957,-5.7401,-5.6938,-5.6568,-5.6403,-5.6457,-5.6489,-5.6502,-5.615,-5.4959,-5.3967,-5.384,-5.2084,-5.1275,-5.0901,-5.0625,-5.0347,-4.9914,-4.9271,-4.8021,-4.6485,-4.5589,-4.4516,-4.2731,-4.211,-4.1766,-4.1255,-4.1088,-4.0877,-4.071,-4.0621,-4.0419,-3.9922,-3.9151,-3.8397,-3.7816,-3.7236,-3.6624,-3.6655,-3.6818,-3.6974,-3.7054,-3.7015,-3.6898,-3.717,-3.7487,-3.7773,-3.8032,-3.8296,-3.8628,-3.8807,-3.9082,-3.9298,-3.9508,-3.9658,-3.9815,-3.9903,-3.9998,-4.0049,-4.0059,-4.0068,-4.0027,-4.0026,-3.9943,-3.9889,-3.9811,-3.9762,-3.9619,-3.9502,-3.9264,-3.9021,-3.8758,-3.8446,-3.8136,-3.7845,-3.754,-3.7222,-3.6891,-3.6527,-3.617,-3.5927,-3.5639,-3.5406,-3.5105,-3.478,-3.4423,-3.4025,-3.3633,-3.3229,-3.2908,-3.2676,-3.2523,-3.2398,-3.2342,-3.2302,-3.2135,-3.1796,-3.1596,-6.1318,-6.1314,-6.1291,-6.1299,-6.1318,-6.131,-6.1306,-6.1275,-6.1245,-6.1115,-6.0915,-6.0325,-5.9957,-5.9725,-5.901,-5.8361,-5.78,-5.7409,-5.6993,-5.6435,-5.6356,-5.6339,-5.6402,-5.6448,-5.6404,-5.6056,-5.4901,-5.398,-5.3828,-5.2087,-5.1269,-5.1017,-5.0767,-5.0466,-5.0063,-4.9506,-4.817,-4.6443,-4.5847,-4.4543,-4.3092,-4.2353,-4.2005,-4.1705,-4.1436,-4.1232,-4.11,-4.1024,-4.0741,-3.9986,-3.9242,-3.8534,-3.7955,-3.7195,-3.6851,-3.7091,-3.7282,-3.7431,-3.7505,-3.7487,-3.7632,-3.7773,-3.8029,-3.8291,-3.8582,-3.8855,-3.9082,-3.92,-3.9389,-3.9551,-3.9705,-3.987,-4.0007,-4.0099,-4.0187,-4.0224,-4.0233,-4.0233,-4.0225,-4.0186,-4.0118,-4.0057,-3.9943,-3.9834,-3.9686,-3.9508,-3.9322,-3.9106,-3.8862,-3.8572,-3.8251,-3.7966,-3.7667,-3.7373,-3.7048,-3.6591,-3.6237,-3.5975,-3.5728,-3.5498,-3.5222,-3.4899,-3.4546,-3.4151,-3.3771,-3.3388,-3.3027,-3.273,-3.2578,-3.2425,-3.2425,-3.2342,-3.2219,-3.2051,-3.1853,-6.127,-6.1234,-6.1236,-6.1219,-6.118,-6.1259,-6.1278,-6.1227,-6.1125,-6.0827,-6.0325,-5.9957,-5.9513,-5.8932,-5.8197,-5.7531,-5.7269,-5.6553,-5.617,-5.6188,-5.6204,-5.6258,-5.6329,-5.6383,-5.6227,-5.5542,-5.4527,-5.3651,-5.3074,-5.182,-5.1308,-5.1058,-5.0772,-5.0423,-5.0101,-4.957,-4.8546,-4.6831,-4.6036,-4.5077,-4.325,-4.2673,-4.2356,-4.2107,-4.1878,-4.1727,-4.16,-4.1552,-4.1086,-4.0311,-3.9561,-3.8925,-3.8254,-3.7484,-3.7357,-3.7614,-3.7827,-3.7982,-3.8214,-3.8392,-3.847,-3.8486,-3.8514,-3.877,-3.9036,-3.9245,-3.9427,-3.9563,-3.9675,-3.9818,-3.9965,-4.0099,-4.0205,-4.0279,-4.0349,-4.0381,-4.0397,-4.0408,-4.0392,-4.0334,-4.0281,-4.0099,-3.9965,-3.9856,-3.9715,-3.957,-3.9388,-3.9175,-3.8935,-3.8649,-3.8348,-3.8085,-3.781,-3.7522,-3.7166,-3.6716,-3.6364,-3.6127,-3.5861,-3.5633,-3.5321,-3.5024,-3.4691,-3.4325,-3.3924,-3.3529,-3.316,-3.2839,-3.2605,-3.2468,-3.2425,-3.2398,-3.233,-3.2219,-3.2107,-6.1191,-6.1164,-6.1183,-6.1146,-6.1108,-6.1191,-6.1191,-6.1106,-6.0818,-6.0364,-5.9861,-5.9319,-5.87,-5.7985,-5.7308,-5.6835,-5.6786,-5.6341,-5.6057,-5.6078,-5.6145,-5.6226,-5.6306,-5.6309,-5.5977,-5.5228,-5.4402,-5.3593,-5.277,-5.1804,-5.1292,-5.1016,-5.0756,-5.0517,-5.0205,-4.9722,-4.8683,-4.7127,-4.6172,-4.5236,-4.3779,-4.3013,-4.2747,-4.2589,-4.2412,-4.2254,-4.2195,-4.2011,-4.165,-4.0758,-4.005,-3.9342,-3.8561,-3.808,-3.7895,-3.8135,-3.8396,-3.8585,-3.8822,-3.9017,-3.9045,-3.9027,-3.904,-3.9195,-3.9452,-3.9623,-3.9751,-3.9873,-3.9979,-4.006,-4.0196,-4.0314,-4.0383,-4.0441,-4.0481,-4.0508,-4.0534,-4.0527,-4.0496,-4.0452,-4.037,-4.0158,-3.9956,-3.9837,-3.972,-3.9601,-3.9464,-3.9256,-3.9036,-3.877,-3.851,-3.8252,-3.7949,-3.7649,-3.7298,-3.6853,-3.6509,-3.6255,-3.5993,-3.5706,-3.5458,-3.5142,-3.4811,-3.4489,-3.4117,-3.371,-3.3266,-3.2931,-3.2633,-3.2453,-3.2425,-3.2398,-3.2398,-3.2342,-3.2247,-6.1099,-6.1099,-6.1099,-6.1099,-6.1099,-6.1031,-6.1002,-6.0963,-6.0209,-5.9803,-5.9648,-5.8043,-5.7454,-5.7144,-5.639,-5.6119,-5.6139,-5.6051,-5.6029,-5.6062,-5.6114,-5.6197,-5.6214,-5.6161,-5.5598,-5.4999,-5.4186,-5.3196,-5.2578,-5.1794,-5.1253,-5.1047,-5.0848,-5.0635,-5.0377,-4.9879,-4.8673,-4.7278,-4.6392,-4.5295,-4.388,-4.3269,-4.3105,-4.2975,-4.2825,-4.2731,-4.2692,-4.2599,-4.1732,-4.0941,-4.0311,-3.9408,-3.8698,-3.8238,-3.8396,-3.8646,-3.8942,-3.9137,-3.9292,-3.9458,-3.9561,-3.9566,-3.9609,-3.9717,-3.9815,-3.9956,-4.005,-4.0139,-4.0204,-4.0295,-4.0392,-4.0457,-4.0519,-4.0564,-4.0593,-4.0614,-4.0633,-4.0619,-4.0579,-4.0531,-4.0427,-4.0252,-4.0029,-3.987,-3.98,-3.9696,-3.9588,-3.942,-3.9197,-3.8964,-3.8695,-3.8433,-3.8138,-3.7775,-3.7411,-3.705,-3.6693,-3.6426,-3.6067,-3.5778,-3.5492,-3.5281,-3.5001,-3.4667,-3.43,-3.3873,-3.3293,-3.292,-3.2633,-3.2508,-3.2425,-3.2398,-3.2398,-3.2398,-3.2342,-6.1099,-6.1099,-6.1099,-6.1099,-6.1021,-6.048,-6.0228,-6.0132,-5.9339,-5.8681,-5.7995,-5.755,-5.6951,-5.6379,-5.6089,-5.6023,-5.6003,-5.6012,-5.6012,-5.6037,-5.6082,-5.616,-5.5999,-5.5662,-5.5006,-5.4239,-5.3434,-5.2692,-5.1952,-5.1372,-5.1271,-5.1075,-5.0944,-5.0778,-5.0537,-5.0264,-4.8789,-4.7514,-4.6756,-4.5451,-4.4241,-4.3565,-4.3427,-4.3268,-4.3178,-4.3124,-4.3105,-4.3124,-4.2249,-4.1152,-4.0926,-4.0203,-3.8789,-3.8752,-3.897,-3.9208,-3.9421,-3.9599,-3.9717,-3.9848,-3.9956,-4.0031,-4.01,-4.0091,-4.0148,-4.0205,-4.0304,-4.0372,-4.0411,-4.0477,-4.0549,-4.06,-4.0641,-4.0642,-4.0688,-4.0707,-4.0707,-4.0707,-4.0661,-4.0571,-4.05,-4.0332,-4.0109,-3.9975,-3.9878,-3.98,-3.9677,-3.9526,-3.9337,-3.9101,-3.8892,-3.8637,-3.8354,-3.802,-3.7721,-3.7392,-3.6972,-3.6591,-3.6259,-3.5915,-3.5689,-3.5441,-3.5188,-3.4818,-3.4374,-3.3813,-3.3229,-3.292,-3.2769,-3.2508,-3.241,-3.2425,-3.2398,-3.2425,-3.2425,-6.1099,-6.106,-6.075,-6.0441,-5.9996,-5.9223,-5.8865,-5.874,-5.8285,-5.7753,-5.7299,-5.6932,-5.6487,-5.6119,-5.6003,-5.6003,-5.6003,-5.6003,-5.6012,-5.602,-5.6057,-5.5796,-5.5523,-5.5126,-5.4338,-5.3526,-5.2831,-5.2296,-5.1593,-5.1359,-5.1268,-5.12,-5.1054,-5.0886,-5.0708,-5.0381,-4.9308,-4.7998,-4.685,-4.5724,-4.4696,-4.3892,-4.373,-4.358,-4.3546,-4.3512,-4.3495,-4.3531,-4.2715,-4.1544,-4.1345,-4.0656,-3.9398,-3.9205,-3.9395,-3.9616,-3.9781,-3.9884,-4.0008,-4.0138,-4.0252,-4.0332,-4.0417,-4.043,-4.0411,-4.0454,-4.0515,-4.0547,-4.0602,-4.0655,-4.0694,-4.0745,-4.0738,-4.073,-4.0756,-4.08,-4.0788,-4.0796,-4.0726,-4.064,-4.0519,-4.0392,-4.0243,-4.0109,-3.9994,-3.9911,-3.9792,-3.9647,-3.9452,-3.921,-3.9031,-3.8848,-3.8559,-3.8254,-3.7984,-3.7667,-3.7261,-3.6873,-3.6527,-3.6212,-3.591,-3.5577,-3.5287,-3.4842,-3.4333,-3.3848,-3.3372,-3.3176,-3.3,-3.2742,-3.2551,-3.2621,-3.2594,-3.2468,-3.2468,-6.1051,-6.0905,-6.0132,-5.9291,-5.8449,-5.7715,-5.7321,-5.7119,-5.7166,-5.7174,-5.6972,-5.6362,-5.6044,-5.5977,-5.5977,-5.5977,-5.5977,-5.5986,-5.6005,-5.6003,-5.6012,-5.5706,-5.5134,-5.4682,-5.3819,-5.293,-5.2269,-5.1908,-5.1554,-5.1367,-5.1353,-5.1317,-5.1191,-5.1037,-5.0883,-5.0727,-4.9652,-4.8067,-4.7214,-4.6312,-4.4828,-4.4166,-4.4079,-4.3961,-4.3913,-4.3897,-4.3865,-4.3622,-4.3169,-4.2132,-4.1431,-4.0955,-4.0046,-3.9575,-3.9762,-3.9905,-4.0058,-4.0158,-4.0242,-4.0349,-4.0433,-4.0512,-4.0586,-4.0629,-4.0649,-4.0622,-4.0636,-4.0706,-4.0756,-4.0784,-4.0837,-4.0837,-4.0842,-4.0818,-4.0826,-4.0815,-4.0798,-4.08,-4.0751,-4.0668,-4.0586,-4.0473,-4.0411,-4.0271,-4.0158,-4.0039,-3.9903,-3.9781,-3.9599,-3.935,-3.917,-3.9017,-3.8773,-3.8481,-3.817,-3.7862,-3.7522,-3.7166,-3.6811,-3.6502,-3.6208,-3.5822,-3.5379,-3.4937,-3.4497,-3.405,-3.3642,-3.3398,-3.3176,-3.2962,-3.2827,-3.287,-3.2788,-3.2648,-3.2523,-6.0693,-6.0112,-5.9205,-5.8326,-5.7563,-5.7313,-5.6782,-5.6155,-5.6145,-5.6203,-5.6175,-5.603,-5.5933,-5.5933,-5.5914,-5.5914,-5.5923,-5.5951,-5.5989,-5.5949,-5.5938,-5.5354,-5.4696,-5.4041,-5.3266,-5.2518,-5.191,-5.1577,-5.1442,-5.1384,-5.1398,-5.1362,-5.1273,-5.1176,-5.1037,-5.0852,-4.9791,-4.8126,-4.7539,-4.6503,-4.4906,-4.45,-4.4407,-4.4258,-4.4181,-4.4166,-4.4151,-4.408,-4.3235,-4.2215,-4.2068,-4.1285,-4.0063,-4.0022,-4.0099,-4.0224,-4.0298,-4.0375,-4.0462,-4.053,-4.0607,-4.0681,-4.0744,-4.0796,-4.0812,-4.0765,-4.0771,-4.0839,-4.0888,-4.0907,-4.0921,-4.0936,-4.0927,-4.0888,-4.0873,-4.0848,-4.0807,-4.0784,-4.0742,-4.0707,-4.0641,-4.0598,-4.0543,-4.0436,-4.0334,-4.0206,-4.0058,-3.9922,-3.9792,-3.9606,-3.935,-3.9178,-3.8979,-3.8698,-3.8399,-3.8086,-3.7756,-3.743,-3.7087,-3.6771,-3.6461,-3.5954,-3.5441,-3.5095,-3.4691,-3.43,-3.3899,-3.3513,-3.3293,-3.3192,-3.3085,-3.3085,-3.3005,-3.2839,-3.2703,-6.0151,-5.966,-5.8414,-5.7371,-5.6638,-5.651,-5.6178,-5.5739,-5.5649,-5.5618,-5.566,-5.5754,-5.5816,-5.5806,-5.5816,-5.5806,-5.5816,-5.5876,-5.5885,-5.5866,-5.5459,-5.4809,-5.4127,-5.3367,-5.2484,-5.178,-5.1511,-5.1291,-5.1361,-5.1387,-5.1386,-5.1396,-5.134,-5.1273,-5.1103,-5.0655,-4.9737,-4.8246,-4.7815,-4.6606,-4.5095,-4.4876,-4.4732,-4.4562,-4.4476,-4.4481,-4.4467,-4.4378,-4.3538,-4.2316,-4.1604,-4.1089,-4.031,-4.0253,-4.0325,-4.0425,-4.0516,-4.0549,-4.0655,-4.0719,-4.075,-4.0812,-4.0849,-4.0888,-4.0924,-4.0887,-4.0882,-4.0932,-4.0939,-4.0971,-4.0952,-4.0971,-4.0967,-4.0939,-4.0945,-4.0931,-4.0873,-4.0818,-4.0801,-4.0767,-4.0719,-4.0681,-4.0633,-4.0576,-4.0457,-4.0341,-4.0205,-4.0089,-3.9986,-3.9837,-3.9587,-3.9363,-3.917,-3.8964,-3.8698,-3.8382,-3.8052,-3.7703,-3.7336,-3.6871,-3.644,-3.5954,-3.5487,-3.5211,-3.493,-3.4594,-3.4201,-3.3848,-3.3658,-3.3581,-3.344,-3.3282,-3.3176,-3.3096,-3.2989,-5.935,-5.9095,-5.7559,-5.6468,-5.5812,-5.5626,-5.5527,-5.5468,-5.5389,-5.5345,-5.5333,-5.5527,-5.5618,-5.564,-5.564,-5.564,-5.5662,-5.5695,-5.5745,-5.5535,-5.4979,-5.4351,-5.3528,-5.2636,-5.1892,-5.1426,-5.116,-5.12,-5.1292,-5.1341,-5.1367,-5.1386,-5.1378,-5.136,-5.1023,-5.035,-4.9328,-4.8391,-4.7604,-4.6568,-4.5764,-4.5239,-4.5042,-4.4919,-4.4846,-4.4808,-4.4808,-4.4594,-4.3935,-4.2579,-4.1223,-4.0672,-4.0473,-4.0425,-4.0512,-4.0588,-4.0629,-4.07,-4.0801,-4.0828,-4.0859,-4.09,-4.0917,-4.0961,-4.0993,-4.1007,-4.1,-4.0997,-4.1006,-4.0995,-4.0999,-4.0995,-4.1015,-4.1003,-4.1,-4.0988,-4.0926,-4.0864,-4.0844,-4.0828,-4.0796,-4.0761,-4.0719,-4.0662,-4.0586,-4.0489,-4.0383,-4.0289,-4.0167,-4.0019,-3.981,-3.9604,-3.9433,-3.921,-3.895,-3.8637,-3.8269,-3.7897,-3.7504,-3.6933,-3.6423,-3.6062,-3.5711,-3.5435,-3.5158,-3.4906,-3.4643,-3.4325,-3.4151,-3.3965,-3.3736,-3.3529,-3.3424,-3.3346,-3.3282,-5.797,-5.7324,-5.6257,-5.5681,-5.5488,-5.5376,-5.532,-5.5249,-5.5255,-5.5183,-5.5162,-5.5176,-5.5249,-5.5371,-5.5383,-5.5376,-5.5413,-5.5485,-5.5551,-5.5428,-5.4613,-5.3927,-5.3148,-5.2251,-5.1608,-5.1215,-5.0988,-5.1082,-5.1205,-5.1269,-5.1358,-5.1385,-5.1386,-5.1339,-5.1206,-5.0384,-4.9367,-4.8458,-4.7527,-4.6535,-4.5899,-4.5475,-4.533,-4.5216,-4.5148,-4.5159,-4.5159,-4.5148,-4.4162,-4.2794,-4.1346,-4.0704,-4.053,-4.0602,-4.0675,-4.0736,-4.0751,-4.0815,-4.0906,-4.0952,-4.0968,-4.0977,-4.1013,-4.1053,-4.1074,-4.1068,-4.1068,-4.1072,-4.1064,-4.1069,-4.1067,-4.1078,-4.1075,-4.1058,-4.1046,-4.1032,-4.0968,-4.096,-4.0935,-4.0912,-4.0888,-4.0853,-4.079,-4.075,-4.0726,-4.0621,-4.053,-4.043,-4.0351,-4.0186,-4.0031,-3.9862,-3.9658,-3.9337,-3.9027,-3.877,-3.8446,-3.8085,-3.7667,-3.7071,-3.6591,-3.6276,-3.5993,-3.5728,-3.5526,-3.5281,-3.5024,-3.4763,-3.4513,-3.4291,-3.4,-3.3797,-3.3694,-3.3591,-3.3529]},{"header":{"parameterUnit":"m.s-1","parameterCategory":1,"la1":31.0,"la2":29.5877,"lo1":-88.7671,"lo2":-86.6584,"dy":0.0162,"dx":0.0185,"nx":115,"ny":88,"refTime":"2023-07-31T18:00:00:Z","depth":0,"parameterNumber":3,"parameterNumberName":"V-component_of_WINDS"},"data":[0.0,0.0,0.0,0.0,0.0,0.0,0.0,0.0,0.0,0.0,0.0,0.0,0.0,0.0,0.0,0.0,0.0,0.0,0.0,0.0,0.0,0.0,0.0,0.0,0.0,0.0,0.0,0.0,0.0,0.0,0.0,0.0,0.0,0.0,0.0,0.0,0.0,0.0,0.0,0.0,0.0,0.0,0.0,0.0,0.0,0.0,0.0,0.0,0.0,0.0,0.0,0.0,0.0,0.0,0.0,0.0,0.0,0.0,0.0,0.0,0.0,0.0,0.0,0.0,0.0,0.0,0.0,0.0,0.0,0.0,0.0,0.0,0.0,0.0,0.0,0.0,0.0,0.0,0.0,0.0,0.0,0.0,0.0,0.0,0.0,0.0,0.0,0.0,0.0,0.0,0.0,0.0,0.0,0.0,0.0,0.0,0.0,0.0,0.0,0.0,0.0,0.0,0.0,0.0,0.0,0.0,0.0,0.0,0.0,0.0,0.0,0.0,0.0,0.0,0.0,0.0,0.0,0.0,0.0,0.0,0.0,0.0,0.0,0.0,0.0,0.0,0.0,0.0,0.0,0.0,0.0,0.0,0.0,0.0,0.0,0.0,0.0,0.0,0.0,0.0,0.0,0.0,0.0,0.0,0.0,0.0,0.0,0.0,0.0,0.0,0.0,0.0,0.0,0.0,0.0,0.0,0.0,0.0,0.0,0.0,0.0,0.0,0.0,0.0,0.0,0.0,0.0,0.0,0.0,0.0,0.0,0.0,0.0,0.0,0.0,0.0,0.0,0.0,0.0,0.0,0.0,0.0,0.0,0.0,0.0,0.0,0.0,0.0,0.0,0.0,0.0,0.0,0.0,0.0,0.0,0.0,0.0,0.0,0.0,0.0,0.0,0.0,0.0,0.0,0.0,0.0,0.0,0.0,0.0,0.0,0.0,0.0,0.0,0.0,0.0,0.0,0.0,0.0,0.0,0.0,0.0,0.0,0.0,0.0,0.0,0.0,0.0,0.0,0.0,0.0,0.0,0.0,0.0,0.0,0.0,0.0,0.0,0.0,0.0,0.0,0.0,0.0,0.0,0.0,0.0,0.0,0.0,0.0,0.0,0.0,0.0,0.0,0.0,0.0,0.0,0.0,0.0,0.0,0.0,0.0,0.0,0.0,0.0,0.0,0.0,0.0,0.0,0.0,0.0,0.0,0.0,0.0,0.0,0.0,0.0,0.0,0.0,0.0,0.0,0.0,0.0,0.0,0.0,0.0,0.0,0.0,0.0,0.0,0.0,0.0,0.0,0.0,0.0,0.0,0.0,0.0,0.0,0.0,0.0,0.0,0.0,0.0,0.0,0.0,0.0,0.0,0.0,0.0,0.0,0.0,0.0,0.0,0.0,0.0,0.0,0.0,0.0,0.0,0.0,0.0,0.0,0.0,0.0,0.0,0.0,0.0,0.0,0.0,0.0,0.0,0.0,0.0,0.0,0.0,0.0,0.0,0.0,0.0,0.0,0.0,0.0,0.0,0.0,0.0,0.0,0.0,0.0,0.0,0.0,0.0,0.0,0.0,0.0,0.0,0.0,0.0,0.0,0.0,0.0,0.0,0.0,0.0,0.0,0.0,0.0,0.0,0.0,0.0,0.0,0.0,0.0,0.0,0.0,0.0,0.0,0.0,0.0,0.0,0.0,0.0,0.0,0.0,0.0,0.0,0.0,0.0,0.0,0.0,0.0,0.0,0.0,0.0,0.0,0.0,0.0,0.0,0.0,0.0,0.0,0.0,0.0,0.0,0.0,0.0,0.0,0.0,0.0,0.0,0.0,0.0,0.0,0.0,0.0,0.0,0.0,0.0,0.0,0.0,0.0,0.0,0.0,0.0,0.0,0.0,0.0,0.0,0.0,0.0,0.0,0.0,0.0,0.0,0.0,0.0,0.0,0.0,0.0,0.0,0.0,0.0,0.0,0.0,0.0,0.0,0.0,0.0,0.0,0.0,0.0,0.0,0.0,0.0,0.0,0.0,0.0,0.0,0.0,0.0,0.0,0.0,0.0,0.0,0.0,0.0,0.0,0.0,0.0,0.0,0.0,0.0,0.0,0.0,0.0,0.0,0.0,0.0,0.0,0.0,0.0,0.0,0.0,0.0,0.0,0.0,0.0,0.0,0.0,0.0,0.0,0.0,0.0,0.0,0.0,0.0,0.0,0.0,0.0,0.0,0.0,0.0,0.0,0.0,0.0,0.0,0.0,0.0,0.0,0.0,0.0,0.0,0.0,0.0,0.0,0.0,0.0,0.0,0.0,0.0,0.0,0.0,0.0,0.0,0.0,0.0,0.0,0.0,0.0,0.0,0.0,0.0,0.0,0.0,0.0,0.0,0.0,0.0,0.0,0.0,0.0,0.0,0.0,0.0,0.0,0.0,0.0,0.0,0.0,0.0,0.0,0.0,0.0,0.0,0.0,0.0,0.0,0.0,0.0,0.0,0.0,0.0,0.0,0.0,0.0,0.0,0.0,0.0,0.0,0.0,0.0,0.0,0.0,0.0,0.0,0.0,0.0,0.0,0.0,0.0,0.0,0.0,0.0,0.0,0.0,0.0,0.0,0.0,0.0,0.0,0.0,0.0,0.0,0.0,0.0,0.0,0.0,0.0,0.0,0.0,0.0,0.0,0.0,0.0,0.0,0.0,0.0,0.0,0.0,0.0,0.0,0.0,0.0,0.0,0.0,0.0,0.0,0.0,0.0,0.0,0.0,0.0,0.0,0.0,0.0,0.0,0.0,0.0,0.0,0.0,0.0,0.0,0.0,0.0,0.0,0.0,0.0,0.0,0.0,0.0,0.0,0.0,0.0,0.0,0.0,0.0,0.0,0.0,0.0,0.0,0.0,0.0,0.0,0.0,0.0,0.0,0.0,0.0,0.0,0.0,0.0,0.0,0.0,0.0,0.0,0.0,0.0,0.0,0.0,0.0,0.0,0.0,0.0,0.0,0.0,0.0,0.0,0.0,0.0,0.0,0.0,0.0,0.0,0.0,0.0,0.0,0.0,0.0,0.0,0.0,0.0,0.0,0.0,0.0,0.0,0.0,0.0,0.0,0.0,0.0,0.0,0.0,0.0,0.0,0.0,0.0,0.0,0.0,0.0,0.0,0.0,0.0,0.0,0.0,0.0,0.0,0.0,0.0,0.0,0.0,0.0,0.0,0.0,0.0,0.0,0.0,0.0,0.0,0.0,0.0,0.0,0.0,0.0,0.0,0.0,0.0,0.0,0.0,0.0,0.0,0.0,0.0,0.0,0.0,0.0,0.0,0.0,0.0,0.0,0.0,0.0,0.0,0.0,0.0,0.0,0.0,0.0,0.0,0.0,0.0,0.0,0.0,0.0,0.0,0.0,0.0,0.0,0.0,0.0,0.0,0.0,0.0,0.0,0.0,0.0,0.0,0.0,0.0,0.0,0.0,0.0,0.0,0.0,0.0,0.0,0.0,0.0,0.0,0.0,0.0,0.0,0.0,0.0,0.0,0.0,0.0,0.0,0.0,0.0,0.0,0.0,0.0,0.0,0.0,0.0,0.0,0.0,0.0,0.0,0.0,0.0,0.0,0.0,0.0,0.0,0.0,0.0,0.0,0.0,0.0,0.0,0.0,0.0,0.0,0.0,0.0,0.0,0.0,0.0,0.0,0.0,0.0,0.0,0.0,0.0,0.0,0.0,0.0,0.0,0.0,0.0,0.0,0.0,0.0,0.0,0.0,0.0,0.0,0.0,0.0,0.0,0.0,0.0,0.0,0.0,0.0,0.0,0.0,0.0,0.0,0.0,0.0,0.0,0.0,0.0,0.0,0.0,0.0,0.0,0.0,0.0,0.0,0.0,0.0,0.0,0.0,0.0,0.0,0.0,0.0,0.0,0.0,0.0,0.0,0.0,0.0,0.0,0.0,0.0,0.0,0.0,0.0,0.0,0.0,0.0,0.0,0.0,0.0,0.0,0.0,0.0,0.0,0.0,0.0,0.0,0.0,0.0,0.0,0.0,0.0,0.0,0.0,0.0,0.0,0.0,0.0,0.0,0.0,0.0,0.0,0.0,0.0,0.0,0.0,0.0,0.0,0.0,0.0,0.0,0.0,0.0,0.0,0.0,0.0,0.0,0.0,0.0,0.0,0.0,0.0,0.0,0.0,0.0,0.0,0.0,0.0,0.0,0.0,0.0,0.0,0.0,0.0,0.0,0.0,0.0,0.0,0.0,0.0,0.0,0.0,0.0,0.0,0.0,0.0,0.0,0.0,0.0,0.0,-1.0437,0.0,0.0,0.0,0.0,0.0,0.0,0.0,0.0,0.0,0.0,0.0,0.0,0.0,0.0,0.0,0.0,0.0,0.0,0.0,0.0,0.0,0.0,0.0,0.0,0.0,0.0,0.0,0.0,0.0,0.0,0.0,0.0,0.0,0.0,0.0,0.0,0.0,0.0,0.0,0.0,0.0,0.0,0.0,0.0,0.0,0.0,0.0,0.0,0.0,0.0,0.0,0.0,0.0,0.0,0.0,0.0,0.0,0.0,0.0,0.0,0.0,0.0,0.0,0.0,0.0,0.0,0.0,0.0,0.0,0.0,0.0,0.0,0.0,0.0,0.0,0.0,0.0,0.0,0.0,0.0,0.0,0.0,0.0,0.0,0.0,0.0,0.0,0.0,0.0,0.0,0.0,0.0,0.0,0.0,0.0,0.0,0.0,0.0,0.0,0.0,0.0,0.0,0.0,0.0,0.0,0.0,0.0,0.0,0.0,0.0,-1.1037,-1.052,-1.0496,-1.0496,-1.0504,0.0,0.0,0.0,0.0,0.0,0.0,0.0,0.0,0.0,0.0,0.0,0.0,0.0,0.0,0.0,0.0,0.0,0.0,0.0,0.0,0.0,0.0,0.0,0.0,0.0,0.0,0.0,0.0,0.0,0.0,0.0,0.0,0.0,0.0,0.0,0.0,0.0,0.0,0.0,0.0,0.0,0.0,0.0,0.0,0.0,0.0,0.0,0.0,0.0,0.0,0.0,0.0,0.0,0.0,0.0,0.0,0.0,0.0,0.0,0.0,0.0,0.0,0.0,0.0,0.0,0.0,0.0,0.0,0.0,0.0,0.0,0.0,0.0,0.0,0.0,0.0,0.0,0.0,0.0,0.0,0.0,0.0,0.0,0.0,0.0,0.0,0.0,0.0,0.0,0.0,0.0,0.0,0.0,0.0,0.0,0.0,0.0,0.0,0.0,0.0,0.0,0.0,0.0,0.0,0.0,0.0,0.0,0.0,0.0,0.0,0.0,0.0,-1.0536,-1.0496,-1.0512,0.0,0.0,0.0,0.0,0.0,0.0,0.0,0.0,0.0,0.0,0.0,0.0,0.0,0.0,0.0,0.0,0.0,0.0,0.0,0.0,0.0,0.0,0.0,0.0,0.0,0.0,0.0,0.0,0.0,0.0,0.0,0.0,0.0,0.0,0.0,0.0,0.0,0.0,0.0,0.0,0.0,0.0,0.0,0.0,0.0,0.0,0.0,0.0,0.0,0.0,0.0,0.0,0.0,0.0,0.0,0.0,0.0,0.0,0.0,0.0,0.0,0.0,0.0,0.0,0.0,0.0,0.0,0.0,0.0,0.0,0.0,0.0,0.0,0.0,0.0,0.0,0.0,0.0,0.0,0.0,0.0,0.0,0.0,0.0,0.0,0.0,0.0,0.0,0.0,0.0,0.0,0.0,0.0,0.0,0.0,0.0,0.0,0.0,0.0,0.0,0.0,0.0,0.0,0.0,0.0,0.0,0.0,0.0,0.0,0.0,-1.1312,-1.0955,-1.0663,0.0,-1.0536,0.0,0.0,0.0,0.0,0.0,0.0,0.0,0.0,0.0,0.0,0.0,0.0,0.0,0.0,0.0,0.0,0.0,0.0,0.0,0.0,0.0,0.0,0.0,0.0,0.0,0.0,0.0,0.0,0.0,0.0,0.0,0.0,0.0,0.0,0.0,0.0,0.0,0.0,0.0,0.0,0.0,0.0,0.0,0.0,0.0,0.0,0.0,0.0,0.0,0.0,0.0,0.0,0.0,0.0,0.0,0.0,0.0,0.0,0.0,0.0,0.0,0.0,0.0,0.0,0.0,0.0,0.0,0.0,0.0,0.0,0.0,0.0,0.0,0.0,0.0,0.0,0.0,0.0,0.0,0.0,0.0,0.0,0.0,0.0,0.0,0.0,0.0,0.0,0.0,0.0,0.0,0.0,0.0,0.0,0.0,0.0,0.0,0.0,0.0,0.0,0.0,0.0,0.0,0.0,0.0,0.0,0.0,0.0,0.0,0.0,-1.1825,-1.1245,-1.0913,-1.0718,0.0,0.0,0.0,0.0,0.0,0.0,0.0,0.0,0.0,0.0,0.0,0.0,0.0,0.0,0.0,0.0,0.0,0.0,0.0,0.0,0.0,0.0,0.0,0.0,0.0,0.0,0.0,0.0,0.0,0.0,0.0,0.0,0.0,0.0,0.0,0.0,0.0,0.0,0.0,0.0,0.0,0.0,0.0,0.0,0.0,0.0,0.0,0.0,0.0,0.0,0.0,0.0,0.0,0.0,0.0,0.0,0.0,0.0,0.0,0.0,0.0,0.0,0.0,0.0,0.0,0.0,0.0,0.0,0.0,0.0,0.0,0.0,0.0,0.0,0.0,0.0,0.0,0.0,0.0,0.0,0.0,0.0,0.0,0.0,0.0,0.0,0.0,0.0,0.0,0.0,0.0,0.0,0.0,0.0,0.0,0.0,0.0,0.0,0.0,0.0,0.0,0.0,0.0,0.0,0.0,0.0,0.0,0.0,0.0,0.0,-1.2555,-1.22,-1.1589,-1.1209,-1.1045,-1.1053,0.0,0.0,0.0,0.0,0.0,0.0,0.0,0.0,0.0,0.0,0.0,0.0,0.0,0.0,0.0,0.0,0.0,0.0,0.0,0.0,0.0,0.0,0.0,0.0,0.0,0.0,0.0,0.0,0.0,0.0,0.0,0.0,0.0,0.0,0.0,0.0,0.0,0.0,0.0,0.0,0.0,0.0,0.0,0.0,0.0,0.0,0.0,0.0,0.0,0.0,0.0,0.0,0.0,0.0,0.0,0.0,0.0,0.0,0.0,0.0,0.0,0.0,0.0,0.0,0.0,0.0,0.0,0.0,0.0,0.0,0.0,0.0,0.0,0.0,0.0,0.0,0.0,0.0,0.0,0.0,0.0,0.0,0.0,0.0,0.0,0.0,0.0,0.0,0.0,0.0,0.0,0.0,0.0,0.0,0.0,0.0,0.0,0.0,0.0,0.0,0.0,0.0,0.0,0.0,0.0,0.0,0.0,0.0,-1.2978,-1.2679,-1.2315,-1.1964,-1.1581,-1.1372,0.0,0.0,0.0,0.0,0.0,0.0,0.0,0.0,0.0,0.0,0.0,0.0,0.0,0.0,0.0,0.0,0.0,0.0,0.0,0.0,0.0,0.0,0.0,0.0,0.0,0.0,0.0,0.0,0.0,0.0,0.0,0.0,0.0,0.0,0.0,0.0,0.0,0.0,0.0,0.0,0.0,0.0,0.0,0.0,0.0,0.0,0.0,0.0,0.0,0.0,0.0,0.0,0.0,0.0,0.0,0.0,0.0,0.0,0.0,0.0,0.0,0.0,0.0,0.0,0.0,0.0,0.0,0.0,0.0,0.0,0.0,0.0,0.0,0.0,0.0,0.0,0.0,0.0,0.0,0.0,0.0,0.0,0.0,0.0,0.0,0.0,0.0,0.0,0.0,0.0,0.0,0.0,0.0,0.0,0.0,0.0,0.0,0.0,0.0,0.0,0.0,0.0,0.0,0.0,0.0,0.0,0.0,0.0,0.0,-1.3321,-1.3021,-1.2758,-1.2623,-1.2259,-1.2028,0.0,0.0,0.0,0.0,0.0,0.0,0.0,0.0,0.0,0.0,0.0,0.0,0.0,0.0,0.0,0.0,0.0,0.0,0.0,0.0,0.0,0.0,0.0,0.0,0.0,0.0,0.0,0.0,0.0,0.0,0.0,0.0,0.0,0.0,0.0,0.0,0.0,0.0,0.0,0.0,0.0,0.0,0.0,0.0,0.0,0.0,0.0,0.0,0.0,0.0,0.0,0.0,0.0,0.0,0.0,0.0,0.0,0.0,0.0,0.0,0.0,0.0,0.0,0.0,0.0,0.0,0.0,0.0,0.0,0.0,0.0,0.0,0.0,0.0,0.0,0.0,0.0,0.0,0.0,0.0,0.0,0.0,0.0,0.0,0.0,0.0,0.0,0.0,0.0,0.0,0.0,0.0,0.0,0.0,0.0,0.0,0.0,0.0,0.0,0.0,0.0,0.0,0.0,0.0,0.0,0.0,0.0,0.0,0.0,-1.3502,0.0,-1.3181,-1.3172,-1.2783,-1.2586,0.0,0.0,0.0,0.0,0.0,0.0,0.0,0.0,0.0,0.0,0.0,0.0,0.0,0.0,0.0,0.0,0.0,0.0,0.0,0.0,0.0,0.0,0.0,0.0,0.0,0.0,0.0,0.0,0.0,0.0,0.0,0.0,0.0,0.0,0.0,0.0,0.0,0.0,0.0,0.0,0.0,0.0,0.0,0.0,0.0,0.0,0.0,0.0,0.0,0.0,0.0,0.0,0.0,0.0,0.0,0.0,0.0,0.0,0.0,0.0,0.0,0.0,0.0,0.0,0.0,0.0,0.0,0.0,0.0,0.0,0.0,0.0,0.0,0.0,0.0,0.0,0.0,0.0,0.0,0.0,0.0,0.0,0.0,0.0,0.0,0.0,0.0,0.0,0.0,0.0,0.0,0.0,0.0,0.0,0.0,0.0,0.0,0.0,0.0,0.0,0.0,0.0,0.0,0.0,0.0,0.0,0.0,0.0,-1.3528,-1.3519,-1.3519,-1.3519,-1.3511,-1.3185,-1.3026,0.0,0.0,0.0,0.0,0.0,0.0,0.0,0.0,0.0,0.0,0.0,0.0,0.0,0.0,0.0,0.0,0.0,0.0,0.0,0.0,0.0,0.0,0.0,0.0,0.0,0.0,0.0,0.0,0.0,0.0,0.0,0.0,0.0,0.0,0.0,0.0,0.0,0.0,0.0,0.0,0.0,0.0,0.0,0.0,0.0,0.0,0.0,0.0,0.0,0.0,0.0,0.0,0.0,0.0,0.0,0.0,0.0,0.0,0.0,0.0,0.0,0.0,0.0,0.0,0.0,0.0,0.0,0.0,0.0,0.0,0.0,0.0,0.0,0.0,0.0,0.0,0.0,0.0,0.0,0.0,0.0,0.0,0.0,0.0,0.0,0.0,0.0,0.0,0.0,0.0,0.0,0.0,0.0,0.0,0.0,0.0,0.0,0.0,0.0,0.0,0.0,0.0,0.0,0.0,0.0,0.0,0.0,0.0,0.0,-1.3913,-1.3913,-1.3913,-1.3905,-1.3802,-1.3622,0.0,0.0,0.0,0.0,0.0,0.0,0.0,0.0,0.0,0.0,0.0,0.0,0.0,0.0,0.0,0.0,0.0,0.0,0.0,0.0,0.0,0.0,0.0,0.0,0.0,0.0,0.0,0.0,0.0,0.0,0.0,0.0,0.0,0.0,0.0,0.0,0.0,0.0,0.0,0.0,0.0,0.0,0.0,0.0,0.0,0.0,0.0,0.0,0.0,0.0,0.0,0.0,0.0,0.0,0.0,0.0,0.0,0.0,0.0,0.0,0.0,0.0,0.0,0.0,0.0,0.0,0.0,0.0,0.0,0.0,0.0,0.0,0.0,0.0,0.0,0.0,0.0,0.0,0.0,0.0,0.0,0.0,0.0,0.0,0.0,0.0,0.0,0.0,0.0,0.0,0.0,0.0,0.0,0.0,0.0,0.0,0.0,0.0,0.0,0.0,0.0,0.0,0.0,0.0,0.0,0.0,0.0,0.0,0.0,-1.4701,-1.4461,-1.4316,-1.4316,-1.417,-1.3982,-1.3742,0.0,0.0,0.0,0.0,0.0,0.0,0.0,0.0,0.0,0.0,0.0,0.0,0.0,0.0,0.0,0.0,0.0,0.0,0.0,0.0,0.0,0.0,0.0,0.0,0.0,0.0,0.0,0.0,0.0,0.0,0.0,0.0,0.0,0.0,0.0,0.0,0.0,0.0,0.0,0.0,0.0,0.0,0.0,0.0,0.0,0.0,0.0,0.0,0.0,0.0,0.0,0.0,0.0,0.0,0.0,0.0,0.0,0.0,0.0,0.0,0.0,0.0,0.0,0.0,0.0,0.0,0.0,0.0,0.0,0.0,0.0,0.0,0.0,0.0,0.0,0.0,0.0,0.0,0.0,0.0,0.0,0.0,0.0,0.0,0.0,0.0,0.0,0.0,0.0,0.0,0.0,0.0,0.0,0.0,0.0,0.0,0.0,0.0,0.0,0.0,0.0,0.0,0.0,0.0,0.0,0.0,0.0,0.0,-1.5788,-1.5129,-1.4811,-1.4744,-1.4375,-1.4136,0.0,0.0,0.0,0.0,0.0,0.0,0.0,0.0,0.0,0.0,0.0,0.0,0.0,0.0,0.0,0.0,0.0,0.0,0.0,0.0,0.0,0.0,0.0,0.0,0.0,0.0,0.0,0.0,0.0,0.0,0.0,0.0,0.0,0.0,0.0,0.0,0.0,0.0,0.0,0.0,0.0,0.0,0.0,0.0,0.0,0.0,0.0,0.0,0.0,0.0,0.0,0.0,0.0,0.0,0.0,0.0,0.0,0.0,0.0,0.0,0.0,0.0,0.0,0.0,0.0,0.0,0.0,0.0,0.0,0.0,0.0,0.0,0.0,0.0,0.0,0.0,0.0,0.0,0.0,0.0,0.0,0.0,0.0,0.0,0.0,0.0,0.0,0.0,0.0,0.0,0.0,0.0,0.0,0.0,0.0,0.0,0.0,0.0,0.0,0.0,0.0,0.0,0.0,0.0,0.0,0.0,0.0,0.0,0.0,-1.5762,-1.583,-1.5736,-1.5514,-1.5129,-1.4658,0.0,0.0,0.0,0.0,0.0,0.0,0.0,0.0,0.0,0.0,0.0,0.0,0.0,0.0,0.0,0.0,0.0,0.0,0.0,0.0,0.0,0.0,0.0,0.0,0.0,0.0,0.0,0.0,0.0,0.0,0.0,0.0,0.0,0.0,0.0,0.0,0.0,0.0,0.0,0.0,0.0,0.0,0.0,0.0,0.0,0.0,0.0,0.0,0.0,0.0,0.0,0.0,0.0,0.0,0.0,0.0,0.0,0.0,0.0,0.0,0.0,0.0,0.0,0.0,0.0,0.0,0.0,0.0,0.0,0.0,0.0,0.0,0.0,0.0,0.0,0.0,0.0,0.0,0.0,0.0,0.0,0.0,0.0,0.0,0.0,0.0,0.0,0.0,0.0,0.0,0.0,0.0,0.0,0.0,0.0,0.0,0.0,0.0,0.0,0.0,0.0,0.0,0.0,0.0,0.0,0.0,0.0,0.0,-1.5514,-1.6251,-1.6436,-1.6445,-1.6276,-1.5745,-1.5112,0.0,0.0,0.0,0.0,0.0,0.0,0.0,0.0,0.0,0.0,0.0,0.0,0.0,0.0,0.0,0.0,0.0,0.0,0.0,0.0,0.0,0.0,0.0,0.0,0.0,0.0,0.0,0.0,0.0,0.0,0.0,0.0,0.0,0.0,0.0,0.0,0.0,0.0,0.0,0.0,0.0,0.0,0.0,0.0,0.0,0.0,0.0,0.0,0.0,0.0,0.0,0.0,0.0,0.0,0.0,0.0,0.0,0.0,0.0,0.0,0.0,0.0,0.0,0.0,0.0,0.0,0.0,0.0,0.0,0.0,0.0,0.0,0.0,0.0,0.0,0.0,0.0,0.0,0.0,0.0,0.0,0.0,0.0,0.0,0.0,0.0,0.0,0.0,0.0,0.0,0.0,0.0,0.0,0.0,0.0,0.0,0.0,0.0,0.0,0.0,0.0,0.0,0.0,0.0,0.0,0.0,0.0,0.0,-1.6165,-1.6893,-1.6961,-1.697,-1.6915,-1.6251,-1.5489,0.0,0.0,0.0,0.0,0.0,0.0,0.0,0.0,0.0,0.0,0.0,0.0,0.0,0.0,0.0,0.0,0.0,0.0,0.0,0.0,0.0,0.0,0.0,0.0,0.0,0.0,0.0,0.0,0.0,0.0,0.0,0.0,0.0,0.0,0.0,0.0,0.0,0.0,0.0,0.0,0.0,0.0,0.0,0.0,0.0,0.0,0.0,0.0,0.0,0.0,0.0,0.0,0.0,0.0,0.0,0.0,0.0,0.0,0.0,0.0,0.0,0.0,0.0,0.0,0.0,0.0,0.0,0.0,0.0,0.0,0.0,0.0,0.0,0.0,0.0,0.0,0.0,0.0,0.0,0.0,0.0,0.0,0.0,0.0,0.0,0.0,0.0,0.0,0.0,0.0,0.0,0.0,0.0,0.0,0.0,0.0,0.0,0.0,0.0,0.0,0.0,0.0,0.0,0.0,0.0,0.0,0.0,0.0,-1.6165,-1.6863,-1.7201,-1.7355,-1.7385,-1.6656,-1.5789,0.0,0.0,0.0,0.0,0.0,0.0,0.0,0.0,0.0,0.0,0.0,0.0,0.0,0.0,0.0,0.0,0.0,0.0,0.0,0.0,0.0,0.0,0.0,0.0,0.0,0.0,0.0,0.0,0.0,0.0,0.0,0.0,0.0,0.0,0.0,0.0,0.0,0.0,0.0,0.0,0.0,0.0,0.0,0.0,0.0,0.0,0.0,0.0,-1.9058,0.0,0.0,0.0,0.0,0.0,0.0,0.0,0.0,0.0,0.0,0.0,0.0,0.0,0.0,0.0,0.0,0.0,0.0,0.0,0.0,0.0,0.0,0.0,0.0,0.0,0.0,0.0,0.0,0.0,0.0,0.0,0.0,0.0,0.0,0.0,0.0,0.0,0.0,0.0,0.0,0.0,0.0,0.0,0.0,0.0,0.0,0.0,0.0,0.0,0.0,0.0,0.0,0.0,0.0,0.0,0.0,0.0,0.0,0.0,-1.661,-1.7158,-1.7543,-1.7655,-1.7497,-1.6918,-1.621,0.0,0.0,0.0,0.0,0.0,0.0,0.0,0.0,0.0,0.0,0.0,0.0,0.0,0.0,0.0,0.0,0.0,0.0,0.0,0.0,0.0,0.0,0.0,0.0,0.0,0.0,0.0,0.0,0.0,0.0,0.0,0.0,0.0,0.0,0.0,0.0,0.0,0.0,0.0,0.0,0.0,0.0,0.0,0.0,0.0,0.0,0.0,0.0,0.0,0.0,0.0,0.0,0.0,0.0,0.0,0.0,0.0,0.0,0.0,0.0,0.0,0.0,0.0,0.0,0.0,0.0,0.0,0.0,0.0,0.0,0.0,0.0,0.0,0.0,0.0,0.0,0.0,0.0,0.0,0.0,0.0,0.0,0.0,0.0,0.0,0.0,0.0,0.0,0.0,0.0,0.0,0.0,0.0,0.0,0.0,0.0,0.0,0.0,0.0,0.0,0.0,0.0,0.0,0.0,0.0,0.0,0.0,-1.637,-1.7098,-1.7505,-1.7843,-1.7877,-1.756,-1.7141,-1.6584,-1.5908,0.0,0.0,0.0,0.0,0.0,0.0,0.0,0.0,0.0,0.0,0.0,0.0,0.0,0.0,0.0,0.0,0.0,0.0,0.0,0.0,0.0,0.0,0.0,0.0,0.0,0.0,0.0,0.0,0.0,0.0,0.0,0.0,0.0,0.0,0.0,0.0,0.0,0.0,-1.9948,-2.0394,0.0,0.0,0.0,0.0,0.0,0.0,0.0,0.0,-2.0339,0.0,0.0,0.0,0.0,0.0,0.0,0.0,0.0,0.0,0.0,0.0,0.0,0.0,0.0,0.0,0.0,0.0,0.0,0.0,0.0,0.0,0.0,0.0,0.0,0.0,0.0,0.0,0.0,0.0,0.0,0.0,0.0,0.0,0.0,0.0,0.0,0.0,0.0,0.0,0.0,0.0,0.0,0.0,0.0,0.0,0.0,0.0,0.0,0.0,0.0,0.0,0.0,0.0,0.0,0.0,0.0,-1.5703,-1.647,-1.7107,-1.7505,-1.7843,-1.7965,-1.7889,-1.7287,-1.6713,-1.6197,0.0,0.0,0.0,0.0,0.0,0.0,0.0,0.0,0.0,0.0,0.0,0.0,0.0,0.0,0.0,0.0,0.0,0.0,0.0,0.0,0.0,0.0,0.0,0.0,0.0,0.0,0.0,0.0,0.0,0.0,0.0,0.0,0.0,0.0,0.0,0.0,0.0,0.0,0.0,-2.2076,-2.2136,0.0,0.0,0.0,0.0,0.0,0.0,0.0,0.0,-2.0138,0.0,0.0,0.0,0.0,0.0,0.0,0.0,0.0,0.0,0.0,0.0,0.0,0.0,0.0,0.0,0.0,0.0,0.0,0.0,0.0,0.0,0.0,0.0,0.0,0.0,0.0,0.0,0.0,0.0,0.0,0.0,0.0,0.0,0.0,0.0,0.0,0.0,0.0,0.0,0.0,0.0,0.0,0.0,0.0,0.0,0.0,0.0,0.0,0.0,0.0,0.0,0.0,0.0,0.0,0.0,-1.6018,-1.6599,-1.7154,-1.774,-1.7906,-1.7991,-1.7983,-1.7273,-1.6607,0.0,0.0,0.0,0.0,0.0,0.0,0.0,0.0,0.0,0.0,0.0,0.0,0.0,0.0,0.0,0.0,0.0,0.0,0.0,0.0,0.0,0.0,0.0,0.0,0.0,0.0,0.0,0.0,0.0,0.0,0.0,0.0,0.0,0.0,0.0,0.0,0.0,0.0,0.0,0.0,-2.2617,-2.2649,-2.3053,0.0,0.0,0.0,0.0,0.0,0.0,-2.1483,-2.0742,0.0,0.0,0.0,0.0,0.0,0.0,0.0,0.0,0.0,0.0,0.0,0.0,0.0,0.0,0.0,0.0,0.0,0.0,0.0,0.0,0.0,0.0,0.0,0.0,0.0,0.0,0.0,0.0,0.0,0.0,0.0,0.0,0.0,0.0,0.0,0.0,0.0,0.0,0.0,0.0,0.0,0.0,0.0,0.0,0.0,0.0,0.0,0.0,0.0,0.0,0.0,0.0,0.0,0.0,0.0,-1.634,-1.6795,-1.7316,-1.7957,-1.7991,-1.7991,-1.7983,-1.7273,-1.6567,0.0,0.0,0.0,0.0,0.0,0.0,0.0,0.0,0.0,0.0,0.0,0.0,0.0,0.0,0.0,0.0,0.0,0.0,0.0,0.0,0.0,0.0,0.0,0.0,0.0,0.0,0.0,0.0,0.0,0.0,0.0,0.0,0.0,0.0,0.0,0.0,0.0,0.0,0.0,0.0,0.0,-2.3034,-2.3445,-2.2977,0.0,0.0,0.0,0.0,-2.2472,-2.192,0.0,0.0,0.0,0.0,0.0,0.0,0.0,0.0,0.0,0.0,0.0,0.0,0.0,0.0,0.0,0.0,0.0,0.0,0.0,0.0,0.0,0.0,0.0,0.0,0.0,0.0,0.0,0.0,0.0,0.0,0.0,0.0,0.0,0.0,0.0,0.0,0.0,0.0,0.0,0.0,0.0,0.0,0.0,0.0,0.0,0.0,0.0,0.0,0.0,0.0,0.0,0.0,0.0,0.0,0.0,0.0,-1.6535,-1.7132,-1.7603,-1.7974,-1.7991,-1.7991,-1.7983,-1.7273,-1.6576,0.0,0.0,0.0,0.0,0.0,0.0,0.0,0.0,0.0,0.0,0.0,0.0,0.0,0.0,0.0,0.0,0.0,0.0,0.0,0.0,0.0,0.0,0.0,0.0,0.0,0.0,0.0,0.0,0.0,0.0,0.0,0.0,0.0,0.0,0.0,0.0,0.0,0.0,0.0,0.0,0.0,-2.3764,-2.4499,-2.3811,-2.3243,0.0,0.0,0.0,-2.2945,-2.2171,0.0,0.0,0.0,0.0,0.0,0.0,0.0,0.0,0.0,0.0,0.0,0.0,0.0,0.0,0.0,0.0,0.0,0.0,0.0,0.0,0.0,0.0,0.0,0.0,0.0,0.0,0.0,0.0,0.0,0.0,0.0,0.0,0.0,0.0,0.0,0.0,0.0,0.0,0.0,0.0,0.0,0.0,0.0,0.0,0.0,0.0,0.0,0.0,0.0,0.0,0.0,0.0,0.0,0.0,0.0,-1.5204,-1.6565,-1.7093,-1.7545,-1.7974,-1.7991,-1.7991,-1.7991,-1.7265,-1.6567,0.0,0.0,0.0,0.0,0.0,0.0,0.0,0.0,0.0,0.0,0.0,0.0,0.0,0.0,0.0,0.0,0.0,0.0,0.0,0.0,0.0,0.0,0.0,0.0,0.0,0.0,0.0,0.0,0.0,0.0,0.0,0.0,0.0,0.0,0.0,0.0,0.0,0.0,0.0,0.0,0.0,0.0,-2.4518,-2.4063,0.0,0.0,0.0,-2.2832,-2.307,0.0,0.0,0.0,0.0,0.0,0.0,0.0,0.0,0.0,0.0,0.0,0.0,0.0,0.0,0.0,0.0,0.0,0.0,0.0,0.0,0.0,0.0,0.0,0.0,0.0,0.0,0.0,0.0,0.0,0.0,0.0,0.0,0.0,0.0,0.0,0.0,0.0,0.0,0.0,0.0,0.0,0.0,0.0,0.0,0.0,0.0,0.0,0.0,0.0,0.0,0.0,0.0,0.0,0.0,0.0,0.0,0.0,-1.6505,-1.7069,-1.7567,-1.7983,-1.7991,-1.7991,-1.7983,-1.7273,0.0,0.0,0.0,0.0,0.0,0.0,0.0,0.0,0.0,0.0,0.0,0.0,0.0,0.0,0.0,0.0,0.0,0.0,0.0,0.0,0.0,0.0,0.0,0.0,0.0,0.0,0.0,-2.0955,0.0,0.0,0.0,0.0,0.0,0.0,0.0,0.0,0.0,0.0,0.0,0.0,0.0,0.0,-2.3528,-2.4463,-2.4308,-2.4017,0.0,0.0,-2.3333,-2.3321,-2.2309,-2.1333,0.0,0.0,0.0,0.0,0.0,0.0,0.0,0.0,0.0,0.0,0.0,0.0,0.0,0.0,0.0,0.0,0.0,0.0,0.0,0.0,0.0,0.0,0.0,0.0,0.0,0.0,0.0,0.0,0.0,0.0,0.0,0.0,0.0,0.0,0.0,0.0,0.0,0.0,0.0,0.0,0.0,0.0,0.0,0.0,0.0,0.0,0.0,0.0,0.0,0.0,0.0,0.0,0.0,0.0,0.0,-1.6307,-1.7217,-1.7755,-1.7991,-1.7991,-1.7991,-1.7983,-1.7312,-1.6693,0.0,0.0,0.0,0.0,0.0,0.0,0.0,0.0,0.0,0.0,0.0,0.0,0.0,0.0,0.0,0.0,0.0,0.0,0.0,0.0,0.0,0.0,0.0,0.0,0.0,0.0,0.0,0.0,0.0,0.0,0.0,0.0,0.0,0.0,0.0,0.0,0.0,0.0,0.0,0.0,0.0,-2.3635,-2.4724,-2.4749,-2.47,0.0,0.0,-2.3941,-2.3941,-2.2548,-2.1333,-2.0779,0.0,0.0,0.0,0.0,0.0,0.0,0.0,0.0,0.0,0.0,0.0,0.0,0.0,0.0,0.0,0.0,0.0,0.0,0.0,0.0,0.0,0.0,0.0,0.0,0.0,0.0,0.0,0.0,0.0,0.0,0.0,0.0,0.0,0.0,0.0,0.0,0.0,0.0,0.0,0.0,0.0,0.0,0.0,0.0,0.0,0.0,0.0,0.0,0.0,0.0,0.0,0.0,0.0,-1.5267,-1.6315,-1.7092,-1.7668,-1.7991,-1.7991,-1.7991,-1.7991,-1.7535,-1.697,0.0,0.0,0.0,0.0,0.0,0.0,0.0,0.0,0.0,0.0,0.0,0.0,0.0,0.0,0.0,0.0,0.0,0.0,0.0,0.0,0.0,0.0,0.0,0.0,0.0,0.0,0.0,0.0,-2.2769,-2.2786,-2.1996,0.0,0.0,0.0,0.0,0.0,0.0,0.0,0.0,0.0,0.0,-2.3958,-2.4671,-2.454,0.0,0.0,-2.3841,-2.3434,-2.3434,-2.2347,-2.1418,-2.1232,-1.9875,0.0,0.0,0.0,0.0,0.0,0.0,0.0,0.0,0.0,0.0,0.0,0.0,0.0,0.0,0.0,0.0,0.0,0.0,0.0,0.0,0.0,0.0,0.0,0.0,0.0,0.0,0.0,0.0,0.0,0.0,0.0,0.0,0.0,0.0,0.0,0.0,0.0,0.0,0.0,0.0,0.0,0.0,0.0,0.0,0.0,0.0,0.0,0.0,0.0,0.0,0.0,0.0,-1.5056,-1.6117,-1.6972,-1.7554,-1.7919,-1.7959,-1.7991,-1.7983,-1.7672,-1.7218,0.0,0.0,0.0,0.0,0.0,0.0,0.0,0.0,0.0,0.0,0.0,0.0,0.0,0.0,0.0,0.0,0.0,0.0,0.0,0.0,0.0,0.0,0.0,0.0,0.0,0.0,0.0,0.0,-2.285,-2.2635,-2.1686,0.0,0.0,0.0,0.0,0.0,0.0,0.0,0.0,0.0,0.0,-2.394,-2.4468,-2.4351,-2.4198,-2.4217,-2.3735,-2.3308,-2.3133,-2.2209,-2.1443,-2.1267,0.0,0.0,0.0,0.0,0.0,0.0,0.0,0.0,0.0,0.0,0.0,0.0,0.0,0.0,0.0,0.0,0.0,0.0,0.0,0.0,0.0,0.0,0.0,0.0,0.0,0.0,0.0,0.0,0.0,0.0,0.0,0.0,0.0,0.0,0.0,0.0,0.0,0.0,0.0,0.0,0.0,0.0,0.0,0.0,0.0,0.0,0.0,0.0,0.0,0.0,0.0,0.0,0.0,0.0,-1.5712,-1.6821,-1.7505,-1.77,-1.791,-1.7991,-1.7991,-1.7672,-1.7497,-1.7462,0.0,0.0,0.0,0.0,0.0,0.0,0.0,0.0,0.0,0.0,0.0,0.0,0.0,0.0,0.0,0.0,0.0,0.0,0.0,0.0,0.0,0.0,0.0,0.0,0.0,0.0,-2.3289,-2.3029,-2.2416,0.0,0.0,0.0,0.0,0.0,0.0,0.0,0.0,0.0,0.0,-2.328,-2.3466,-2.4137,-2.4196,-2.4324,-2.4695,-2.4305,-2.3766,-2.317,-2.2196,-2.1317,0.0,0.0,0.0,0.0,0.0,0.0,0.0,0.0,0.0,0.0,0.0,0.0,0.0,0.0,0.0,0.0,0.0,0.0,0.0,0.0,0.0,0.0,0.0,0.0,0.0,0.0,0.0,-0.9011,-0.9174,0.0,0.0,0.0,0.0,0.0,0.0,0.0,0.0,0.0,0.0,0.0,-0.8443,-0.8418,0.0,0.0,0.0,0.0,0.0,0.0,0.0,0.0,0.0,0.0,0.0,0.0,-1.4488,-1.5512,-1.6613,-1.7343,-1.77,-1.791,-1.7991,-1.7991,-1.7912,-1.7723,-1.7514,0.0,0.0,0.0,0.0,0.0,0.0,0.0,0.0,0.0,0.0,0.0,0.0,0.0,0.0,0.0,0.0,0.0,0.0,0.0,0.0,0.0,0.0,0.0,0.0,0.0,-2.2658,0.0,0.0,0.0,0.0,0.0,0.0,0.0,0.0,0.0,0.0,0.0,-2.347,-2.3408,-2.3732,-2.4038,-2.4189,-2.4116,-2.4098,0.0,0.0,0.0,0.0,0.0,0.0,0.0,0.0,0.0,0.0,0.0,0.0,0.0,0.0,-1.9339,-1.8741,-1.8568,-1.8542,-1.8678,0.0,0.0,0.0,0.0,0.0,0.0,0.0,0.0,0.0,0.0,0.0,0.0,0.0,0.0,0.0,0.0,-0.8864,0.0,0.0,0.0,0.0,0.0,0.0,0.0,0.0,-0.8507,-0.8404,-0.8376,-0.8336,-0.8492,0.0,-0.9192,-0.9606,0.0,0.0,0.0,0.0,0.0,0.0,0.0,0.0,-1.4164,-1.5011,-1.6285,-1.7139,-1.7497,-1.7829,-1.7991,-1.7991,-1.7951,-1.776,-1.7474,-1.6911,-1.6596,0.0,0.0,0.0,0.0,0.0,0.0,0.0,0.0,0.0,0.0,0.0,0.0,0.0,0.0,0.0,0.0,0.0,0.0,0.0,0.0,0.0,0.0,0.0,-2.3344,0.0,0.0,0.0,0.0,0.0,0.0,0.0,0.0,0.0,-2.2814,-2.3513,-2.3934,-2.3681,-2.3929,-2.4058,-2.3844,0.0,0.0,0.0,0.0,0.0,0.0,0.0,-2.1707,-2.1518,-2.1314,-2.121,-2.1345,-2.1223,-2.1095,-2.1108,0.0,0.0,-1.9923,-1.9681,-1.9649,-1.9731,-1.9646,-1.9636,-1.9952,-2.0144,-2.0425,0.0,0.0,0.0,0.0,0.0,0.0,0.0,0.0,-0.8136,-0.8228,0.0,-0.8644,0.0,0.0,0.0,0.0,0.0,0.0,0.0,0.0,-0.8383,-0.8301,-0.8294,-0.8099,-0.825,-0.8717,-0.9078,-0.9691,-1.0512,-1.0596,0.0,0.0,0.0,0.0,0.0,0.0,-1.3861,-1.4262,-1.585,-1.6812,-1.7098,-1.7668,-1.7991,-1.8,-1.7781,-1.7619,-1.7416,-1.7252,-1.7157,-1.709,-1.6947,0.0,0.0,0.0,0.0,0.0,0.0,0.0,0.0,0.0,0.0,0.0,0.0,0.0,0.0,0.0,0.0,0.0,0.0,0.0,0.0,-2.4515,0.0,0.0,0.0,0.0,0.0,0.0,0.0,0.0,0.0,0.0,-2.4055,-2.4372,-2.4463,-2.4147,0.0,0.0,0.0,0.0,-2.3108,-2.312,-2.3095,-2.292,-2.2393,-2.2334,-2.2171,-2.1681,0.0,0.0,-2.1931,-2.1946,-2.1959,-2.1946,-2.1973,-2.1834,-2.1455,-2.1315,-2.1339,-2.157,-2.1576,-2.1648,-2.1587,-2.1769,-2.2069,-0.529,0.0,0.0,0.0,0.0,-0.7841,-0.8056,-0.819,-0.8327,-0.8425,-0.8453,-0.8438,0.0,0.0,0.0,0.0,0.0,0.0,-0.8387,-0.8287,-0.824,-0.8197,-0.8098,-0.79,-0.8208,-0.8859,-0.9367,-1.0126,-1.1084,-1.1425,-1.1587,-1.157,0.0,0.0,0.0,0.0,-1.3459,-1.4292,-1.5721,-1.6689,-1.7098,-1.7716,-1.7951,-1.7789,-1.7587,-1.7473,-1.7392,-1.7382,-1.7428,-1.76,-1.7507,0.0,0.0,0.0,0.0,0.0,0.0,0.0,0.0,0.0,0.0,0.0,0.0,0.0,0.0,0.0,0.0,0.0,0.0,0.0,-2.4575,-2.5292,-2.5201,0.0,0.0,0.0,0.0,0.0,0.0,0.0,0.0,0.0,-2.4905,-2.4625,-2.4276,0.0,0.0,-2.348,-2.3138,-2.3095,-2.3095,-2.3095,0.0,0.0,0.0,-2.2869,-2.2957,-2.3238,-2.3397,-2.3378,-2.3014,-2.3067,-2.3125,-2.3112,-2.3112,-2.3147,-2.3251,-2.2375,-2.1684,-2.1678,-2.1923,-2.2254,-2.2615,-2.3217,-2.3966,-0.4926,-0.5877,-0.6585,-0.713,-0.7599,-0.8066,-0.828,-0.8332,-0.8432,-0.8528,-0.8514,-0.8456,-0.8401,-0.8327,-0.8375,0.0,0.0,0.0,-0.8259,-0.8215,-0.8126,-0.8101,-0.7978,-0.7943,-0.8293,-0.9016,-0.9599,-1.0473,-1.1598,-1.1954,-1.2213,-1.2278,0.0,0.0,-1.2037,-1.2648,-1.3353,-1.4069,-1.552,-1.6476,-1.6804,-1.7424,-1.7668,-1.7456,-1.7261,-1.7106,-1.7147,-1.7221,-1.7454,-1.7873,-1.8024,-1.8184,0.0,0.0,0.0,0.0,0.0,0.0,0.0,0.0,0.0,0.0,0.0,-2.0009,0.0,0.0,0.0,0.0,-2.4158,-2.5297,-2.5791,-2.6253,0.0,0.0,0.0,0.0,0.0,0.0,0.0,-2.4942,-2.4772,-2.4838,-2.5461,-2.5096,-2.4693,-2.449,-2.4264,-2.405,-2.3803,0.0,-2.3772,-2.376,-2.3772,-2.3772,-2.3772,-2.3772,-2.3929,-2.4236,-2.4394,-2.4343,-2.4059,-2.3867,-2.3839,-2.4004,-2.3903,-2.391,-2.4343,-2.3599,-2.293,-2.293,-2.3122,-2.3384,-2.3722,-2.4347,-2.5003,-0.4501,-0.5571,-0.6456,-0.7231,-0.7817,-0.8142,-0.8381,-0.8499,-0.8499,-0.8503,-0.8538,-0.855,-0.8505,-0.8404,-0.8357,0.0,0.0,-0.8224,-0.8191,-0.8184,-0.8076,-0.7988,-0.7988,-0.8038,-0.8435,-0.9229,-0.9789,-1.0739,-1.1984,-1.2326,-1.2671,-1.3059,-1.2551,-1.2166,-1.2039,-1.2864,-1.3443,-1.3743,-1.533,-1.6221,-1.6476,-1.7057,-1.7261,-1.7131,-1.6853,-1.6689,-1.6689,-1.6976,-1.7424,-1.7983,-1.8494,-1.902,-1.9553,0.0,0.0,0.0,0.0,0.0,0.0,0.0,0.0,0.0,0.0,0.0,0.0,0.0,0.0,0.0,-2.6196,0.0,-2.6952,-2.7315,0.0,0.0,0.0,-2.5574,-2.5443,-2.5284,-2.5437,-2.6094,0.0,0.0,0.0,0.0,-2.5511,-2.5403,-2.5167,-2.4936,-2.482,-2.475,-2.48,-2.4725,-2.4763,-2.4775,-2.4743,-2.4831,-2.4823,-2.4831,-2.485,-2.4825,-2.4725,-2.4406,-2.4305,-2.4669,-2.4393,-2.4243,-2.4782,-2.4808,-2.4863,-2.4883,-2.487,-2.4813,-2.4845,-2.5166,-2.5595,-0.3789,-0.4533,-0.5396,-0.6515,-0.7663,-0.8136,-0.8415,-0.8655,-0.8655,-0.8655,-0.8645,-0.8601,-0.8515,-0.8474,-0.8453,-0.8414,-0.831,-0.8301,-0.8199,-0.8043,-0.8024,-0.7988,-0.8038,-0.8184,-0.8634,-0.9232,-1.0168,-1.1076,-1.201,-1.2648,-1.3008,-1.3089,-1.2977,-1.2772,-1.2518,-1.3054,-1.3541,-1.3996,-1.5413,-1.6451,-1.7147,-1.718,-1.7139,-1.709,-1.6853,-1.6689,-1.6689,-1.7098,-1.7587,-1.8224,-1.8815,-1.9299,-1.9554,-1.9095,0.0,0.0,0.0,0.0,0.0,0.0,0.0,0.0,0.0,-2.1398,-2.3139,0.0,-2.4376,0.0,-2.6716,-2.769,-2.7983,-2.827,0.0,0.0,-2.7583,-2.7484,-2.7357,-2.7074,-2.6869,-2.6793,-2.6267,-2.6016,-2.6252,-2.5993,-2.5917,-2.6156,-2.5507,-2.4943,-2.4852,-2.48,-2.48,-2.4813,-2.4728,-2.473,-2.5108,-2.5429,-2.554,-2.5232,-2.5157,-2.5087,-2.4863,-2.4732,-2.465,-2.4763,-2.47,-2.4845,-2.531,-2.541,-2.5586,-2.5959,-2.5724,-2.541,-2.5423,-2.6049,-2.6688,-0.322,-0.3947,-0.4582,-0.565,-0.6948,-0.7682,-0.8211,-0.859,-0.8641,-0.8699,-0.8801,-0.8652,-0.8584,-0.8581,-0.8513,-0.8442,-0.8419,-0.8364,-0.8286,-0.8147,-0.8143,-0.8052,-0.7988,-0.8287,-0.873,-0.9381,-1.0462,-1.1424,-1.2363,-1.2967,-1.328,-1.3302,-1.3181,-1.3032,-1.2881,-1.316,-1.355,-1.4069,-1.5384,-1.6417,-1.7066,-1.6894,-1.6812,-1.6763,-1.6417,-1.6346,-1.6581,-1.6796,-1.7296,-1.8162,-1.8831,-1.9406,-1.9899,-1.9514,-1.9138,0.0,0.0,0.0,0.0,0.0,0.0,0.0,0.0,0.0,0.0,0.0,-2.5399,0.0,-2.7791,0.0,-2.8979,-2.9041,-2.8952,-2.8843,-2.857,-2.8426,-2.8495,-2.8274,-2.8015,-2.7728,-2.7211,-2.6835,-2.6698,-2.6437,-2.627,-2.6358,-2.5904,-2.5536,-2.5548,-2.5482,-2.5428,-2.5428,-2.5236,-2.52,-2.5406,-2.5632,-2.5695,-2.5483,-2.5592,-2.5629,-2.5444,-2.5269,-2.5247,-2.5473,-2.5347,-2.5335,-2.585,-2.6009,-2.6135,-2.6336,-2.6235,-2.6034,-2.6021,-2.6544,-2.7113,-0.2784,-0.3544,-0.3894,-0.4651,-0.5802,-0.6781,-0.7642,-0.8399,-0.838,-0.8543,-0.8764,-0.8689,-0.8686,-0.8676,-0.8601,-0.853,-0.8513,-0.8509,-0.8435,-0.8299,-0.835,-0.8218,-0.8072,-0.8361,-0.8851,-0.9628,-1.0708,-1.1736,-1.2754,-1.321,-1.345,-1.3471,-1.3258,-1.3106,-1.3143,-1.3291,-1.3613,-1.4212,-1.5442,-1.6203,-1.6615,-1.6484,-1.6386,-1.6378,-1.5953,-1.5975,-1.6523,-1.6462,-1.6949,-1.803,-1.8716,-1.9439,-2.0178,-1.9999,-1.9669,0.0,-1.9216,0.0,0.0,0.0,0.0,0.0,0.0,0.0,0.0,-2.5229,-2.6361,-2.8174,-2.8931,-2.9435,-2.9808,-2.9643,-2.9564,-2.9667,-2.9233,-2.8987,-2.9167,-2.9013,-2.8828,-2.8583,-2.8183,-2.7643,-2.7007,-2.6773,-2.6521,-2.6188,-2.606,-2.6042,-2.6255,-2.6126,-2.601,-2.6131,-2.591,-2.5496,-2.5369,-2.5382,-2.5418,-2.5523,-2.5756,-2.6097,-2.6151,-2.589,-2.5841,-2.6285,-2.6047,-2.5887,-2.6424,-2.6474,-2.6474,-2.6487,-2.6461,-2.6449,-2.6517,-2.6735,-2.7113,-0.2308,-0.2701,-0.2939,-0.3511,-0.4171,-0.4907,-0.618,-0.7853,-0.7812,-0.7937,-0.8211,-0.8459,-0.8556,-0.8553,-0.8756,-0.8733,-0.8669,-0.8669,-0.8584,-0.8442,-0.8494,-0.8364,-0.8282,-0.8729,-0.9214,-0.9632,-1.0703,-1.1639,-1.2467,-1.2952,-1.3286,-1.3496,-1.3243,-1.3188,0.0,0.0,0.0,0.0,-1.5621,-1.5914,-1.6211,-1.6319,-1.6386,-1.6386,-1.6356,0.0,-1.6743,-1.7068,-1.7519,-1.8088,-1.8986,0.0,0.0,0.0,0.0,0.0,0.0,0.0,0.0,0.0,0.0,0.0,-2.3644,-2.4205,-2.5112,-2.6343,-2.7486,-2.8463,-2.9008,-2.9498,-3.0005,-3.0104,-3.0139,-3.0155,-3.0054,-2.9859,-2.9543,-2.9233,-2.888,-2.8417,-2.7822,-2.7268,-2.6816,-2.6487,-2.6154,-2.5781,-2.5723,-2.5641,-2.5535,-2.5641,-2.5711,-2.5688,-2.5276,-2.4838,-2.4514,-2.4622,-2.4838,-2.5052,-2.53,-2.5641,-2.6037,-2.6126,-2.613,-2.6465,-2.6411,-2.6336,-2.6474,-2.6487,-2.6487,-2.6487,-2.6487,-2.6521,-2.6658,-2.6829,-2.7167,-0.2189,0.0,-0.259,-0.2995,0.0,-0.3883,-0.4796,-0.6275,-0.6812,-0.7301,-0.7691,-0.7964,-0.8048,-0.8048,-0.8488,-0.8669,-0.8596,-0.8712,-0.874,-0.8598,-0.8594,-0.8516,-0.8426,-0.886,-0.9287,-0.975,-1.0847,-1.1736,-1.2419,-1.3001,-1.3312,-1.3286,-1.3298,-1.3345,-1.3429,-1.3904,-1.4592,-1.5494,-1.5659,-1.5782,-1.5914,-1.6113,-1.6278,-1.6378,0.0,0.0,0.0,0.0,0.0,0.0,0.0,0.0,0.0,0.0,0.0,-2.0781,-2.1039,-2.1444,-2.2159,-2.296,-2.3568,-2.3977,-2.4657,-2.5268,-2.5703,-2.6932,-2.7921,-2.8522,-2.9166,-2.9699,-3.005,-3.0219,-3.0296,-3.0282,-3.016,-2.9884,-2.9512,-2.9135,-2.872,-2.8137,-2.7523,-2.6985,-2.6611,-2.6176,-2.5758,-2.5382,-2.5194,-2.5052,-2.485,-2.4993,-2.5087,-2.4933,-2.4611,-2.4238,-2.4105,-2.4116,-2.4298,-2.4575,-2.4909,-2.5264,-2.5676,-2.6015,-2.6236,-2.6327,-2.643,-2.6487,-2.6487,-2.6487,-2.6487,-2.6487,-2.6487,-2.6602,-2.6807,-2.7011,-2.7302,-0.2242,-0.2407,-0.247,-0.2768,-0.3231,-0.3181,-0.3639,-0.4592,0.0,0.0,0.0,-0.7266,-0.7449,-0.7558,-0.8115,-0.8431,-0.8579,-0.8752,-0.8841,-0.875,-0.875,-0.8669,-0.8572,-0.8916,-0.9335,-0.9774,-1.0879,-1.1717,-1.2278,-1.2953,-1.3239,-1.3131,-1.3309,-1.3485,-1.3642,-1.4336,-1.4905,-1.5327,-1.5524,-1.565,-1.5692,-1.5955,-1.6211,-1.6443,-1.6525,-1.701,-1.78,-1.7943,-1.8415,-1.9269,-1.9591,-1.9984,-2.0449,-2.0576,-2.0737,-2.0968,-2.1384,-2.1881,-2.2521,-2.3456,-2.4131,-2.4548,-2.5397,-2.6037,-2.6358,-2.7249,-2.8052,-2.8587,-2.9355,-2.9853,-3.005,-3.0205,-3.0266,-3.019,-2.9915,-2.956,-2.9216,-2.8835,-2.8352,-2.7789,-2.7242,-2.6735,-2.6277,-2.5804,-2.5312,-2.4957,-2.4647,-2.4324,-2.4105,-2.4238,-2.4383,-2.408,-2.3824,-2.3666,-2.3641,-2.3641,-2.3776,-2.4007,-2.4443,-2.4874,-2.5241,-2.5723,-2.6062,-2.6201,-2.6361,-2.6452,-2.6487,-2.6487,-2.6487,-2.6487,-2.6487,-2.6602,-2.6943,-2.718,-2.7503,-0.2126,-0.2186,-0.2121,-0.2183,-0.2305,-0.2524,-0.305,-0.3744,-0.5123,-0.5754,-0.5858,-0.6427,-0.6824,-0.7114,-0.7693,-0.8211,-0.8675,-0.8675,-0.8765,0.0,-0.8851,-0.8825,-0.8682,-0.8976,-0.9242,-0.9595,-1.0356,-1.1061,-1.1702,-1.2273,-1.2743,-1.3069,-1.3165,-1.3543,-1.4324,-1.4598,-1.4929,-1.5399,-1.5401,-1.5499,-1.5692,-1.5955,-1.6294,-1.6632,-1.6917,-1.7349,-1.805,-1.8254,-1.8545,-1.9017,-1.9577,-1.9913,-2.001,-2.0695,-2.1257,-2.1666,-2.2344,-2.3099,-2.3874,-2.4386,-2.4957,-2.5591,-2.5826,-2.6242,-2.7064,-2.755,-2.8059,-2.8707,-2.9404,-2.9808,-2.9853,-3.0099,-3.0113,-2.9744,-2.9512,-2.9184,-2.8766,-2.8268,-2.7809,-2.739,-2.6837,-2.6277,-2.5804,-2.5347,-2.485,-2.4394,-2.3984,-2.3556,-2.3224,-2.3409,-2.3556,-2.3261,-2.3001,-2.2815,-2.2777,-2.2777,-2.3038,-2.3372,-2.3813,-2.4311,-2.4909,-2.5418,-2.5828,-2.6131,-2.6374,-2.6487,-2.6487,-2.6487,-2.6487,-2.6487,-2.6487,-2.6636,-2.6943,-2.7281,-2.7689,-0.2104,-0.2089,-0.2089,-0.2078,-0.2127,-0.2434,-0.2723,-0.3058,-0.3815,-0.4357,-0.4644,-0.5193,-0.5641,-0.6048,-0.681,-0.7486,-0.8071,-0.8184,-0.8454,-0.8782,-0.8779,-0.8811,-0.8835,-0.9017,-0.9218,-0.9541,-1.0071,-1.0696,-1.1264,-1.1894,-1.237,-1.2743,-1.3277,-1.3845,-1.4491,-1.4795,-1.5078,-1.5396,-1.5389,-1.5506,-1.5692,-1.5955,-1.6417,-1.7066,-1.7428,-1.8013,-1.8879,-1.9122,-1.9412,-1.9877,-2.0128,-2.035,-2.0436,-2.0941,-2.1474,-2.2063,-2.2665,-2.3409,-2.4309,-2.4802,-2.5265,-2.5688,-2.584,-2.628,-2.7188,-2.7643,-2.8157,-2.8757,-2.9404,-2.9794,-2.9777,-2.9884,-2.982,-2.9602,-2.9212,-2.8766,-2.8314,-2.7822,-2.7356,-2.6871,-2.6324,-2.5804,-2.5347,-2.4778,-2.4238,-2.3776,-2.3298,-2.2852,-2.259,-2.2665,-2.2777,-2.2692,-2.258,-2.2515,-2.2402,-2.2478,-2.2703,-2.3065,-2.3482,-2.3959,-2.4611,-2.5182,-2.5653,-2.598,-2.6292,-2.6452,-2.6487,-2.6487,-2.6487,-2.6499,-2.6568,-2.6739,-2.6977,-2.7536,-2.8314,-0.2141,-0.212,-0.2119,-0.2102,-0.214,-0.2398,-0.2443,-0.2475,-0.2663,-0.3003,-0.3486,-0.4077,-0.4578,-0.4991,-0.5761,-0.6577,-0.7266,-0.7613,-0.8011,-0.847,-0.8546,-0.8646,-0.8759,-0.8828,-0.9007,-0.9323,-0.978,-1.0281,-1.0933,-1.1545,-1.2029,-1.2538,-1.3371,-1.4028,-1.4501,-1.4909,-1.5226,-1.5422,-1.5491,-1.558,-1.5782,-1.6038,-1.6615,-1.7432,-1.791,-1.8634,-1.9518,-1.9833,-2.0177,-2.0566,-2.0615,-2.0683,-2.0896,-2.1128,-2.1617,-2.2327,-2.2815,-2.3482,-2.449,-2.5004,-2.5382,-2.5571,-2.5805,-2.6245,-2.7061,-2.763,-2.8235,-2.8849,-2.9449,-2.9777,-2.9699,-2.9605,-2.9477,-2.9383,-2.8812,-2.8281,-2.7888,-2.739,-2.685,-2.6289,-2.5769,-2.5276,-2.4778,-2.4166,-2.3604,-2.3075,-2.2628,-2.2327,-2.2252,-2.2138,-2.2101,-2.2214,-2.2252,-2.2252,-2.2252,-2.2252,-2.244,-2.2815,-2.315,-2.3629,-2.4298,-2.5004,-2.5535,-2.5828,-2.6188,-2.6396,-2.6452,-2.6487,-2.6487,-2.6487,-2.6589,-2.6829,-2.7235,-2.8033,-2.883,-0.2221,-0.2218,-0.2216,-0.2133,-0.2106,-0.2171,-0.2153,-0.2126,-0.2188,-0.2186,-0.2424,-0.3237,-0.3931,-0.4481,-0.4902,-0.5653,-0.6729,-0.7083,-0.7493,-0.7956,-0.8133,-0.8243,-0.8272,-0.814,-0.8346,-0.876,-0.9124,-0.9741,-1.0597,-1.11,-1.178,-1.2684,-1.3277,-1.39,-1.4509,-1.4765,-1.508,-1.5469,-1.5734,-1.5935,-1.6061,-1.6237,-1.6796,-1.7659,-1.8296,-1.8944,-1.9606,-2.0029,-2.0372,-2.0566,-2.0615,-2.0693,-2.0906,-2.1244,-2.1769,-2.2365,-2.2964,-2.3714,-2.4682,-2.5123,-2.5382,-2.5583,-2.5793,-2.6211,-2.6939,-2.751,-2.817,-2.8894,-2.9481,-2.9637,-2.9463,-2.9355,-2.9135,-2.8748,-2.8216,-2.7756,-2.7356,-2.685,-2.6289,-2.5746,-2.53,-2.4814,-2.4129,-2.3593,-2.3038,-2.2354,-2.2176,-2.2035,-2.1873,-2.1835,-2.1845,-2.1845,-2.1883,-2.1883,-2.1883,-2.1845,-2.2073,-2.2402,-2.2665,-2.3224,-2.3995,-2.4563,-2.5016,-2.5723,-2.6084,-2.6292,-2.643,-2.6487,-2.6487,-2.6521,-2.6645,-2.6952,-2.7709,-2.8476,-2.9149,-0.2222,-0.2222,-0.2222,-0.2216,-0.2137,-0.2136,-0.2119,-0.2092,-0.2091,-0.2081,-0.2126,-0.2483,-0.3027,-0.3623,-0.4083,-0.4787,-0.5675,-0.6161,-0.6832,-0.7436,-0.7674,-0.7927,-0.8184,-0.8053,-0.8125,-0.8285,-0.8689,-0.9222,-0.9868,-1.0907,-1.1829,-1.2559,-1.3318,-1.3962,-1.4378,-1.5021,-1.5493,-1.579,-1.6053,-1.6379,-1.6667,-1.668,-1.7199,-1.8126,-1.8539,-1.9063,-1.9706,-2.0098,-2.0381,-2.0566,-2.0615,-2.0731,-2.1061,-2.1359,-2.1883,-2.2703,-2.3677,-2.4406,-2.4957,-2.517,-2.5347,-2.5418,-2.5711,-2.6141,-2.6598,-2.7242,-2.7855,-2.8314,-2.8867,-2.9153,-2.904,-2.8835,-2.8578,-2.8235,-2.7822,-2.7369,-2.6964,-2.6324,-2.5734,-2.5276,-2.4707,-2.4166,-2.3593,-2.299,-2.2392,-2.1873,-2.1731,-2.1665,-2.1474,-2.155,-2.1617,-2.1655,-2.1731,-2.1807,-2.1807,-2.1807,-2.1997,-2.2289,-2.259,-2.3038,-2.3813,-2.4407,-2.4933,-2.5618,-2.5945,-2.6236,-2.6465,-2.6487,-2.6487,-2.6555,-2.6897,-2.7323,-2.8183,-2.8748,-2.9289,-0.2222,-0.2222,-0.2222,-0.2222,-0.2155,-0.2087,-0.2009,-0.1991,-0.1856,-0.1845,-0.1828,-0.182,-0.206,-0.2537,-0.3185,-0.3899,-0.4561,-0.5177,-0.5941,-0.6649,-0.7027,-0.7386,-0.7786,-0.7717,-0.7747,-0.7919,-0.8343,-0.8874,-0.9565,-1.0943,-1.1899,-1.2381,-1.3372,-1.4052,-1.4403,-1.5266,-1.5839,-1.614,-1.6469,-1.6818,-1.7171,-1.7407,-1.7878,-1.8683,-1.8956,-1.9396,-2.0033,-2.0283,-2.045,-2.0605,-2.0644,-2.0848,-2.1167,-2.155,-2.2214,-2.3261,-2.4236,-2.4885,-2.5076,-2.5218,-2.5312,-2.5312,-2.5606,-2.5968,-2.6358,-2.6918,-2.7356,-2.7656,-2.8059,-2.8338,-2.8481,-2.8254,-2.8006,-2.7743,-2.731,-2.6897,-2.6393,-2.5804,-2.5241,-2.4731,-2.4093,-2.3409,-2.2841,-2.2262,-2.1693,-2.1415,-2.1349,-2.1272,-2.1128,-2.1195,-2.1349,-2.1425,-2.1578,-2.1731,-2.1769,-2.1807,-2.1997,-2.2214,-2.2478,-2.2889,-2.3629,-2.4227,-2.4862,-2.5465,-2.584,-2.6188,-2.643,-2.6487,-2.6568,-2.6739,-2.7066,-2.7669,-2.8392,-2.8908,-2.9415,-0.2222,-0.2222,-0.2222,-0.2222,-0.2155,-0.1818,-0.1616,-0.1612,-0.1277,-0.1142,-0.1205,-0.1125,-0.111,-0.1223,-0.2157,-0.2939,-0.3582,-0.4193,-0.4865,-0.5523,-0.6047,-0.6553,-0.6988,-0.6932,-0.7102,-0.7619,-0.8044,-0.8892,-1.0136,-1.1299,-1.1949,-1.2083,-1.3275,-1.4136,-1.4709,-1.5351,-1.595,-1.6493,-1.6934,-1.7289,-1.7688,-1.8434,-1.8971,-1.9264,-1.9621,-2.0051,-2.0491,-2.0594,-2.0576,-2.0615,-2.078,-2.0974,-2.1244,-2.1959,-2.2889,-2.4007,-2.4574,-2.4897,-2.5087,-2.5241,-2.5312,-2.5312,-2.5535,-2.5781,-2.6129,-2.6543,-2.6884,-2.7268,-2.7188,-2.7343,-2.7676,-2.761,-2.7377,-2.7074,-2.6701,-2.6255,-2.5699,-2.5276,-2.4743,-2.4057,-2.3372,-2.2628,-2.1721,-2.1387,-2.1146,-2.0954,-2.0915,-2.0838,-2.0683,-2.076,-2.0992,-2.1195,-2.1397,-2.1589,-2.1731,-2.1807,-2.1883,-2.2111,-2.2402,-2.2713,-2.3335,-2.3995,-2.4683,-2.5288,-2.5723,-2.6072,-2.6349,-2.6568,-2.6705,-2.6943,-2.739,-2.7941,-2.8509,-2.9131,-2.9634,-0.2222,-0.2222,-0.2222,-0.2087,-0.1818,-0.1683,-0.1481,-0.1279,-0.1144,-0.1077,-0.1076,-0.1071,-0.106,-0.1045,-0.1352,-0.1893,-0.2593,-0.3207,-0.3946,-0.4737,-0.5335,-0.5877,-0.6489,-0.6686,-0.6865,-0.7153,-0.7762,-0.88,-1.0126,-1.1171,-1.1855,-1.2358,-1.3372,-1.4238,-1.4943,-1.5671,-1.6273,-1.68,-1.7265,-1.7727,-1.8202,-1.8993,-1.9695,-2.0298,-2.048,-2.0553,-2.0585,-2.0825,-2.0869,-2.0615,-2.078,-2.1061,-2.1474,-2.2515,-2.353,-2.4309,-2.4778,-2.5052,-2.5206,-2.5264,-2.5312,-2.5312,-2.55,-2.5641,-2.5851,-2.6164,-2.6405,-2.6418,-2.6508,-2.6564,-2.6564,-2.6701,-2.6667,-2.6336,-2.606,-2.5664,-2.5075,-2.4587,-2.402,-2.3335,-2.2478,-2.1578,-2.1108,-2.0838,-2.0683,-2.0323,-2.0255,-2.0177,-2.0108,-2.0264,-2.0605,-2.0954,-2.131,-2.1589,-2.1769,-2.1807,-2.1845,-2.2063,-2.2327,-2.2703,-2.3261,-2.3861,-2.4539,-2.5253,-2.5641,-2.6037,-2.6349,-2.6636,-2.6773,-2.7146,-2.759,-2.8105,-2.8624,-2.9243,-2.9682,-0.1818,-0.1818,-0.1818,-0.1683,-0.1414,-0.1279,-0.1077,-0.0875,-0.0808,-0.0741,-0.0741,-0.074,-0.0734,-0.0658,-0.0714,-0.0955,-0.1555,-0.235,-0.3082,-0.3819,-0.445,-0.52,-0.5873,-0.6208,-0.657,-0.6927,-0.7827,-0.8957,-1.0201,-1.1093,-1.1857,-1.2545,-1.3525,-1.443,-1.5194,-1.5961,-1.6581,-1.7113,-1.7581,-1.804,-1.8535,-1.9363,-2.0184,-2.0926,-2.1268,-2.1325,-2.1126,-2.1184,-2.1073,-2.086,-2.0947,-2.1282,-2.1997,-2.299,-2.3897,-2.4526,-2.4909,-2.5147,-2.5276,-2.5312,-2.5312,-2.5312,-2.5418,-2.5523,-2.5606,-2.5851,-2.5933,-2.5933,-2.5933,-2.5921,-2.5781,-2.5804,-2.5816,-2.5606,-2.5418,-2.5052,-2.4432,-2.3911,-2.3213,-2.2268,-2.1377,-2.0683,-2.0284,-2.0177,-1.9981,-1.9676,-1.9627,-1.9518,-1.9399,-1.9676,-2.0098,-2.0518,-2.0982,-2.1349,-2.1617,-2.1731,-2.1769,-2.1959,-2.2252,-2.2665,-2.3139,-2.374,-2.4431,-2.5099,-2.5641,-2.6037,-2.6361,-2.6636,-2.6943,-2.7268,-2.7756,-2.8287,-2.8803,-2.9387,-2.9806,-0.1144,-0.1144,-0.1077,-0.1144,-0.1077,-0.0741,-0.0539,-0.0471,-0.0202,0.0,0.0,0.0,0.0,0.0,0.0,-0.0256,-0.0695,-0.1556,-0.2223,-0.2713,-0.3509,-0.4336,-0.5123,-0.5515,-0.617,-0.6935,-0.8214,-0.9388,-1.0391,-1.1254,-1.2033,-1.2733,-1.3771,-1.4627,-1.5391,-1.6157,-1.6817,-1.7286,-1.7807,-1.8226,-1.8635,-1.9646,-2.051,-2.1087,-2.1871,-2.2254,-2.2159,-2.1615,-2.1278,-2.1211,-2.1203,-2.179,-2.2751,-2.342,-2.397,-2.4646,-2.4992,-2.5135,-2.5276,-2.5312,-2.5312,-2.5312,-2.53,-2.5382,-2.5535,-2.5606,-2.5676,-2.5793,-2.5688,-2.55,-2.5276,-2.5052,-2.4909,-2.4945,-2.4791,-2.436,-2.3728,-2.3187,-2.2392,-2.1021,-2.0216,-1.9775,-1.942,-1.9301,-1.9183,-1.9033,-1.8993,-1.8962,-1.8843,-1.9152,-1.946,-1.9932,-2.0557,-2.1146,-2.1425,-2.1655,-2.1731,-2.1845,-2.2225,-2.259,-2.3075,-2.3666,-2.4431,-2.5135,-2.5781,-2.6176,-2.643,-2.6705,-2.7011,-2.7369,-2.7908,-2.8449,-2.8994,-2.9481,-2.9884,-0.1077,-0.1077,-0.1077,-0.0943,-0.0673,-0.0539,-0.0404,0.0,0.0,0.0,0.0,0.0,0.0,0.0,0.0,0.0,-0.0192,-0.0758,-0.1371,-0.2161,-0.2712,-0.3444,-0.4273,-0.4996,-0.6064,-0.7399,-0.8437,-0.9443,-1.0362,-1.129,-1.2011,-1.2799,-1.3794,-1.4682,-1.5384,-1.6197,-1.6817,-1.7286,-1.78,-1.8311,-1.8735,-1.9737,-2.0654,-2.1454,-2.2087,-2.2497,-2.2756,-2.236,-2.1982,-2.1689,-2.166,-2.2051,-2.2928,-2.3629,-2.4225,-2.4754,-2.5087,-2.5253,-2.5276,-2.5312,-2.5312,-2.5312,-2.5312,-2.5312,-2.5382,-2.5382,-2.543,-2.55,-2.5359,-2.5147,-2.4921,-2.4478,-2.4213,-2.425,-2.4057,-2.3644,-2.2804,-2.1949,-2.0982,-2.0079,-1.9411,-1.8984,-1.8714,-1.8554,-1.8393,-1.8353,-1.8313,-1.8322,-1.8523,-1.8803,-1.9311,-1.9824,-2.044,-2.0982,-2.1339,-2.1617,-2.1731,-2.1883,-2.2187,-2.2553,-2.3038,-2.3666,-2.4431,-2.5182,-2.5828,-2.6245,-2.6499,-2.6739,-2.7045,-2.7469,-2.802,-2.856,-2.9103,-2.9574,-2.9991,-0.0673,-0.0673,-0.0673,-0.0539,-0.0337,-0.0337,-0.0202,0.0,0.0,0.0,0.0,0.0,0.0,0.0,0.0,0.0,0.0,-0.0254,-0.0752,-0.1483,-0.2097,-0.2774,-0.369,-0.4971,-0.6153,-0.7361,-0.8382,-0.9316,-1.0297,-1.1133,-1.1925,-1.2835,-1.3791,-1.463,-1.5397,-1.6204,-1.6871,-1.7434,-1.7846,-1.8365,-1.9012,-1.9837,-2.0744,-2.1597,-2.2132,-2.2618,-2.3028,-2.2828,-2.2549,-2.2173,-2.207,-2.2413,-2.321,-2.3875,-2.4381,-2.4778,-2.5076,-2.5312,-2.5312,-2.5312,-2.5312,-2.5312,-2.5312,-2.5312,-2.5312,-2.5312,-2.5276,-2.5218,-2.5076,-2.4849,-2.4454,-2.3934,-2.3494,-2.3124,-2.315,-2.274,-2.1835,-2.0789,-1.9893,-1.9213,-1.8656,-1.8304,-1.8031,-1.7919,-1.7757,-1.7757,-1.7797,-1.787,-1.8152,-1.8514,-1.9033,-1.9627,-2.0294,-2.0799,-2.1272,-2.154,-2.1769,-2.1959,-2.2149,-2.2553,-2.3001,-2.3714,-2.4442,-2.5324,-2.6072,-2.6314,-2.6521,-2.6807,-2.7092,-2.7616,-2.8099,-2.867,-2.9166,-2.9727,-3.0097,0.0,0.0,0.0,0.0,0.0,0.0,0.0,0.0,0.0,0.0,0.0,0.0,0.0,0.0,0.0,0.0,0.0,0.0,-0.0189,-0.0745,-0.142,-0.2282,-0.326,-0.4971,-0.6162,-0.6932,-0.8076,-0.9174,-1.0167,-1.0915,-1.1815,-1.2823,-1.3685,-1.4552,-1.53,-1.6157,-1.6918,-1.7527,-1.7947,-1.845,-1.9188,-1.992,-2.0789,-2.1687,-2.2176,-2.2618,-2.3038,-2.3042,-2.29,-2.2588,-2.2473,-2.2807,-2.3558,-2.4021,-2.4381,-2.479,-2.5111,-2.5276,-2.5312,-2.5312,-2.5312,-2.5312,-2.5312,-2.5312,-2.5312,-2.5276,-2.5206,-2.5111,-2.4873,-2.4526,-2.397,-2.3335,-2.2665,-2.1911,-2.1977,-2.1596,-2.0673,-1.9775,-1.9103,-1.8456,-1.7942,-1.7619,-1.7473,-1.7392,-1.7351,-1.7392,-1.7432,-1.7505,-1.774,-1.8152,-1.8625,-1.9262,-1.9971,-2.0605,-2.1069,-2.1464,-2.1693,-2.1921,-2.2138,-2.2553,-2.3113,-2.3849,-2.4622,-2.5512,-2.6119,-2.6349,-2.6555,-2.6773,-2.7079,-2.749,-2.8039,-2.8656,-2.923,-2.9713,-3.0036,0.0,0.0,0.0,0.0,0.0,0.0,0.0,0.0,0.0,0.0,0.0,0.0,0.0,0.0,0.0,0.0,0.0,0.0,0.0,-0.0188,-0.062,-0.1729,-0.3014,-0.4429,-0.5663,-0.6604,-0.7786,-0.8851,-0.9923,-1.0746,-1.1618,-1.2437,-1.3445,-1.4227,-1.4917,-1.5872,-1.6669,-1.738,-1.79,-1.8589,-1.9417,-2.0011,-2.088,-2.1919,-2.2264,-2.2618,-2.3047,-2.3101,-2.3069,-2.3038,-2.2951,-2.3129,-2.3678,-2.4066,-2.4405,-2.4778,-2.5111,-2.5312,-2.5312,-2.5312,-2.5312,-2.5312,-2.5312,-2.5312,-2.5312,-2.5218,-2.5147,-2.5004,-2.467,-2.4164,-2.3666,-2.2964,-2.2014,-2.0915,-2.0673,-2.0352,-1.9696,-1.9024,-1.8434,-1.7942,-1.7497,-1.7212,-1.7098,-1.7025,-1.6976,-1.7098,-1.718,-1.7229,-1.7505,-1.7789,-1.8273,-1.8856,-1.9529,-2.0245,-2.0838,-2.1272,-2.1617,-2.1845,-2.2176,-2.259,-2.3287,-2.4166,-2.4969,-2.5793,-2.6119,-2.6361,-2.6487,-2.6658,-2.7019,-2.7343,-2.7941,-2.8527,-2.9121,-2.9637,-2.9898,0.0,0.0,0.0,0.0,0.0,0.0,0.0,0.0,0.0,0.0,0.0,0.0,0.0,0.0,0.0,0.0,0.0,0.0,0.0,0.0,-0.0497,-0.1606,-0.3016,-0.4209,-0.5365,-0.6405,-0.7525,-0.866,-0.9635,-1.0572,-1.146,-1.2362,-1.3316,-1.4132,-1.4867,-1.5722,-1.6622,-1.7426,-1.7994,-1.8765,-1.9691,-2.0329,-2.1096,-2.1954,-2.2397,-2.275,-2.3057,-2.3101,-2.3181,-2.3386,-2.3411,-2.3559,-2.3972,-2.4288,-2.4565,-2.4837,-2.5123,-2.5312,-2.5312,-2.5312,-2.5312,-2.5312,-2.5312,-2.5276,-2.5206,-2.5147,-2.5052,-2.4694,-2.4261,-2.3714,-2.3027,-2.2042,-2.0944,-1.9942,-1.9311,-1.8935,-1.8727,-1.8215,-1.7708,-1.7261,-1.6894,-1.6689,-1.6697,-1.6574,-1.6648,-1.6771,-1.6894,-1.7057,-1.727,-1.7595,-1.7959,-1.8505,-1.9134,-1.9854,-2.0527,-2.1002,-2.1474,-2.1693,-2.2252,-2.2665,-2.3471,-2.4383,-2.5028,-2.5688,-2.605,-2.6292,-2.6349,-2.6474,-2.6769,-2.7196,-2.7796,-2.8352,-2.8931,-2.9481,-2.9744,0.0,0.0,0.0,0.0,0.0,0.0,0.0,0.0,0.0,0.0,0.0,0.0,0.0,0.0067,0.0,0.0,0.0,0.0,0.0,-0.0126,-0.0623,-0.1543,-0.2713,-0.406,-0.5174,-0.6177,-0.7271,-0.8305,-0.9345,-1.0204,-1.1237,-1.226,-1.3257,-1.4207,-1.4918,-1.5759,-1.6671,-1.7527,-1.8172,-1.8958,-1.9874,-2.0591,-2.1311,-2.2087,-2.2627,-2.2882,-2.3057,-2.3144,-2.3299,-2.3787,-2.38,-2.3968,-2.4364,-2.4682,-2.4842,-2.4848,-2.5087,-2.5312,-2.5312,-2.5312,-2.5312,-2.5312,-2.5276,-2.5206,-2.5076,-2.4981,-2.4694,-2.4225,-2.3751,-2.3075,-2.2128,-2.0789,-1.9775,-1.8993,-1.8184,-1.7732,-1.7642,-1.7286,-1.6804,-1.6353,-1.6113,-1.6004,-1.6046,-1.6162,-1.627,-1.6312,-1.6484,-1.6689,-1.6894,-1.7147,-1.7587,-1.8144,-1.8776,-1.946,-2.0137,-2.0731,-2.1156,-2.1578,-2.2252,-2.2852,-2.3618,-2.4419,-2.5016,-2.5523,-2.5898,-2.605,-2.605,-2.6233,-2.653,-2.7027,-2.7597,-2.8157,-2.8675,-2.9261,-2.9634,0.0,0.0,0.0,0.0,0.0,0.0,0.0,0.0,0.0,0.0,0.0,0.0269,0.0404,0.0404,0.074,0.0873,0.0802,0.0527,0.0259,-0.0063,-0.0435,-0.105,-0.2035,-0.3389,-0.4704,-0.5778,-0.6744,-0.7797,-0.8871,-0.9843,-1.0812,-1.182,-1.311,-1.414,-1.4794,-1.5748,-1.6607,-1.7377,-1.8125,-1.9096,-2.0065,-2.0727,-2.149,-2.2309,-2.2794,-2.3013,-2.3091,-2.3101,-2.3309,-2.3687,-2.3862,-2.4032,-2.444,-2.4788,-2.4911,-2.4918,-2.5123,-2.5312,-2.5312,-2.5312,-2.5312,-2.5276,-2.517,-2.5087,-2.4849,-2.455,-2.4225,-2.3751,-2.3224,-2.2354,-2.1126,-2.004,-1.9094,-1.8256,-1.7416,-1.6681,-1.6353,-1.6278,-1.6064,-1.5692,-1.5409,-1.5298,-1.5298,-1.5484,-1.5643,-1.5816,-1.6072,-1.6278,-1.6533,-1.6779,-1.718,-1.77,-1.8385,-1.9063,-1.9784,-2.0459,-2.1118,-2.1578,-2.2214,-2.2927,-2.3692,-2.4394,-2.4957,-2.5394,-2.5758,-2.5828,-2.5793,-2.6015,-2.6314,-2.6884,-2.741,-2.7927,-2.8463,-2.9022,-2.9477,0.0,0.0,0.0,0.0,0.0,0.0,0.0,0.0,0.0,0.0067,0.0269,0.0606,0.0875,0.1077,0.1414,0.1548,0.1272,0.0922,0.058,0.0253,-0.0124,-0.0741,-0.1603,-0.2835,-0.4107,-0.5337,-0.6353,-0.742,-0.8536,-0.9548,-1.0589,-1.1612,-1.2921,-1.3885,-1.4695,-1.5646,-1.6574,-1.7337,-1.8218,-1.9188,-2.0201,-2.1015,-2.1767,-2.2564,-2.296,-2.3101,-2.3101,-2.3101,-2.3363,-2.3694,-2.4026,-2.4325,-2.4712,-2.5042,-2.5174,-2.5188,-2.5207,-2.53,-2.5312,-2.5276,-2.5276,-2.5206,-2.5052,-2.4742,-2.4454,-2.408,-2.3629,-2.3113,-2.2478,-2.1672,-2.0157,-1.9204,-1.8327,-1.7489,-1.664,-1.5858,-1.5401,-1.5367,-1.5276,-1.4852,-1.4566,-1.4454,-1.4489,-1.4685,-1.5068,-1.5318,-1.5733,-1.5989,-1.6286,-1.6492,-1.673,-1.7212,-1.7902,-1.8625,-1.939,-2.0177,-2.1079,-2.1617,-2.2138,-2.2815,-2.3545,-2.4213,-2.4873,-2.5218,-2.5535,-2.5571,-2.5558,-2.5828,-2.6084,-2.6508,-2.6994,-2.761,-2.817,-2.8688,-2.9149,0.0,0.0,0.0,0.0,0.0,0.0,0.0,0.0,0.0067,0.0269,0.0673,0.1077,0.1548,0.1885,0.2289,0.2221,0.187,0.157,0.1281,0.0698,0.0374,-0.0371,-0.1295,-0.2342,-0.3511,-0.4787,-0.593,-0.7136,-0.8259,-0.9282,-1.0347,-1.1538,-1.2753,-1.3766,-1.4651,-1.5581,-1.6462,-1.721,-1.8125,-1.9142,-2.0147,-2.1051,-2.1945,-2.2784,-2.3047,-2.3101,-2.3101,-2.3144,-2.3319,-2.3797,-2.4251,-2.4672,-2.5031,-2.5369,-2.5459,-2.5337,-2.5194,-2.5171,-2.5147,-2.5182,-2.5147,-2.5004,-2.4778,-2.4381,-2.3934,-2.3482,-2.3001,-2.2365,-2.1645,-2.0702,-1.9244,-1.8287,-1.7448,-1.6591,-1.5726,-1.5061,-1.4608,-1.4447,-1.4139,-1.4013,-1.3724,-1.3561,-1.3646,-1.3851,-1.4356,-1.4824,-1.5276,-1.5692,-1.5955,-1.6252,-1.6492,-1.6894,-1.7578,-1.8554,-1.935,-1.999,-2.0848,-2.1464,-2.2025,-2.2665,-2.3324,-2.3995,-2.4622,-2.5004,-2.5241,-2.5312,-2.5418,-2.5606,-2.5886,-2.6151,-2.6688,-2.7364,-2.7894,-2.8384,-2.8817,0.0,0.0,0.0,0.0,0.0,0.0,0.0,0.0,0.0337,0.0673,0.1077,0.1683,0.2356,0.2893,0.3363,0.3296,0.3007,0.268,0.2188,0.1468,0.0939,0.0247,-0.0741,-0.1788,-0.2898,-0.4171,-0.5491,-0.6776,-0.7962,-0.9027,-1.0095,-1.1261,-1.2611,-1.3704,-1.4567,-1.546,-1.6318,-1.7103,-1.7918,-1.8875,-1.9903,-2.0853,-2.1811,-2.275,-2.3013,-2.3101,-2.3101,-2.3144,-2.3319,-2.3797,-2.4241,-2.4577,-2.4805,-2.5087,-2.5089,-2.4883,-2.4848,-2.4921,-2.4885,-2.4897,-2.4778,-2.4562,-2.4261,-2.3861,-2.3372,-2.2889,-2.2252,-2.1443,-2.043,-1.9323,-1.8327,-1.7408,-1.655,-1.5684,-1.4887,-1.4181,-1.3682,-1.3258,-1.3039,-1.3088,-1.2839,-1.2668,-1.2881,-1.3137,-1.3646,-1.4195,-1.4734,-1.5193,-1.5575,-1.5914,-1.6294,-1.6771,-1.7294,-1.8345,-1.9359,-1.9951,-2.0625,-2.1195,-2.1769,-2.2327,-2.3038,-2.3787,-2.4334,-2.4826,-2.5147,-2.5276,-2.5382,-2.5465,-2.5711,-2.6013,-2.6552,-2.7142,-2.763,-2.8091,-2.8624,0.0,0.0,0.0,0.0,0.0,0.0,0.0135,0.0337,0.0673,0.1211,0.1951,0.2692,0.3432,0.3967,0.4438,0.4371,0.4071,0.3526,0.2904,0.2114,0.1504,0.0741,-0.0247,-0.1295,-0.2342,-0.3498,-0.4851,-0.6266,-0.763,-0.8762,-0.9857,-1.1008,-1.2387,-1.3521,-1.4489,-1.5515,-1.6273,-1.7072,-1.7845,-1.8746,-1.9783,-2.0853,-2.1989,-2.2574,-2.2969,-2.3101,-2.3101,-2.3101,-2.3276,-2.3624,-2.409,-2.422,-2.4266,-2.4411,-2.4686,-2.4634,-2.4629,-2.4598,-2.4646,-2.4646,-2.4454,-2.4043,-2.3666,-2.3187,-2.2703,-2.2101,-2.1367,-2.0391,-1.9432,-1.8287,-1.7399,-1.655,-1.5684,-1.4852,-1.4013,-1.3379,-1.2918,-1.2375,-1.2289,-1.2375,-1.2203,-1.2123,-1.2166,-1.2503,-1.2973,-1.3519,-1.4104,-1.465,-1.5159,-1.5616,-1.6038,-1.6697,-1.7294,-1.8345,-1.9311,-1.9872,-2.0508,-2.1041,-2.154,-2.2111,-2.2777,-2.3567,-2.4225,-2.4778,-2.5016,-2.5241,-2.5312,-2.5382,-2.5629,-2.5851,-2.6289,-2.6769,-2.731,-2.7809,-2.8333,0.0,0.0,0.0,0.0067,0.0135,0.0,0.0337,0.0741,0.1211,0.2019,0.2959,0.3767,0.4505,0.5109,0.5513,0.5579,0.5093,0.4439,0.3742,0.282,0.2128,0.1233,0.0062,-0.0925,-0.1972,-0.3015,-0.431,-0.5614,-0.7105,-0.8422,-0.9521,-1.0682,-1.2055,-1.3288,-1.4298,-1.5395,-1.6296,-1.7049,-1.7864,-1.8777,-1.9912,-2.123,-2.2283,-2.2715,-2.296,-2.3101,-2.3101,-2.3101,-2.3232,-2.3537,-2.3803,-2.3883,-2.3482,-2.3697,-2.4052,-2.4269,-2.4249,-2.4198,-2.4152,-2.4164,-2.3849,-2.3372,-2.3038,-2.2553,-2.1911,-2.1185,-2.0284,-1.9173,-1.8247,-1.7399,-1.6509,-1.5643,-1.481,-1.4013,-1.3258,-1.2662,-1.2326,-1.1946,-1.1736,-1.1699,-1.1618,-1.1656,-1.1742,-1.1952,-1.246,-1.3009,-1.3597,-1.4272,-1.4776,-1.536,-1.5899,-1.6607,-1.7383,-1.8385,-1.9231,-1.9833,-2.0459,-2.1079,-2.1502,-2.1959,-2.2665,-2.3409,-2.4043,-2.4634,-2.5016,-2.5218,-2.5241,-2.5312,-2.55,-2.5746,-2.599,-2.6427,-2.7074,-2.7577,-2.8039,0.0,0.0,0.0,0.0135,0.0404,0.0471,0.0875,0.1548,0.222,0.2959,0.3833,0.4775,0.558,0.625,0.6855,0.6788,0.633,0.5751,0.4831,0.3593,0.2879,0.185,0.0494,-0.0555,-0.1541,-0.2519,-0.3942,-0.5376,-0.6637,-0.7964,-0.9244,-1.0339,-1.1728,-1.3014,-1.4126,-1.5211,-1.585,-1.666,-1.7518,-1.869,-2.007,-2.1374,-2.2097,-2.2485,-2.2828,-2.3091,-2.3101,-2.3101,-2.3232,-2.345,-2.3691,-2.3515,-2.3033,-2.3133,-2.2874,-2.2775,-2.2836,-2.3187,-2.3224,-2.3224,-2.3038,-2.2617,-2.2317,-2.1911,-2.1146,-2.0167,-1.9173,-1.8278,-1.7359,-1.6468,-1.5636,-1.4761,-1.3971,-1.3252,-1.2571,-1.2106,-1.1774,-1.1645,-1.1397,-1.1397,-1.144,-1.1397,-1.144,-1.165,-1.1995,-1.254,-1.3088,-1.3766,-1.4482,-1.5193,-1.5858,-1.6607,-1.7343,-1.8353,-1.9112,-1.9706,-2.0294,-2.1002,-2.1425,-2.1845,-2.2515,-2.3224,-2.3824,-2.437,-2.4802,-2.5147,-2.5206,-2.5312,-2.5394,-2.5571,-2.5816,-2.6324,-2.6905,-2.7377,-2.7743,0.0471,0.0269,0.0539,0.0673,0.0875,0.101,0.1547,0.2288,0.3027,0.3967,0.4973,0.5714,0.6453,0.7056,0.7393,0.719,0.6745,0.6391,0.5538,0.4287,0.3383,0.2345,0.1111,0.0062,-0.0987,-0.1962,-0.3073,-0.4152,-0.5616,-0.7388,-0.896,-1.0,-1.1396,-1.2758,-1.3948,-1.5081,-1.6035,-1.6951,-1.794,-1.8981,-2.0012,-2.0952,-2.1767,-2.2397,-2.275,-2.296,-2.3091,-2.3101,-2.3144,-2.327,-2.3305,-2.3028,-2.2582,-2.2392,-2.2155,-2.1537,-2.1634,-2.2014,-2.2392,-2.2429,-2.2176,-2.1787,-2.1443,-2.0982,-2.005,-1.9134,-1.8175,-1.7326,-1.6468,-1.5602,-1.4768,-1.3971,-1.3124,-1.2443,-1.1929,-1.1591,-1.13,-1.1262,-1.1138,-1.1176,-1.1219,-1.1219,-1.1262,-1.1483,-1.1823,-1.2326,-1.296,-1.3639,-1.4482,-1.5325,-1.5989,-1.6689,-1.7465,-1.8273,-1.8953,-1.9587,-2.0137,-2.076,-2.131,-2.1769,-2.2402,-2.3038,-2.3593,-2.4127,-2.4634,-2.4909,-2.5135,-2.5276,-2.5359,-2.55,-2.5676,-2.6117,-2.6564,-2.7007,-2.7443,0.1615,0.1211,0.1211,0.1346,0.1615,0.1884,0.2489,0.3295,0.4034,0.4973,0.5981,0.6652,0.7257,0.7658,0.7789,0.7638,0.7197,0.6705,0.5855,0.4893,0.3819,0.2842,0.1727,0.074,-0.0247,-0.1171,-0.2273,-0.3245,-0.4618,-0.6384,-0.8118,-0.9596,-1.0962,-1.2377,-1.3624,-1.4877,-1.6008,-1.7137,-1.8155,-1.9075,-1.9841,-2.0628,-2.1445,-2.2132,-2.2618,-2.2882,-2.3057,-2.3101,-2.3101,-2.3076,-2.2893,-2.2616,-2.2152,-2.1808,-2.1352,-2.083,-2.0712,-2.0867,-2.1252,-2.1443,-2.1387,-2.0954,-2.0352,-1.9726,-1.8865,-1.8055,-1.7277,-1.6427,-1.5602,-1.4727,-1.3928,-1.3124,-1.2443,-1.1843,-1.137,-1.103,-1.0776,-1.0824,-1.0873,-1.0954,-1.0997,-1.1041,-1.1127,-1.1354,-1.1693,-1.2155,-1.279,-1.3519,-1.4398,-1.5325,-1.5989,-1.6607,-1.7335,-1.8103,-1.8785,-1.942,-1.9971,-2.0527,-2.1079,-2.1578,-2.2138,-2.274,-2.3298,-2.3824,-2.4429,-2.4814,-2.5076,-2.5182,-2.5312,-2.5418,-2.5558,-2.5781,-2.6164,-2.6645,-2.7142,0.3697,0.296,0.2019,0.2221,0.3026,0.3094,0.3698,0.4638,0.5376,0.5982,0.6654,0.7457,0.8123,0.8384,0.8366,0.8122,0.7767,0.7389,0.6523,0.555,0.4664,0.3518,0.2404,0.1356,0.0493,-0.0368,-0.1555,-0.2594,-0.3619,-0.5185,-0.7073,-0.8861,-1.0351,-1.1837,-1.3251,-1.4583,-1.5922,-1.7069,-1.8028,-1.8824,-1.957,-2.0402,-2.1266,-2.1998,-2.2539,-2.2882,-2.3101,-2.3057,-2.3003,-2.2984,-2.2571,-2.2211,-2.1649,-2.1165,-2.0601,-2.0076,-1.9824,-1.9854,-1.9932,-2.0323,-2.0411,-1.9893,-1.9173,-1.8399,-1.7772,-1.696,-1.6221,-1.5477,-1.4636,-1.3886,-1.3082,-1.2357,-1.1671,-1.1241,-1.0809,-1.0598,-1.0424,-1.0516,-1.0603,-1.0689,-1.0733,-1.0819,-1.0954,-1.1132,-1.1392,-1.1811,-1.2668,-1.3392,-1.4272,-1.5151,-1.5775,-1.6435,-1.7204,-1.7934,-1.8616,-1.9222,-1.9824,-2.0342,-2.0886,-2.131,-2.1807,-2.2365,-2.3001,-2.3593,-2.4164,-2.4586,-2.4981,-2.5147,-2.5276,-2.5347,-2.5453,-2.5676,-2.6025,-2.6508,-2.6952,0.4437,0.4505,0.4102,0.3901,0.3897,0.4101,0.4705,0.5444,0.6049,0.6719,0.7524,0.8123,0.8454,0.8568,0.8505,0.8265,0.7927,0.763,0.6785,0.5904,0.4971,0.401,0.2835,0.1788,0.0863,0.0,-0.1138,-0.2119,-0.3048,-0.4377,-0.5949,-0.7756,-0.9578,-1.1118,-1.2595,-1.4411,-1.582,-1.6632,-1.7541,-1.8348,-1.8891,-1.9675,-2.0637,-2.1633,-2.1919,-2.2309,-2.2574,-2.2662,-2.2662,-2.248,-2.2035,-2.1545,-2.1087,-2.0476,-1.9851,-1.925,-1.9063,-1.8825,-1.8665,-1.9103,-1.9341,-1.8736,-1.7965,-1.7229,-1.6698,-1.5966,-1.522,-1.4468,-1.3711,-1.2954,-1.2272,-1.1499,-1.0895,-1.0549,-1.025,-1.0033,-0.999,-0.999,-1.0125,-1.0125,-1.0337,-1.0554,-1.0738,-1.0916,-1.117,-1.1462,-1.2406,-1.3307,-1.4146,-1.4943,-1.5567,-1.627,-1.7009,-1.77,-1.8385,-1.9073,-1.9715,-2.0225,-2.0693,-2.1156,-2.1627,-2.2149,-2.274,-2.3335,-2.3934,-2.4442,-2.4838,-2.5111,-2.5276,-2.5312,-2.5382,-2.5535,-2.5955,-2.6371,-2.6714,0.551,0.5848,0.5982,0.5646,0.5173,0.5376,0.578,0.6384,0.6853,0.7457,0.8253,0.8493,0.8538,0.8505,0.8418,0.8199,0.794,0.763,0.7048,0.6299,0.5509,0.4501,0.3453,0.2466,0.1541,0.049,-0.048,-0.1354,-0.2233,-0.3585,-0.505,-0.6758,-0.8585,-1.0186,-1.2214,-1.4245,-1.5777,-1.6233,-1.7102,-1.7816,-1.8248,-1.908,-1.9866,-2.0907,-2.1275,-2.1678,-2.1989,-2.2113,-2.2117,-2.1845,-2.1423,-2.0848,-2.0319,-1.9747,-1.9065,-1.8576,-1.8207,-1.7934,-1.7723,-1.7804,-1.8046,-1.7432,-1.669,-1.6034,-1.5462,-1.4796,-1.3964,-1.3457,-1.2699,-1.2015,-1.1375,-1.0766,-1.025,-0.9903,-0.951,-0.9292,-0.9248,-0.9297,-0.9471,-0.9563,-0.982,-1.0038,-1.0342,-1.0608,-1.1127,-1.1467,-1.2192,-1.3009,-1.3773,-1.4566,-1.536,-1.6064,-1.6812,-1.7505,-1.8193,-1.8913,-1.9587,-2.0069,-2.0576,-2.1012,-2.1512,-2.1997,-2.2515,-2.3113,-2.3714,-2.4309,-2.4742,-2.5016,-2.5182,-2.5312,-2.5382,-2.5465,-2.5676,-2.6094,-2.6336,0.719,0.7054,0.7254,0.7187,0.6851,0.6918,0.7121,0.7388,0.7791,0.8182,0.8493,0.8478,0.8426,0.8394,0.8293,0.8137,0.8059,0.7749,0.7314,0.6742,0.6048,0.5239,0.4253,0.3267,0.2155,0.1407,0.0299,-0.0707,-0.1468,-0.2901,-0.426,-0.5813,-0.77,-0.9581,-1.1673,-1.3846,-1.5188,-1.5878,-1.68,-1.7322,-1.7794,-1.8581,-1.9309,-1.9948,-2.0546,-2.0952,-2.1168,-2.1356,-2.1265,-2.0982,-2.0592,-2.0006,-1.9339,-1.885,-1.8273,-1.7691,-1.7237,-1.6911,-1.6698,-1.6739,-1.6363,-1.6034,-1.5365,-1.4699,-1.409,-1.3379,-1.2699,-1.2266,-1.1714,-1.1154,-1.0593,-1.0033,-0.9559,-0.9165,-0.8771,-0.8504,-0.846,-0.846,-0.8596,-0.8863,-0.917,-0.9432,-0.982,-1.0255,-1.0959,-1.1516,-1.2069,-1.2753,-1.3476,-1.423,-1.5019,-1.5775,-1.6476,-1.718,-1.787,-1.8745,-1.942,-1.9942,-2.042,-2.0858,-2.132,-2.1807,-2.2327,-2.2927,-2.3482,-2.4091,-2.455,-2.4945,-2.5111,-2.5276,-2.5276,-2.5382,-2.5571,-2.5781,-2.6025,0.7591,0.7722,0.7858,0.7992,0.7987,0.7522,0.7524,0.7925,0.8251,0.8413,0.8478,0.8426,0.8364,0.8282,0.8179,0.8149,0.8049,0.7948,0.7582,0.7148,0.6528,0.5665,0.4681,0.3696,0.2639,0.1636,0.0654,-0.0293,-0.11,-0.2376,-0.3757,-0.5254,-0.7531,-0.9801,-1.1509,-1.3166,-1.415,-1.4822,-1.5739,-1.6518,-1.7037,-1.7785,-1.8527,-1.9134,-1.9583,-1.9903,-2.0121,-2.0266,-2.015,-1.9824,-1.9402,-1.888,-1.8246,-1.7728,-1.7074,-1.6501,-1.6057,-1.5636,-1.5005,-1.4545,-1.4336,-1.4294,-1.4161,-1.3444,-1.2778,-1.2186,-1.1585,-1.1111,-1.0631,-1.0159,-0.9733,-0.9074,-0.8592,-0.8241,-0.7889,-0.7621,-0.7533,-0.758,-0.7669,-0.8069,-0.8424,-0.9165,-0.9733,-1.0168,-1.0781,-1.13,-1.1854,-1.254,-1.3264,-1.4019,-1.4768,-1.5436,-1.6147,-1.6804,-1.7578,-1.8456,-1.9183,-1.9666,-2.0186,-2.0625,-2.1118,-2.1568,-2.2101,-2.2665,-2.3261,-2.3861,-2.437,-2.4802,-2.5076,-2.5253,-2.5276,-2.5312,-2.543,-2.5571,-2.5711,0.8056,0.8256,0.8259,0.839,0.852,0.8056,0.8056,0.8248,0.848,0.8484,0.8413,0.8337,0.825,0.8149,0.8054,0.8051,0.7981,0.7918,0.7691,0.7383,0.7018,0.6158,0.5174,0.4185,0.3301,0.223,0.1128,0.0175,-0.0576,-0.1809,-0.3418,-0.5475,-0.7642,-0.9306,-1.0958,-1.234,-1.3673,-1.4464,-1.5337,-1.6019,-1.6477,-1.7052,-1.7707,-1.8133,-1.8496,-1.8758,-1.8842,-1.887,-1.8817,-1.8467,-1.8041,-1.7568,-1.6967,-1.641,-1.5794,-1.5311,-1.4643,-1.4139,-1.3415,-1.2772,-1.2687,-1.2681,-1.2638,-1.2217,-1.1499,-1.0895,-1.0419,-0.9941,-0.9506,-0.9157,-0.8727,-0.8065,-0.7713,-0.7404,-0.7183,-0.6915,-0.6874,-0.6918,-0.7095,-0.7452,-0.7984,-0.8811,-0.9685,-1.0164,-1.0689,-1.1122,-1.1596,-1.2283,-1.2966,-1.3682,-1.4398,-1.5068,-1.5816,-1.6566,-1.7343,-1.8224,-1.8904,-1.9429,-1.9951,-2.0459,-2.0886,-2.1377,-2.1911,-2.2451,-2.3012,-2.3604,-2.4225,-2.4647,-2.504,-2.5241,-2.5276,-2.5312,-2.5312,-2.5382,-2.5535,0.8587,0.8587,0.8587,0.8587,0.8587,0.8509,0.8573,0.8568,0.8462,0.8405,0.8383,0.8157,0.8139,0.8095,0.7988,0.7949,0.7952,0.7877,0.775,0.7505,0.7263,0.6589,0.5908,0.5037,0.401,0.2943,0.1892,0.087,-0.0057,-0.1526,-0.3415,-0.5365,-0.7146,-0.8644,-1.0135,-1.1688,-1.3042,-1.3892,-1.485,-1.5431,-1.5808,-1.6447,-1.6871,-1.72,-1.7466,-1.7645,-1.7738,-1.7809,-1.7553,-1.7168,-1.6749,-1.6122,-1.5586,-1.5159,-1.4643,-1.3971,-1.3124,-1.2528,-1.1966,-1.1408,-1.0971,-1.088,-1.0799,-1.0549,-1.025,-0.9685,-0.92,-0.8807,-0.8408,-0.8061,-0.7669,-0.7316,-0.6962,-0.6697,-0.652,-0.6387,-0.639,-0.6479,-0.6609,-0.701,-0.7584,-0.8372,-0.9379,-1.0033,-1.0386,-1.0776,-1.1165,-1.1677,-1.2406,-1.3179,-1.3893,-1.4657,-1.5409,-1.6327,-1.7098,-1.7821,-1.8545,-1.9063,-1.9736,-2.0294,-2.075,-2.1146,-2.1606,-2.2138,-2.2703,-2.3335,-2.4189,-2.4694,-2.504,-2.517,-2.5276,-2.5312,-2.5312,-2.5312,-2.5382,0.8587,0.8587,0.8587,0.8587,0.8576,0.85,0.8465,0.8451,0.8339,0.8247,0.8215,0.8152,0.8067,0.7924,0.7883,0.7936,0.7933,0.7872,0.7872,0.7689,0.7508,0.6896,0.6257,0.5544,0.4571,0.3555,0.2567,0.1552,0.034,-0.1233,-0.3136,-0.5087,-0.6424,-0.7759,-0.9196,-1.0684,-1.1882,-1.3065,-1.4072,-1.4713,-1.5072,-1.5588,-1.5967,-1.6339,-1.652,-1.6662,-1.6709,-1.6716,-1.6377,-1.5694,-1.5353,-1.4832,-1.4262,-1.3675,-1.3039,-1.2174,-1.1537,-1.0982,-1.0549,-1.012,-0.9685,-0.9196,-0.8982,-0.8934,-0.8763,-0.85,-0.8017,-0.7665,-0.7353,-0.7092,-0.6786,-0.6476,-0.621,-0.6074,-0.5899,-0.5902,-0.5902,-0.6038,-0.6213,-0.6653,-0.7187,-0.7977,-0.903,-0.9689,-1.0081,-1.0386,-1.0771,-1.1241,-1.1886,-1.2705,-1.3392,-1.411,-1.4915,-1.5748,-1.6451,-1.7139,-1.7983,-1.8745,-1.9381,-2.001,-2.045,-2.0876,-2.13,-2.1863,-2.259,-2.3457,-2.4309,-2.4694,-2.4862,-2.517,-2.5264,-2.5276,-2.5312,-2.5276,-2.5276,0.8587,0.8581,0.8538,0.8494,0.8432,0.8323,0.8338,0.8386,0.8256,0.8117,0.8117,0.8065,0.8002,0.7949,0.7933,0.7933,0.7933,0.7933,0.7872,0.7811,0.7691,0.7284,0.6633,0.5976,0.5232,0.4213,0.3231,0.2226,0.0957,-0.0896,-0.2855,-0.4142,-0.5479,-0.6869,-0.8202,-0.9395,-1.0481,-1.1745,-1.2828,-1.3707,-1.4254,-1.458,-1.5057,-1.5486,-1.5581,-1.5676,-1.5724,-1.5683,-1.5179,-1.4508,-1.4186,-1.3603,-1.2991,-1.2314,-1.1623,-1.0847,-1.0381,-0.9898,-0.9467,-0.899,-0.8464,-0.7977,-0.7536,-0.7356,-0.7353,-0.7224,-0.6871,-0.6558,-0.634,-0.6121,-0.5855,-0.5636,-0.5544,-0.5453,-0.5411,-0.5371,-0.546,-0.5552,-0.5905,-0.6346,-0.6962,-0.7669,-0.8416,-0.9122,-0.9694,-0.9951,-1.0337,-1.0809,-1.1499,-1.2363,-1.2918,-1.3519,-1.4321,-1.5117,-1.5782,-1.6525,-1.7375,-1.8184,-1.8913,-1.9508,-2.0059,-2.0644,-2.1098,-2.1825,-2.2617,-2.3372,-2.408,-2.4381,-2.4586,-2.4897,-2.5147,-2.5087,-2.5123,-2.5253,-2.5253,0.8648,0.856,0.8451,0.8399,0.8214,0.824,0.8375,0.8537,0.8352,0.8163,0.8197,0.8047,0.8064,0.8116,0.8116,0.8116,0.8116,0.8055,0.8058,0.7933,0.7872,0.7519,0.7075,0.6593,0.5894,0.498,0.3999,0.2948,0.1688,-0.0056,-0.1849,-0.3026,-0.4479,-0.5815,-0.7038,-0.8205,-0.9258,-1.0217,-1.1499,-1.2572,-1.3225,-1.3661,-1.4004,-1.4496,-1.464,-1.4688,-1.4783,-1.4649,-1.4339,-1.374,-1.3113,-1.2472,-1.1625,-1.1068,-1.0376,-0.9811,-0.934,-0.8811,-0.8324,-0.7889,-0.7448,-0.7007,-0.6564,-0.6163,-0.603,-0.6207,-0.5983,-0.563,-0.5411,-0.5188,-0.4924,-0.4924,-0.4879,-0.4921,-0.5013,-0.5102,-0.5235,-0.5371,-0.5591,-0.6033,-0.6564,-0.7228,-0.7672,-0.8376,-0.8903,-0.9336,-0.9903,-1.0381,-1.0982,-1.1843,-1.2491,-1.296,-1.373,-1.4531,-1.5276,-1.6023,-1.6804,-1.7578,-1.8353,-1.9002,-1.9557,-2.0216,-2.0944,-2.1672,-2.2402,-2.3075,-2.3666,-2.4043,-2.4381,-2.467,-2.4849,-2.4825,-2.4933,-2.5052,-2.5182,0.88,0.8448,0.8584,0.8522,0.8475,0.8693,0.893,0.9145,0.9081,0.8965,0.8772,0.8686,0.8671,0.8671,0.8668,0.8668,0.8607,0.8424,0.8305,0.8175,0.8111,0.778,0.7262,0.6995,0.6422,0.5752,0.477,0.355,0.2077,0.0504,-0.0897,-0.213,-0.3417,-0.4646,-0.5815,-0.6977,-0.7998,-0.8811,-0.978,-1.1111,-1.2085,-1.2603,-1.2996,-1.3426,-1.3613,-1.3661,-1.3709,-1.374,-1.3167,-1.2555,-1.2013,-1.1111,-0.9989,-0.9747,-0.9165,-0.8504,-0.8245,-0.7757,-0.718,-0.6782,-0.6432,-0.5944,-0.55,-0.5099,-0.4966,-0.5186,-0.5142,-0.4743,-0.4478,-0.43,-0.4166,-0.4212,-0.4302,-0.4478,-0.4612,-0.4835,-0.501,-0.5188,-0.5364,-0.5766,-0.621,-0.6612,-0.7058,-0.754,-0.8069,-0.8684,-0.934,-0.9907,-1.0337,-1.103,-1.1843,-1.24,-1.3137,-1.3942,-1.4692,-1.5484,-1.6221,-1.7009,-1.7789,-1.8434,-1.9082,-1.9981,-2.0876,-2.1454,-2.2101,-2.2703,-2.3298,-2.3849,-2.4189,-2.4393,-2.4538,-2.4538,-2.4646,-2.4802,-2.4981,0.9258,0.885,0.8991,0.8958,0.8971,0.9393,0.9716,0.9954,1.0126,1.0183,1.0065,0.9643,0.9278,0.9339,0.9278,0.9339,0.9278,0.8912,0.8851,0.8723,0.8412,0.8008,0.7667,0.7322,0.6851,0.6186,0.5244,0.398,0.2579,0.1402,0.0224,-0.1009,-0.2185,-0.3417,-0.4583,-0.5715,-0.6769,-0.7641,-0.8216,-0.9271,-1.0618,-1.1189,-1.1829,-1.2306,-1.2543,-1.2597,-1.2646,-1.2673,-1.2125,-1.1338,-1.0663,-0.9817,-0.8937,-0.8648,-0.8113,-0.7492,-0.7098,-0.6786,-0.6121,-0.5677,-0.5455,-0.4966,-0.4654,-0.4297,-0.3941,-0.4117,-0.4162,-0.3851,-0.3987,-0.3855,-0.3853,-0.3855,-0.39,-0.3987,-0.4123,-0.4257,-0.4612,-0.4921,-0.5055,-0.5322,-0.5677,-0.5944,-0.639,-0.6745,-0.7316,-0.7933,-0.8592,-0.9209,-0.9646,-1.0164,-1.1025,-1.18,-1.2491,-1.3179,-1.3942,-1.4734,-1.5567,-1.6394,-1.7261,-1.8233,-1.9121,-1.9981,-2.0799,-2.1262,-2.1721,-2.2252,-2.2852,-2.3372,-2.3677,-2.3787,-2.4018,-2.4236,-2.4381,-2.449,-2.4634,0.9932,0.9558,0.9632,0.964,0.9653,1.0247,1.0668,1.097,1.1269,1.1575,1.1635,1.0668,1.0183,1.0061,1.0061,1.0061,0.994,0.9758,0.9579,0.9418,0.8954,0.8548,0.8119,0.7749,0.7293,0.6656,0.5772,0.4817,0.3699,0.2578,0.1401,0.0224,-0.0953,-0.2186,-0.3344,-0.446,-0.5457,-0.6371,-0.7061,-0.7741,-0.8689,-0.9616,-1.0502,-1.1096,-1.1389,-1.1536,-1.1536,-1.1429,-1.1005,-1.0222,-0.9328,-0.846,-0.7867,-0.7492,-0.7007,-0.6428,-0.6163,-0.5675,-0.5055,-0.4832,-0.4385,-0.3983,-0.3805,-0.3539,-0.3136,-0.2957,-0.3047,-0.3092,-0.3227,-0.3361,-0.3317,-0.3361,-0.3363,-0.3497,-0.3542,-0.3676,-0.4121,-0.452,-0.4699,-0.4832,-0.5099,-0.5366,-0.5677,-0.6077,-0.6564,-0.7139,-0.7713,-0.8288,-0.8859,-0.9423,-1.0111,-1.089,-1.1634,-1.2363,-1.3222,-1.411,-1.5026,-1.594,-1.6845,-1.8063,-1.9112,-1.9784,-2.0411,-2.0925,-2.1387,-2.1759,-2.2176,-2.2665,-2.2927,-2.3235,-2.3567,-2.3861,-2.4007,-2.4116,-2.4236,1.0679,1.0301,1.049,1.0697,1.0974,1.1329,1.1696,1.1933,1.1997,1.2234,1.2419,1.2359,1.1933,1.1454,1.1394,1.1329,1.1148,1.0785,1.0547,1.0461,0.9814,0.9206,0.8775,0.8451,0.7886,0.7198,0.6543,0.5764,0.4761,0.3754,0.2635,0.1458,0.028,-0.0952,-0.2124,-0.3247,-0.4265,-0.5147,-0.5888,-0.654,-0.7475,-0.8428,-0.9274,-0.9817,-1.0216,-1.0167,-1.0167,-1.0216,-0.979,-0.8999,-0.8084,-0.7269,-0.6782,-0.634,-0.5852,-0.5408,-0.5139,-0.4605,-0.4119,-0.3853,-0.3449,-0.309,-0.2868,-0.2556,-0.2198,-0.1928,-0.1928,-0.1838,-0.2017,-0.2287,-0.2332,-0.2467,-0.2512,-0.2781,-0.296,-0.3139,-0.3449,-0.3764,-0.4032,-0.4255,-0.4478,-0.479,-0.5144,-0.5455,-0.5769,-0.6343,-0.6782,-0.7356,-0.7981,-0.8588,-0.9196,-0.9985,-1.0766,-1.1886,-1.2869,-1.3682,-1.4566,-1.5436,-1.6476,-1.7732,-1.8745,-1.939,-1.9951,-2.042,-2.077,-2.1146,-2.1568,-2.1987,-2.2413,-2.2751,-2.315,-2.3446,-2.3593,-2.374,-2.3861]}]]